<?xml version="1.0" encoding="UTF-8" standalone="no" ?>
<gpx xmlns="http://www.topografix.com/GPX/1/1" xmlns:xsi="http://www.w3.org/2001/XMLSchema-instance" xsi:schemaLocation="http://www.topografix.com/GPX/1/1 http://www.topografix.com/GPX/1/1/gpx.xsd" version="1.1" creator="VisuGPX - https://www.visugpx.com">
  <metadata>
    <name>claqué</name>
    <desc><![CDATA[on se vautre toujours quand il fait nuit et qu\'on fatigue]]></desc>
  </metadata>
  <trk>
    <name><![CDATA[claqué]]></name>
    <trkseg>
      <trkpt lat="48.9091" lon="2.38712">
        <ele>27</ele>
        <time>2013-09-26T17:24:41Z</time>
      </trkpt>
      <trkpt lat="48.90903" lon="2.38759">
        <ele>29</ele>
        <time>2013-09-26T17:25:06Z</time>
      </trkpt>
      <trkpt lat="48.90884" lon="2.38772">
        <ele>45</ele>
        <time>2013-09-26T17:27:30Z</time>
      </trkpt>
      <trkpt lat="48.90879" lon="2.38772">
        <ele>46</ele>
        <time>2013-09-26T17:27:32Z</time>
      </trkpt>
      <trkpt lat="48.90874" lon="2.38768">
        <ele>41</ele>
        <time>2013-09-26T17:27:34Z</time>
      </trkpt>
      <trkpt lat="48.90872" lon="2.38761">
        <ele>36</ele>
        <time>2013-09-26T17:27:38Z</time>
      </trkpt>
      <trkpt lat="48.90867" lon="2.38752">
        <ele>38</ele>
        <time>2013-09-26T17:27:42Z</time>
      </trkpt>
      <trkpt lat="48.90862" lon="2.3874">
        <ele>33</ele>
        <time>2013-09-26T17:27:48Z</time>
      </trkpt>
      <trkpt lat="48.90864" lon="2.38733">
        <ele>35</ele>
        <time>2013-09-26T17:27:59Z</time>
      </trkpt>
      <trkpt lat="48.90871" lon="2.38727">
        <ele>35</ele>
        <time>2013-09-26T17:28:02Z</time>
      </trkpt>
      <trkpt lat="48.90876" lon="2.38723">
        <ele>34</ele>
        <time>2013-09-26T17:28:04Z</time>
      </trkpt>
      <trkpt lat="48.90887" lon="2.38714">
        <ele>39</ele>
        <time>2013-09-26T17:28:08Z</time>
      </trkpt>
      <trkpt lat="48.90893" lon="2.38708">
        <ele>39</ele>
        <time>2013-09-26T17:28:10Z</time>
      </trkpt>
      <trkpt lat="48.909" lon="2.38703">
        <ele>41</ele>
        <time>2013-09-26T17:28:12Z</time>
      </trkpt>
      <trkpt lat="48.90917" lon="2.38689">
        <ele>40</ele>
        <time>2013-09-26T17:28:17Z</time>
      </trkpt>
      <trkpt lat="48.90924" lon="2.38682">
        <ele>36</ele>
        <time>2013-09-26T17:28:19Z</time>
      </trkpt>
      <trkpt lat="48.9094" lon="2.38663">
        <ele>35</ele>
        <time>2013-09-26T17:28:25Z</time>
      </trkpt>
      <trkpt lat="48.90944" lon="2.38658">
        <ele>33</ele>
        <time>2013-09-26T17:28:27Z</time>
      </trkpt>
      <trkpt lat="48.90948" lon="2.38651">
        <ele>36</ele>
        <time>2013-09-26T17:28:29Z</time>
      </trkpt>
      <trkpt lat="48.90952" lon="2.38646">
        <ele>37</ele>
        <time>2013-09-26T17:28:31Z</time>
      </trkpt>
      <trkpt lat="48.90955" lon="2.38636">
        <ele>36</ele>
        <time>2013-09-26T17:28:33Z</time>
      </trkpt>
      <trkpt lat="48.9096" lon="2.3863">
        <ele>34</ele>
        <time>2013-09-26T17:28:35Z</time>
      </trkpt>
      <trkpt lat="48.90967" lon="2.38625">
        <ele>38</ele>
        <time>2013-09-26T17:28:37Z</time>
      </trkpt>
      <trkpt lat="48.90973" lon="2.38623">
        <ele>36</ele>
        <time>2013-09-26T17:28:39Z</time>
      </trkpt>
      <trkpt lat="48.9098" lon="2.38619">
        <ele>35</ele>
        <time>2013-09-26T17:28:41Z</time>
      </trkpt>
      <trkpt lat="48.91017" lon="2.38594">
        <ele>43</ele>
        <time>2013-09-26T17:28:52Z</time>
      </trkpt>
      <trkpt lat="48.91021" lon="2.38587">
        <ele>39</ele>
        <time>2013-09-26T17:28:54Z</time>
      </trkpt>
      <trkpt lat="48.91027" lon="2.38579">
        <ele>33</ele>
        <time>2013-09-26T17:28:56Z</time>
      </trkpt>
      <trkpt lat="48.91034" lon="2.38571">
        <ele>36</ele>
        <time>2013-09-26T17:28:58Z</time>
      </trkpt>
      <trkpt lat="48.9104" lon="2.38566">
        <ele>37</ele>
        <time>2013-09-26T17:29:00Z</time>
      </trkpt>
      <trkpt lat="48.91048" lon="2.38558">
        <ele>36</ele>
        <time>2013-09-26T17:29:03Z</time>
      </trkpt>
      <trkpt lat="48.91054" lon="2.3855">
        <ele>36</ele>
        <time>2013-09-26T17:29:05Z</time>
      </trkpt>
      <trkpt lat="48.91057" lon="2.38543">
        <ele>37</ele>
        <time>2013-09-26T17:29:08Z</time>
      </trkpt>
      <trkpt lat="48.91061" lon="2.38538">
        <ele>34</ele>
        <time>2013-09-26T17:29:15Z</time>
      </trkpt>
      <trkpt lat="48.91066" lon="2.38534">
        <ele>28</ele>
        <time>2013-09-26T17:29:34Z</time>
      </trkpt>
      <trkpt lat="48.91066" lon="2.38525">
        <ele>38</ele>
        <time>2013-09-26T17:29:44Z</time>
      </trkpt>
      <trkpt lat="48.9106" lon="2.38521">
        <ele>38</ele>
        <time>2013-09-26T17:29:47Z</time>
      </trkpt>
      <trkpt lat="48.91055" lon="2.38519">
        <ele>33</ele>
        <time>2013-09-26T17:29:50Z</time>
      </trkpt>
      <trkpt lat="48.91048" lon="2.38519">
        <ele>37</ele>
        <time>2013-09-26T17:29:55Z</time>
      </trkpt>
      <trkpt lat="48.91042" lon="2.38522">
        <ele>41</ele>
        <time>2013-09-26T17:29:59Z</time>
      </trkpt>
      <trkpt lat="48.91037" lon="2.38525">
        <ele>53</ele>
        <time>2013-09-26T17:30:03Z</time>
      </trkpt>
      <trkpt lat="48.91032" lon="2.38526">
        <ele>45</ele>
        <time>2013-09-26T17:30:07Z</time>
      </trkpt>
      <trkpt lat="48.91026" lon="2.38528">
        <ele>42</ele>
        <time>2013-09-26T17:30:11Z</time>
      </trkpt>
      <trkpt lat="48.91021" lon="2.38531">
        <ele>39</ele>
        <time>2013-09-26T17:30:15Z</time>
      </trkpt>
      <trkpt lat="48.91007" lon="2.38537">
        <ele>33</ele>
        <time>2013-09-26T17:30:28Z</time>
      </trkpt>
      <trkpt lat="48.91013" lon="2.38535">
        <ele>12</ele>
        <time>2013-09-26T17:30:40Z</time>
      </trkpt>
      <trkpt lat="48.91018" lon="2.38528">
        <ele>17</ele>
        <time>2013-09-26T17:30:43Z</time>
      </trkpt>
      <trkpt lat="48.91031" lon="2.38507">
        <ele>26</ele>
        <time>2013-09-26T17:30:52Z</time>
      </trkpt>
      <trkpt lat="48.91038" lon="2.38504">
        <ele>25</ele>
        <time>2013-09-26T17:30:55Z</time>
      </trkpt>
      <trkpt lat="48.91049" lon="2.38497">
        <ele>22</ele>
        <time>2013-09-26T17:30:59Z</time>
      </trkpt>
      <trkpt lat="48.91053" lon="2.38491">
        <ele>27</ele>
        <time>2013-09-26T17:31:01Z</time>
      </trkpt>
      <trkpt lat="48.91056" lon="2.38484">
        <ele>30</ele>
        <time>2013-09-26T17:31:03Z</time>
      </trkpt>
      <trkpt lat="48.91058" lon="2.38477">
        <ele>38</ele>
        <time>2013-09-26T17:31:05Z</time>
      </trkpt>
      <trkpt lat="48.91065" lon="2.38447">
        <ele>34</ele>
        <time>2013-09-26T17:31:13Z</time>
      </trkpt>
      <trkpt lat="48.91067" lon="2.38439">
        <ele>33</ele>
        <time>2013-09-26T17:31:16Z</time>
      </trkpt>
      <trkpt lat="48.91071" lon="2.38431">
        <ele>39</ele>
        <time>2013-09-26T17:31:19Z</time>
      </trkpt>
      <trkpt lat="48.91073" lon="2.38421">
        <ele>38</ele>
        <time>2013-09-26T17:31:21Z</time>
      </trkpt>
      <trkpt lat="48.91074" lon="2.38412">
        <ele>38</ele>
        <time>2013-09-26T17:31:23Z</time>
      </trkpt>
      <trkpt lat="48.91074" lon="2.38402">
        <ele>36</ele>
        <time>2013-09-26T17:31:26Z</time>
      </trkpt>
      <trkpt lat="48.91075" lon="2.38392">
        <ele>39</ele>
        <time>2013-09-26T17:31:30Z</time>
      </trkpt>
      <trkpt lat="48.91075" lon="2.38382">
        <ele>39</ele>
        <time>2013-09-26T17:31:34Z</time>
      </trkpt>
      <trkpt lat="48.91076" lon="2.38372">
        <ele>41</ele>
        <time>2013-09-26T17:31:37Z</time>
      </trkpt>
      <trkpt lat="48.91085" lon="2.38316">
        <ele>32</ele>
        <time>2013-09-26T17:31:54Z</time>
      </trkpt>
      <trkpt lat="48.91086" lon="2.38306">
        <ele>49</ele>
        <time>2013-09-26T17:31:59Z</time>
      </trkpt>
      <trkpt lat="48.91091" lon="2.383">
        <ele>41</ele>
        <time>2013-09-26T17:32:02Z</time>
      </trkpt>
      <trkpt lat="48.91094" lon="2.38289">
        <ele>40</ele>
        <time>2013-09-26T17:32:08Z</time>
      </trkpt>
      <trkpt lat="48.91096" lon="2.3828">
        <ele>39</ele>
        <time>2013-09-26T17:32:11Z</time>
      </trkpt>
      <trkpt lat="48.91097" lon="2.38272">
        <ele>37</ele>
        <time>2013-09-26T17:32:13Z</time>
      </trkpt>
      <trkpt lat="48.91098" lon="2.38265">
        <ele>35</ele>
        <time>2013-09-26T17:32:15Z</time>
      </trkpt>
      <trkpt lat="48.91099" lon="2.38256">
        <ele>37</ele>
        <time>2013-09-26T17:32:18Z</time>
      </trkpt>
      <trkpt lat="48.91099" lon="2.38232">
        <ele>30</ele>
        <time>2013-09-26T17:32:27Z</time>
      </trkpt>
      <trkpt lat="48.91099" lon="2.3822">
        <ele>37</ele>
        <time>2013-09-26T17:32:32Z</time>
      </trkpt>
      <trkpt lat="48.91102" lon="2.38199">
        <ele>30</ele>
        <time>2013-09-26T17:32:42Z</time>
      </trkpt>
      <trkpt lat="48.91106" lon="2.38189">
        <ele>32</ele>
        <time>2013-09-26T17:32:45Z</time>
      </trkpt>
      <trkpt lat="48.91109" lon="2.38183">
        <ele>29</ele>
        <time>2013-09-26T17:32:47Z</time>
      </trkpt>
      <trkpt lat="48.91112" lon="2.38174">
        <ele>33</ele>
        <time>2013-09-26T17:32:50Z</time>
      </trkpt>
      <trkpt lat="48.91117" lon="2.38146">
        <ele>28</ele>
        <time>2013-09-26T17:32:59Z</time>
      </trkpt>
      <trkpt lat="48.91119" lon="2.38134">
        <ele>26</ele>
        <time>2013-09-26T17:33:03Z</time>
      </trkpt>
      <trkpt lat="48.91123" lon="2.38103">
        <ele>23</ele>
        <time>2013-09-26T17:33:12Z</time>
      </trkpt>
      <trkpt lat="48.91125" lon="2.38096">
        <ele>20</ele>
        <time>2013-09-26T17:33:14Z</time>
      </trkpt>
      <trkpt lat="48.91127" lon="2.38087">
        <ele>18</ele>
        <time>2013-09-26T17:33:17Z</time>
      </trkpt>
      <trkpt lat="48.91128" lon="2.38073">
        <ele>22</ele>
        <time>2013-09-26T17:33:21Z</time>
      </trkpt>
      <trkpt lat="48.91127" lon="2.38049">
        <ele>27</ele>
        <time>2013-09-26T17:33:29Z</time>
      </trkpt>
      <trkpt lat="48.91126" lon="2.38041">
        <ele>30</ele>
        <time>2013-09-26T17:33:32Z</time>
      </trkpt>
      <trkpt lat="48.91128" lon="2.38032">
        <ele>31</ele>
        <time>2013-09-26T17:33:34Z</time>
      </trkpt>
      <trkpt lat="48.91131" lon="2.38023">
        <ele>29</ele>
        <time>2013-09-26T17:33:37Z</time>
      </trkpt>
      <trkpt lat="48.91141" lon="2.37994">
        <ele>21</ele>
        <time>2013-09-26T17:33:44Z</time>
      </trkpt>
      <trkpt lat="48.91144" lon="2.3798">
        <ele>20</ele>
        <time>2013-09-26T17:33:47Z</time>
      </trkpt>
      <trkpt lat="48.91145" lon="2.37971">
        <ele>19</ele>
        <time>2013-09-26T17:33:49Z</time>
      </trkpt>
      <trkpt lat="48.91145" lon="2.37963">
        <ele>17</ele>
        <time>2013-09-26T17:33:51Z</time>
      </trkpt>
      <trkpt lat="48.91138" lon="2.3796">
        <ele>24</ele>
        <time>2013-09-26T17:34:05Z</time>
      </trkpt>
      <trkpt lat="48.91065" lon="2.37927">
        <ele>38</ele>
        <time>2013-09-26T17:34:36Z</time>
      </trkpt>
      <trkpt lat="48.9106" lon="2.37922">
        <ele>39</ele>
        <time>2013-09-26T17:34:39Z</time>
      </trkpt>
      <trkpt lat="48.91052" lon="2.37919">
        <ele>31</ele>
        <time>2013-09-26T17:34:42Z</time>
      </trkpt>
      <trkpt lat="48.91044" lon="2.37918">
        <ele>34</ele>
        <time>2013-09-26T17:34:46Z</time>
      </trkpt>
      <trkpt lat="48.91031" lon="2.37913">
        <ele>36</ele>
        <time>2013-09-26T17:34:52Z</time>
      </trkpt>
      <trkpt lat="48.91023" lon="2.37906">
        <ele>43</ele>
        <time>2013-09-26T17:34:56Z</time>
      </trkpt>
      <trkpt lat="48.91005" lon="2.37895">
        <ele>36</ele>
        <time>2013-09-26T17:35:04Z</time>
      </trkpt>
      <trkpt lat="48.90999" lon="2.37893">
        <ele>37</ele>
        <time>2013-09-26T17:35:07Z</time>
      </trkpt>
      <trkpt lat="48.90994" lon="2.37889">
        <ele>34</ele>
        <time>2013-09-26T17:35:10Z</time>
      </trkpt>
      <trkpt lat="48.90989" lon="2.37881">
        <ele>44</ele>
        <time>2013-09-26T17:35:14Z</time>
      </trkpt>
      <trkpt lat="48.90985" lon="2.37867">
        <ele>55</ele>
        <time>2013-09-26T17:35:18Z</time>
      </trkpt>
      <trkpt lat="48.90991" lon="2.37865">
        <ele>50</ele>
        <time>2013-09-26T17:35:35Z</time>
      </trkpt>
      <trkpt lat="48.90985" lon="2.37862">
        <ele>48</ele>
        <time>2013-09-26T17:35:38Z</time>
      </trkpt>
      <trkpt lat="48.90949" lon="2.37845">
        <ele>44</ele>
        <time>2013-09-26T17:35:49Z</time>
      </trkpt>
      <trkpt lat="48.90941" lon="2.37842">
        <ele>43</ele>
        <time>2013-09-26T17:35:53Z</time>
      </trkpt>
      <trkpt lat="48.90934" lon="2.37841">
        <ele>44</ele>
        <time>2013-09-26T17:35:58Z</time>
      </trkpt>
      <trkpt lat="48.90928" lon="2.37842">
        <ele>39</ele>
        <time>2013-09-26T17:36:10Z</time>
      </trkpt>
      <trkpt lat="48.90926" lon="2.37832">
        <ele>41</ele>
        <time>2013-09-26T17:36:13Z</time>
      </trkpt>
      <trkpt lat="48.90921" lon="2.37823">
        <ele>41</ele>
        <time>2013-09-26T17:36:16Z</time>
      </trkpt>
      <trkpt lat="48.90915" lon="2.37818">
        <ele>42</ele>
        <time>2013-09-26T17:36:19Z</time>
      </trkpt>
      <trkpt lat="48.90912" lon="2.3781">
        <ele>36</ele>
        <time>2013-09-26T17:36:23Z</time>
      </trkpt>
      <trkpt lat="48.90907" lon="2.37804">
        <ele>35</ele>
        <time>2013-09-26T17:36:26Z</time>
      </trkpt>
      <trkpt lat="48.90901" lon="2.37801">
        <ele>37</ele>
        <time>2013-09-26T17:36:29Z</time>
      </trkpt>
      <trkpt lat="48.90895" lon="2.37795">
        <ele>39</ele>
        <time>2013-09-26T17:36:33Z</time>
      </trkpt>
      <trkpt lat="48.90889" lon="2.37788">
        <ele>39</ele>
        <time>2013-09-26T17:36:44Z</time>
      </trkpt>
      <trkpt lat="48.90884" lon="2.37781">
        <ele>34</ele>
        <time>2013-09-26T17:36:48Z</time>
      </trkpt>
      <trkpt lat="48.9088" lon="2.37778">
        <ele>35</ele>
        <time>2013-09-26T17:36:51Z</time>
      </trkpt>
      <trkpt lat="48.90878" lon="2.37778">
        <ele>36</ele>
        <time>2013-09-26T17:36:52Z</time>
      </trkpt>
      <trkpt lat="48.90867" lon="2.37781">
        <ele>35</ele>
        <time>2013-09-26T17:36:56Z</time>
      </trkpt>
      <trkpt lat="48.90863" lon="2.37779">
        <ele>36</ele>
        <time>2013-09-26T17:36:58Z</time>
      </trkpt>
      <trkpt lat="48.90859" lon="2.37779">
        <ele>39</ele>
        <time>2013-09-26T17:37:00Z</time>
      </trkpt>
      <trkpt lat="48.90853" lon="2.37775">
        <ele>40</ele>
        <time>2013-09-26T17:37:03Z</time>
      </trkpt>
      <trkpt lat="48.90841" lon="2.37767">
        <ele>46</ele>
        <time>2013-09-26T17:37:08Z</time>
      </trkpt>
      <trkpt lat="48.90837" lon="2.37764">
        <ele>45</ele>
        <time>2013-09-26T17:37:10Z</time>
      </trkpt>
      <trkpt lat="48.90829" lon="2.37755">
        <ele>43</ele>
        <time>2013-09-26T17:37:16Z</time>
      </trkpt>
      <trkpt lat="48.90827" lon="2.37751">
        <ele>44</ele>
        <time>2013-09-26T17:37:18Z</time>
      </trkpt>
      <trkpt lat="48.90824" lon="2.37749">
        <ele>46</ele>
        <time>2013-09-26T17:37:21Z</time>
      </trkpt>
      <trkpt lat="48.90818" lon="2.37744">
        <ele>46</ele>
        <time>2013-09-26T17:37:27Z</time>
      </trkpt>
      <trkpt lat="48.90816" lon="2.37741">
        <ele>46</ele>
        <time>2013-09-26T17:37:29Z</time>
      </trkpt>
      <trkpt lat="48.90813" lon="2.37736">
        <ele>37</ele>
        <time>2013-09-26T17:37:33Z</time>
      </trkpt>
      <trkpt lat="48.90806" lon="2.37728">
        <ele>37</ele>
        <time>2013-09-26T17:37:38Z</time>
      </trkpt>
      <trkpt lat="48.90803" lon="2.37725">
        <ele>45</ele>
        <time>2013-09-26T17:37:40Z</time>
      </trkpt>
      <trkpt lat="48.90798" lon="2.37722">
        <ele>42</ele>
        <time>2013-09-26T17:37:42Z</time>
      </trkpt>
      <trkpt lat="48.90796" lon="2.37719">
        <ele>44</ele>
        <time>2013-09-26T17:37:43Z</time>
      </trkpt>
      <trkpt lat="48.90793" lon="2.37716">
        <ele>44</ele>
        <time>2013-09-26T17:37:44Z</time>
      </trkpt>
      <trkpt lat="48.90783" lon="2.3771">
        <ele>35</ele>
        <time>2013-09-26T17:37:48Z</time>
      </trkpt>
      <trkpt lat="48.9078" lon="2.37708">
        <ele>37</ele>
        <time>2013-09-26T17:37:50Z</time>
      </trkpt>
      <trkpt lat="48.90776" lon="2.37705">
        <ele>37</ele>
        <time>2013-09-26T17:37:52Z</time>
      </trkpt>
      <trkpt lat="48.90772" lon="2.37702">
        <ele>36</ele>
        <time>2013-09-26T17:37:54Z</time>
      </trkpt>
      <trkpt lat="48.90766" lon="2.37694">
        <ele>35</ele>
        <time>2013-09-26T17:37:58Z</time>
      </trkpt>
      <trkpt lat="48.90765" lon="2.37691">
        <ele>36</ele>
        <time>2013-09-26T17:37:59Z</time>
      </trkpt>
      <trkpt lat="48.90759" lon="2.37681">
        <ele>39</ele>
        <time>2013-09-26T17:38:03Z</time>
      </trkpt>
      <trkpt lat="48.90754" lon="2.37675">
        <ele>44</ele>
        <time>2013-09-26T17:38:06Z</time>
      </trkpt>
      <trkpt lat="48.9075" lon="2.37671">
        <ele>44</ele>
        <time>2013-09-26T17:38:08Z</time>
      </trkpt>
      <trkpt lat="48.90746" lon="2.37666">
        <ele>44</ele>
        <time>2013-09-26T17:38:10Z</time>
      </trkpt>
      <trkpt lat="48.90738" lon="2.37657">
        <ele>48</ele>
        <time>2013-09-26T17:38:14Z</time>
      </trkpt>
      <trkpt lat="48.90731" lon="2.37647">
        <ele>50</ele>
        <time>2013-09-26T17:38:18Z</time>
      </trkpt>
      <trkpt lat="48.90716" lon="2.37626">
        <ele>43</ele>
        <time>2013-09-26T17:38:26Z</time>
      </trkpt>
      <trkpt lat="48.9071" lon="2.37621">
        <ele>44</ele>
        <time>2013-09-26T17:38:28Z</time>
      </trkpt>
      <trkpt lat="48.90702" lon="2.37611">
        <ele>44</ele>
        <time>2013-09-26T17:38:31Z</time>
      </trkpt>
      <trkpt lat="48.90686" lon="2.37592">
        <ele>45</ele>
        <time>2013-09-26T17:38:35Z</time>
      </trkpt>
      <trkpt lat="48.90681" lon="2.3759">
        <ele>45</ele>
        <time>2013-09-26T17:38:36Z</time>
      </trkpt>
      <trkpt lat="48.90676" lon="2.37586">
        <ele>45</ele>
        <time>2013-09-26T17:38:37Z</time>
      </trkpt>
      <trkpt lat="48.90668" lon="2.37577">
        <ele>46</ele>
        <time>2013-09-26T17:38:39Z</time>
      </trkpt>
      <trkpt lat="48.90664" lon="2.37568">
        <ele>45</ele>
        <time>2013-09-26T17:38:40Z</time>
      </trkpt>
      <trkpt lat="48.90652" lon="2.3755">
        <ele>48</ele>
        <time>2013-09-26T17:38:43Z</time>
      </trkpt>
      <trkpt lat="48.90638" lon="2.37532">
        <ele>48</ele>
        <time>2013-09-26T17:38:47Z</time>
      </trkpt>
      <trkpt lat="48.90633" lon="2.37529">
        <ele>41</ele>
        <time>2013-09-26T17:38:48Z</time>
      </trkpt>
      <trkpt lat="48.90622" lon="2.37518">
        <ele>40</ele>
        <time>2013-09-26T17:38:51Z</time>
      </trkpt>
      <trkpt lat="48.90615" lon="2.37508">
        <ele>42</ele>
        <time>2013-09-26T17:38:53Z</time>
      </trkpt>
      <trkpt lat="48.90609" lon="2.37499">
        <ele>44</ele>
        <time>2013-09-26T17:38:55Z</time>
      </trkpt>
      <trkpt lat="48.90604" lon="2.37489">
        <ele>45</ele>
        <time>2013-09-26T17:38:57Z</time>
      </trkpt>
      <trkpt lat="48.90594" lon="2.37474">
        <ele>42</ele>
        <time>2013-09-26T17:39:00Z</time>
      </trkpt>
      <trkpt lat="48.9059" lon="2.3747">
        <ele>43</ele>
        <time>2013-09-26T17:39:01Z</time>
      </trkpt>
      <trkpt lat="48.90552" lon="2.37431">
        <ele>41</ele>
        <time>2013-09-26T17:39:09Z</time>
      </trkpt>
      <trkpt lat="48.90544" lon="2.3742">
        <ele>41</ele>
        <time>2013-09-26T17:39:11Z</time>
      </trkpt>
      <trkpt lat="48.90493" lon="2.37361">
        <ele>50</ele>
        <time>2013-09-26T17:39:22Z</time>
      </trkpt>
      <trkpt lat="48.90478" lon="2.37339">
        <ele>42</ele>
        <time>2013-09-26T17:39:26Z</time>
      </trkpt>
      <trkpt lat="48.9047" lon="2.3733">
        <ele>44</ele>
        <time>2013-09-26T17:39:28Z</time>
      </trkpt>
      <trkpt lat="48.90466" lon="2.37324">
        <ele>40</ele>
        <time>2013-09-26T17:39:29Z</time>
      </trkpt>
      <trkpt lat="48.90456" lon="2.37311">
        <ele>37</ele>
        <time>2013-09-26T17:39:32Z</time>
      </trkpt>
      <trkpt lat="48.9045" lon="2.37302">
        <ele>36</ele>
        <time>2013-09-26T17:39:34Z</time>
      </trkpt>
      <trkpt lat="48.90443" lon="2.37294">
        <ele>35</ele>
        <time>2013-09-26T17:39:36Z</time>
      </trkpt>
      <trkpt lat="48.90438" lon="2.37292">
        <ele>35</ele>
        <time>2013-09-26T17:39:40Z</time>
      </trkpt>
      <trkpt lat="48.90436" lon="2.37298">
        <ele>39</ele>
        <time>2013-09-26T17:39:44Z</time>
      </trkpt>
      <trkpt lat="48.90434" lon="2.37307">
        <ele>42</ele>
        <time>2013-09-26T17:39:47Z</time>
      </trkpt>
      <trkpt lat="48.90431" lon="2.37326">
        <ele>40</ele>
        <time>2013-09-26T17:39:52Z</time>
      </trkpt>
      <trkpt lat="48.90428" lon="2.37341">
        <ele>45</ele>
        <time>2013-09-26T17:39:55Z</time>
      </trkpt>
      <trkpt lat="48.90427" lon="2.37352">
        <ele>45</ele>
        <time>2013-09-26T17:39:57Z</time>
      </trkpt>
      <trkpt lat="48.90422" lon="2.37372">
        <ele>40</ele>
        <time>2013-09-26T17:40:01Z</time>
      </trkpt>
      <trkpt lat="48.90415" lon="2.37399">
        <ele>36</ele>
        <time>2013-09-26T17:40:05Z</time>
      </trkpt>
      <trkpt lat="48.90408" lon="2.37419">
        <ele>40</ele>
        <time>2013-09-26T17:40:09Z</time>
      </trkpt>
      <trkpt lat="48.90405" lon="2.37431">
        <ele>40</ele>
        <time>2013-09-26T17:40:11Z</time>
      </trkpt>
      <trkpt lat="48.90403" lon="2.37444">
        <ele>39</ele>
        <time>2013-09-26T17:40:13Z</time>
      </trkpt>
      <trkpt lat="48.90397" lon="2.37471">
        <ele>38</ele>
        <time>2013-09-26T17:40:18Z</time>
      </trkpt>
      <trkpt lat="48.90397" lon="2.37479">
        <ele>38</ele>
        <time>2013-09-26T17:40:20Z</time>
      </trkpt>
      <trkpt lat="48.90392" lon="2.37484">
        <ele>38</ele>
        <time>2013-09-26T17:40:23Z</time>
      </trkpt>
      <trkpt lat="48.90385" lon="2.37482">
        <ele>47</ele>
        <time>2013-09-26T17:40:25Z</time>
      </trkpt>
      <trkpt lat="48.90378" lon="2.37474">
        <ele>46</ele>
        <time>2013-09-26T17:40:27Z</time>
      </trkpt>
      <trkpt lat="48.90372" lon="2.37469">
        <ele>49</ele>
        <time>2013-09-26T17:40:29Z</time>
      </trkpt>
      <trkpt lat="48.90365" lon="2.37462">
        <ele>44</ele>
        <time>2013-09-26T17:40:31Z</time>
      </trkpt>
      <trkpt lat="48.9036" lon="2.37453">
        <ele>45</ele>
        <time>2013-09-26T17:40:33Z</time>
      </trkpt>
      <trkpt lat="48.90351" lon="2.37446">
        <ele>44</ele>
        <time>2013-09-26T17:40:35Z</time>
      </trkpt>
      <trkpt lat="48.90336" lon="2.37429">
        <ele>49</ele>
        <time>2013-09-26T17:40:39Z</time>
      </trkpt>
      <trkpt lat="48.90328" lon="2.3742">
        <ele>40</ele>
        <time>2013-09-26T17:40:41Z</time>
      </trkpt>
      <trkpt lat="48.90314" lon="2.37401">
        <ele>36</ele>
        <time>2013-09-26T17:40:45Z</time>
      </trkpt>
      <trkpt lat="48.90307" lon="2.37394">
        <ele>39</ele>
        <time>2013-09-26T17:40:47Z</time>
      </trkpt>
      <trkpt lat="48.90271" lon="2.37357">
        <ele>38</ele>
        <time>2013-09-26T17:40:57Z</time>
      </trkpt>
      <trkpt lat="48.90264" lon="2.37352">
        <ele>41</ele>
        <time>2013-09-26T17:40:59Z</time>
      </trkpt>
      <trkpt lat="48.90258" lon="2.37346">
        <ele>39</ele>
        <time>2013-09-26T17:41:01Z</time>
      </trkpt>
      <trkpt lat="48.90247" lon="2.37334">
        <ele>42</ele>
        <time>2013-09-26T17:41:05Z</time>
      </trkpt>
      <trkpt lat="48.90231" lon="2.37315">
        <ele>41</ele>
        <time>2013-09-26T17:41:12Z</time>
      </trkpt>
      <trkpt lat="48.9023" lon="2.37305">
        <ele>41</ele>
        <time>2013-09-26T17:41:15Z</time>
      </trkpt>
      <trkpt lat="48.90224" lon="2.37302">
        <ele>47</ele>
        <time>2013-09-26T17:41:18Z</time>
      </trkpt>
      <trkpt lat="48.90214" lon="2.37294">
        <ele>43</ele>
        <time>2013-09-26T17:41:23Z</time>
      </trkpt>
      <trkpt lat="48.9021" lon="2.37288">
        <ele>56</ele>
        <time>2013-09-26T17:41:26Z</time>
      </trkpt>
      <trkpt lat="48.90206" lon="2.37296">
        <ele>55</ele>
        <time>2013-09-26T17:41:32Z</time>
      </trkpt>
      <trkpt lat="48.90201" lon="2.373">
        <ele>47</ele>
        <time>2013-09-26T17:41:35Z</time>
      </trkpt>
      <trkpt lat="48.90196" lon="2.37291">
        <ele>48</ele>
        <time>2013-09-26T17:41:38Z</time>
      </trkpt>
      <trkpt lat="48.9019" lon="2.37286">
        <ele>46</ele>
        <time>2013-09-26T17:41:40Z</time>
      </trkpt>
      <trkpt lat="48.90182" lon="2.37281">
        <ele>43</ele>
        <time>2013-09-26T17:41:42Z</time>
      </trkpt>
      <trkpt lat="48.90176" lon="2.37276">
        <ele>42</ele>
        <time>2013-09-26T17:41:44Z</time>
      </trkpt>
      <trkpt lat="48.9017" lon="2.3727">
        <ele>41</ele>
        <time>2013-09-26T17:41:46Z</time>
      </trkpt>
      <trkpt lat="48.90164" lon="2.37262">
        <ele>41</ele>
        <time>2013-09-26T17:41:48Z</time>
      </trkpt>
      <trkpt lat="48.90159" lon="2.37255">
        <ele>47</ele>
        <time>2013-09-26T17:41:50Z</time>
      </trkpt>
      <trkpt lat="48.9015" lon="2.37243">
        <ele>48</ele>
        <time>2013-09-26T17:41:53Z</time>
      </trkpt>
      <trkpt lat="48.90135" lon="2.37218">
        <ele>52</ele>
        <time>2013-09-26T17:41:58Z</time>
      </trkpt>
      <trkpt lat="48.90132" lon="2.37213">
        <ele>50</ele>
        <time>2013-09-26T17:41:59Z</time>
      </trkpt>
      <trkpt lat="48.90125" lon="2.37205">
        <ele>48</ele>
        <time>2013-09-26T17:42:01Z</time>
      </trkpt>
      <trkpt lat="48.9012" lon="2.37203">
        <ele>48</ele>
        <time>2013-09-26T17:42:03Z</time>
      </trkpt>
      <trkpt lat="48.90113" lon="2.37198">
        <ele>47</ele>
        <time>2013-09-26T17:42:06Z</time>
      </trkpt>
      <trkpt lat="48.90108" lon="2.37192">
        <ele>48</ele>
        <time>2013-09-26T17:42:08Z</time>
      </trkpt>
      <trkpt lat="48.90103" lon="2.37184">
        <ele>49</ele>
        <time>2013-09-26T17:42:10Z</time>
      </trkpt>
      <trkpt lat="48.90089" lon="2.37172">
        <ele>51</ele>
        <time>2013-09-26T17:42:15Z</time>
      </trkpt>
      <trkpt lat="48.90082" lon="2.37172">
        <ele>51</ele>
        <time>2013-09-26T17:42:17Z</time>
      </trkpt>
      <trkpt lat="48.90076" lon="2.3717">
        <ele>51</ele>
        <time>2013-09-26T17:42:19Z</time>
      </trkpt>
      <trkpt lat="48.9006" lon="2.37168">
        <ele>47</ele>
        <time>2013-09-26T17:42:24Z</time>
      </trkpt>
      <trkpt lat="48.90052" lon="2.37171">
        <ele>44</ele>
        <time>2013-09-26T17:42:26Z</time>
      </trkpt>
      <trkpt lat="48.90046" lon="2.37173">
        <ele>44</ele>
        <time>2013-09-26T17:42:28Z</time>
      </trkpt>
      <trkpt lat="48.90041" lon="2.37173">
        <ele>43</ele>
        <time>2013-09-26T17:42:30Z</time>
      </trkpt>
      <trkpt lat="48.90034" lon="2.37171">
        <ele>39</ele>
        <time>2013-09-26T17:42:36Z</time>
      </trkpt>
      <trkpt lat="48.90028" lon="2.37164">
        <ele>41</ele>
        <time>2013-09-26T17:42:39Z</time>
      </trkpt>
      <trkpt lat="48.90023" lon="2.37159">
        <ele>41</ele>
        <time>2013-09-26T17:42:41Z</time>
      </trkpt>
      <trkpt lat="48.90018" lon="2.37152">
        <ele>43</ele>
        <time>2013-09-26T17:42:43Z</time>
      </trkpt>
      <trkpt lat="48.90014" lon="2.37143">
        <ele>40</ele>
        <time>2013-09-26T17:42:45Z</time>
      </trkpt>
      <trkpt lat="48.90007" lon="2.37133">
        <ele>43</ele>
        <time>2013-09-26T17:42:48Z</time>
      </trkpt>
      <trkpt lat="48.9" lon="2.37131">
        <ele>44</ele>
        <time>2013-09-26T17:42:50Z</time>
      </trkpt>
      <trkpt lat="48.8998" lon="2.37127">
        <ele>41</ele>
        <time>2013-09-26T17:42:56Z</time>
      </trkpt>
      <trkpt lat="48.8997" lon="2.37126">
        <ele>41</ele>
        <time>2013-09-26T17:42:59Z</time>
      </trkpt>
      <trkpt lat="48.89949" lon="2.37125">
        <ele>44</ele>
        <time>2013-09-26T17:43:06Z</time>
      </trkpt>
      <trkpt lat="48.89941" lon="2.37126">
        <ele>41</ele>
        <time>2013-09-26T17:43:08Z</time>
      </trkpt>
      <trkpt lat="48.8992" lon="2.37127">
        <ele>50</ele>
        <time>2013-09-26T17:43:14Z</time>
      </trkpt>
      <trkpt lat="48.89913" lon="2.37126">
        <ele>49</ele>
        <time>2013-09-26T17:43:16Z</time>
      </trkpt>
      <trkpt lat="48.89906" lon="2.37128">
        <ele>47</ele>
        <time>2013-09-26T17:43:18Z</time>
      </trkpt>
      <trkpt lat="48.89899" lon="2.37128">
        <ele>47</ele>
        <time>2013-09-26T17:43:20Z</time>
      </trkpt>
      <trkpt lat="48.89887" lon="2.37127">
        <ele>47</ele>
        <time>2013-09-26T17:43:25Z</time>
      </trkpt>
      <trkpt lat="48.89879" lon="2.37124">
        <ele>46</ele>
        <time>2013-09-26T17:43:28Z</time>
      </trkpt>
      <trkpt lat="48.89861" lon="2.37114">
        <ele>51</ele>
        <time>2013-09-26T17:43:39Z</time>
      </trkpt>
      <trkpt lat="48.89857" lon="2.37109">
        <ele>50</ele>
        <time>2013-09-26T17:43:47Z</time>
      </trkpt>
      <trkpt lat="48.89851" lon="2.37104">
        <ele>46</ele>
        <time>2013-09-26T17:43:51Z</time>
      </trkpt>
      <trkpt lat="48.89852" lon="2.37094">
        <ele>46</ele>
        <time>2013-09-26T17:43:55Z</time>
      </trkpt>
      <trkpt lat="48.89852" lon="2.37082">
        <ele>42</ele>
        <time>2013-09-26T17:43:57Z</time>
      </trkpt>
      <trkpt lat="48.8985" lon="2.37057">
        <ele>38</ele>
        <time>2013-09-26T17:44:05Z</time>
      </trkpt>
      <trkpt lat="48.89847" lon="2.3705">
        <ele>35</ele>
        <time>2013-09-26T17:44:07Z</time>
      </trkpt>
      <trkpt lat="48.89844" lon="2.37039">
        <ele>27</ele>
        <time>2013-09-26T17:44:10Z</time>
      </trkpt>
      <trkpt lat="48.89845" lon="2.3703">
        <ele>31</ele>
        <time>2013-09-26T17:44:12Z</time>
      </trkpt>
      <trkpt lat="48.89849" lon="2.37">
        <ele>32</ele>
        <time>2013-09-26T17:44:18Z</time>
      </trkpt>
      <trkpt lat="48.8985" lon="2.36991">
        <ele>35</ele>
        <time>2013-09-26T17:44:20Z</time>
      </trkpt>
      <trkpt lat="48.89849" lon="2.36978">
        <ele>36</ele>
        <time>2013-09-26T17:44:22Z</time>
      </trkpt>
      <trkpt lat="48.89849" lon="2.36951">
        <ele>31</ele>
        <time>2013-09-26T17:44:26Z</time>
      </trkpt>
      <trkpt lat="48.89849" lon="2.3692">
        <ele>36</ele>
        <time>2013-09-26T17:44:30Z</time>
      </trkpt>
      <trkpt lat="48.89848" lon="2.36913">
        <ele>40</ele>
        <time>2013-09-26T17:44:31Z</time>
      </trkpt>
      <trkpt lat="48.89849" lon="2.36889">
        <ele>43</ele>
        <time>2013-09-26T17:44:34Z</time>
      </trkpt>
      <trkpt lat="48.89848" lon="2.36856">
        <ele>44</ele>
        <time>2013-09-26T17:44:38Z</time>
      </trkpt>
      <trkpt lat="48.89847" lon="2.36847">
        <ele>45</ele>
        <time>2013-09-26T17:44:39Z</time>
      </trkpt>
      <trkpt lat="48.89845" lon="2.36813">
        <ele>45</ele>
        <time>2013-09-26T17:44:43Z</time>
      </trkpt>
      <trkpt lat="48.89844" lon="2.36798">
        <ele>46</ele>
        <time>2013-09-26T17:44:45Z</time>
      </trkpt>
      <trkpt lat="48.89845" lon="2.36784">
        <ele>42</ele>
        <time>2013-09-26T17:44:47Z</time>
      </trkpt>
      <trkpt lat="48.89847" lon="2.36717">
        <ele>45</ele>
        <time>2013-09-26T17:44:56Z</time>
      </trkpt>
      <trkpt lat="48.89849" lon="2.36707">
        <ele>46</ele>
        <time>2013-09-26T17:44:57Z</time>
      </trkpt>
      <trkpt lat="48.89851" lon="2.36697">
        <ele>45</ele>
        <time>2013-09-26T17:44:58Z</time>
      </trkpt>
      <trkpt lat="48.89852" lon="2.36688">
        <ele>47</ele>
        <time>2013-09-26T17:44:59Z</time>
      </trkpt>
      <trkpt lat="48.89851" lon="2.36669">
        <ele>45</ele>
        <time>2013-09-26T17:45:01Z</time>
      </trkpt>
      <trkpt lat="48.89849" lon="2.3666">
        <ele>42</ele>
        <time>2013-09-26T17:45:02Z</time>
      </trkpt>
      <trkpt lat="48.89842" lon="2.3663">
        <ele>40</ele>
        <time>2013-09-26T17:45:06Z</time>
      </trkpt>
      <trkpt lat="48.89843" lon="2.3662">
        <ele>39</ele>
        <time>2013-09-26T17:45:07Z</time>
      </trkpt>
      <trkpt lat="48.89844" lon="2.36592">
        <ele>39</ele>
        <time>2013-09-26T17:45:10Z</time>
      </trkpt>
      <trkpt lat="48.89847" lon="2.36574">
        <ele>40</ele>
        <time>2013-09-26T17:45:12Z</time>
      </trkpt>
      <trkpt lat="48.8985" lon="2.36522">
        <ele>40</ele>
        <time>2013-09-26T17:45:19Z</time>
      </trkpt>
      <trkpt lat="48.89853" lon="2.36515">
        <ele>39</ele>
        <time>2013-09-26T17:45:20Z</time>
      </trkpt>
      <trkpt lat="48.89855" lon="2.36509">
        <ele>40</ele>
        <time>2013-09-26T17:45:21Z</time>
      </trkpt>
      <trkpt lat="48.89854" lon="2.36496">
        <ele>43</ele>
        <time>2013-09-26T17:45:23Z</time>
      </trkpt>
      <trkpt lat="48.89852" lon="2.36468">
        <ele>43</ele>
        <time>2013-09-26T17:45:27Z</time>
      </trkpt>
      <trkpt lat="48.8985" lon="2.36456">
        <ele>43</ele>
        <time>2013-09-26T17:45:29Z</time>
      </trkpt>
      <trkpt lat="48.89848" lon="2.3644">
        <ele>43</ele>
        <time>2013-09-26T17:45:32Z</time>
      </trkpt>
      <trkpt lat="48.89846" lon="2.3643">
        <ele>45</ele>
        <time>2013-09-26T17:45:34Z</time>
      </trkpt>
      <trkpt lat="48.8984" lon="2.364">
        <ele>46</ele>
        <time>2013-09-26T17:45:39Z</time>
      </trkpt>
      <trkpt lat="48.89836" lon="2.36389">
        <ele>46</ele>
        <time>2013-09-26T17:45:41Z</time>
      </trkpt>
      <trkpt lat="48.89833" lon="2.36382">
        <ele>46</ele>
        <time>2013-09-26T17:45:42Z</time>
      </trkpt>
      <trkpt lat="48.8983" lon="2.3637">
        <ele>40</ele>
        <time>2013-09-26T17:45:44Z</time>
      </trkpt>
      <trkpt lat="48.89825" lon="2.36347">
        <ele>40</ele>
        <time>2013-09-26T17:45:48Z</time>
      </trkpt>
      <trkpt lat="48.89824" lon="2.36335">
        <ele>37</ele>
        <time>2013-09-26T17:45:50Z</time>
      </trkpt>
      <trkpt lat="48.89822" lon="2.36301">
        <ele>37</ele>
        <time>2013-09-26T17:45:55Z</time>
      </trkpt>
      <trkpt lat="48.89819" lon="2.36289">
        <ele>39</ele>
        <time>2013-09-26T17:45:57Z</time>
      </trkpt>
      <trkpt lat="48.89818" lon="2.36276">
        <ele>34</ele>
        <time>2013-09-26T17:45:59Z</time>
      </trkpt>
      <trkpt lat="48.89819" lon="2.36263">
        <ele>32</ele>
        <time>2013-09-26T17:46:01Z</time>
      </trkpt>
      <trkpt lat="48.89823" lon="2.3623">
        <ele>27</ele>
        <time>2013-09-26T17:46:07Z</time>
      </trkpt>
      <trkpt lat="48.89824" lon="2.3621">
        <ele>34</ele>
        <time>2013-09-26T17:46:11Z</time>
      </trkpt>
      <trkpt lat="48.89824" lon="2.36199">
        <ele>33</ele>
        <time>2013-09-26T17:46:14Z</time>
      </trkpt>
      <trkpt lat="48.89824" lon="2.36191">
        <ele>33</ele>
        <time>2013-09-26T17:46:16Z</time>
      </trkpt>
      <trkpt lat="48.89826" lon="2.3616">
        <ele>39</ele>
        <time>2013-09-26T17:46:22Z</time>
      </trkpt>
      <trkpt lat="48.89826" lon="2.3615">
        <ele>31</ele>
        <time>2013-09-26T17:46:24Z</time>
      </trkpt>
      <trkpt lat="48.89824" lon="2.36118">
        <ele>23</ele>
        <time>2013-09-26T17:46:30Z</time>
      </trkpt>
      <trkpt lat="48.89825" lon="2.36104">
        <ele>29</ele>
        <time>2013-09-26T17:46:33Z</time>
      </trkpt>
      <trkpt lat="48.89828" lon="2.36095">
        <ele>28</ele>
        <time>2013-09-26T17:46:35Z</time>
      </trkpt>
      <trkpt lat="48.89828" lon="2.36085">
        <ele>29</ele>
        <time>2013-09-26T17:46:37Z</time>
      </trkpt>
      <trkpt lat="48.89829" lon="2.36056">
        <ele>28</ele>
        <time>2013-09-26T17:46:42Z</time>
      </trkpt>
      <trkpt lat="48.8983" lon="2.36046">
        <ele>36</ele>
        <time>2013-09-26T17:46:44Z</time>
      </trkpt>
      <trkpt lat="48.89832" lon="2.36035">
        <ele>37</ele>
        <time>2013-09-26T17:46:46Z</time>
      </trkpt>
      <trkpt lat="48.89835" lon="2.36019">
        <ele>34</ele>
        <time>2013-09-26T17:46:49Z</time>
      </trkpt>
      <trkpt lat="48.89833" lon="2.3601">
        <ele>32</ele>
        <time>2013-09-26T17:46:51Z</time>
      </trkpt>
      <trkpt lat="48.89831" lon="2.35997">
        <ele>38</ele>
        <time>2013-09-26T17:46:54Z</time>
      </trkpt>
      <trkpt lat="48.89832" lon="2.35987">
        <ele>36</ele>
        <time>2013-09-26T17:46:56Z</time>
      </trkpt>
      <trkpt lat="48.89832" lon="2.35967">
        <ele>39</ele>
        <time>2013-09-26T17:47:00Z</time>
      </trkpt>
      <trkpt lat="48.89833" lon="2.35938">
        <ele>43</ele>
        <time>2013-09-26T17:47:10Z</time>
      </trkpt>
      <trkpt lat="48.89832" lon="2.35922">
        <ele>44</ele>
        <time>2013-09-26T17:47:15Z</time>
      </trkpt>
      <trkpt lat="48.8983" lon="2.35913">
        <ele>44</ele>
        <time>2013-09-26T17:47:19Z</time>
      </trkpt>
      <trkpt lat="48.89827" lon="2.35903">
        <ele>37</ele>
        <time>2013-09-26T17:47:22Z</time>
      </trkpt>
      <trkpt lat="48.89828" lon="2.35894">
        <ele>40</ele>
        <time>2013-09-26T17:47:26Z</time>
      </trkpt>
      <trkpt lat="48.89828" lon="2.35872">
        <ele>35</ele>
        <time>2013-09-26T17:47:33Z</time>
      </trkpt>
      <trkpt lat="48.89829" lon="2.35862">
        <ele>38</ele>
        <time>2013-09-26T17:47:36Z</time>
      </trkpt>
      <trkpt lat="48.89828" lon="2.35855">
        <ele>40</ele>
        <time>2013-09-26T17:47:38Z</time>
      </trkpt>
      <trkpt lat="48.89828" lon="2.35844">
        <ele>38</ele>
        <time>2013-09-26T17:47:41Z</time>
      </trkpt>
      <trkpt lat="48.89827" lon="2.35817">
        <ele>42</ele>
        <time>2013-09-26T17:47:49Z</time>
      </trkpt>
      <trkpt lat="48.89826" lon="2.35807">
        <ele>35</ele>
        <time>2013-09-26T17:47:52Z</time>
      </trkpt>
      <trkpt lat="48.89826" lon="2.35799">
        <ele>31</ele>
        <time>2013-09-26T17:47:54Z</time>
      </trkpt>
      <trkpt lat="48.89828" lon="2.35785">
        <ele>26</ele>
        <time>2013-09-26T17:47:57Z</time>
      </trkpt>
      <trkpt lat="48.89831" lon="2.35778">
        <ele>28</ele>
        <time>2013-09-26T17:47:59Z</time>
      </trkpt>
      <trkpt lat="48.89833" lon="2.35769">
        <ele>32</ele>
        <time>2013-09-26T17:48:01Z</time>
      </trkpt>
      <trkpt lat="48.89832" lon="2.3576">
        <ele>36</ele>
        <time>2013-09-26T17:48:03Z</time>
      </trkpt>
      <trkpt lat="48.89831" lon="2.35751">
        <ele>32</ele>
        <time>2013-09-26T17:48:05Z</time>
      </trkpt>
      <trkpt lat="48.89833" lon="2.35735">
        <ele>30</ele>
        <time>2013-09-26T17:48:08Z</time>
      </trkpt>
      <trkpt lat="48.89836" lon="2.35721">
        <ele>30</ele>
        <time>2013-09-26T17:48:10Z</time>
      </trkpt>
      <trkpt lat="48.89841" lon="2.35695">
        <ele>29</ele>
        <time>2013-09-26T17:48:14Z</time>
      </trkpt>
      <trkpt lat="48.89842" lon="2.35686">
        <ele>27</ele>
        <time>2013-09-26T17:48:15Z</time>
      </trkpt>
      <trkpt lat="48.89842" lon="2.35668">
        <ele>26</ele>
        <time>2013-09-26T17:48:17Z</time>
      </trkpt>
      <trkpt lat="48.89841" lon="2.35659">
        <ele>24</ele>
        <time>2013-09-26T17:48:18Z</time>
      </trkpt>
      <trkpt lat="48.89841" lon="2.35651">
        <ele>24</ele>
        <time>2013-09-26T17:48:19Z</time>
      </trkpt>
      <trkpt lat="48.8984" lon="2.3564">
        <ele>23</ele>
        <time>2013-09-26T17:48:20Z</time>
      </trkpt>
      <trkpt lat="48.89837" lon="2.35621">
        <ele>22</ele>
        <time>2013-09-26T17:48:22Z</time>
      </trkpt>
      <trkpt lat="48.89819" lon="2.35492">
        <ele>36</ele>
        <time>2013-09-26T17:48:36Z</time>
      </trkpt>
      <trkpt lat="48.89817" lon="2.35464">
        <ele>38</ele>
        <time>2013-09-26T17:48:40Z</time>
      </trkpt>
      <trkpt lat="48.89827" lon="2.35324">
        <ele>38</ele>
        <time>2013-09-26T17:49:03Z</time>
      </trkpt>
      <trkpt lat="48.89828" lon="2.35315">
        <ele>26</ele>
        <time>2013-09-26T17:49:05Z</time>
      </trkpt>
      <trkpt lat="48.89831" lon="2.35288">
        <ele>35</ele>
        <time>2013-09-26T17:49:13Z</time>
      </trkpt>
      <trkpt lat="48.8983" lon="2.35281">
        <ele>37</ele>
        <time>2013-09-26T17:49:16Z</time>
      </trkpt>
      <trkpt lat="48.89829" lon="2.35274">
        <ele>36</ele>
        <time>2013-09-26T17:49:22Z</time>
      </trkpt>
      <trkpt lat="48.89827" lon="2.35266">
        <ele>42</ele>
        <time>2013-09-26T17:49:26Z</time>
      </trkpt>
      <trkpt lat="48.89819" lon="2.35262">
        <ele>44</ele>
        <time>2013-09-26T17:49:33Z</time>
      </trkpt>
      <trkpt lat="48.8981" lon="2.35261">
        <ele>50</ele>
        <time>2013-09-26T17:49:40Z</time>
      </trkpt>
      <trkpt lat="48.89805" lon="2.35258">
        <ele>41</ele>
        <time>2013-09-26T17:49:44Z</time>
      </trkpt>
      <trkpt lat="48.89798" lon="2.35254">
        <ele>49</ele>
        <time>2013-09-26T17:49:48Z</time>
      </trkpt>
      <trkpt lat="48.89794" lon="2.35256">
        <ele>44</ele>
        <time>2013-09-26T17:49:52Z</time>
      </trkpt>
      <trkpt lat="48.89792" lon="2.35243">
        <ele>55</ele>
        <time>2013-09-26T17:50:00Z</time>
      </trkpt>
      <trkpt lat="48.89792" lon="2.35233">
        <ele>50</ele>
        <time>2013-09-26T17:50:03Z</time>
      </trkpt>
      <trkpt lat="48.89794" lon="2.35223">
        <ele>48</ele>
        <time>2013-09-26T17:50:06Z</time>
      </trkpt>
      <trkpt lat="48.89794" lon="2.35213">
        <ele>47</ele>
        <time>2013-09-26T17:50:08Z</time>
      </trkpt>
      <trkpt lat="48.89793" lon="2.35184">
        <ele>41</ele>
        <time>2013-09-26T17:50:13Z</time>
      </trkpt>
      <trkpt lat="48.89791" lon="2.35176">
        <ele>39</ele>
        <time>2013-09-26T17:50:15Z</time>
      </trkpt>
      <trkpt lat="48.89788" lon="2.35165">
        <ele>43</ele>
        <time>2013-09-26T17:50:18Z</time>
      </trkpt>
      <trkpt lat="48.89784" lon="2.35155">
        <ele>36</ele>
        <time>2013-09-26T17:50:20Z</time>
      </trkpt>
      <trkpt lat="48.89776" lon="2.35138">
        <ele>31</ele>
        <time>2013-09-26T17:50:24Z</time>
      </trkpt>
      <trkpt lat="48.89771" lon="2.35123">
        <ele>36</ele>
        <time>2013-09-26T17:50:27Z</time>
      </trkpt>
      <trkpt lat="48.8977" lon="2.35113">
        <ele>35</ele>
        <time>2013-09-26T17:50:29Z</time>
      </trkpt>
      <trkpt lat="48.89759" lon="2.3508">
        <ele>34</ele>
        <time>2013-09-26T17:50:38Z</time>
      </trkpt>
      <trkpt lat="48.89757" lon="2.35071">
        <ele>32</ele>
        <time>2013-09-26T17:50:41Z</time>
      </trkpt>
      <trkpt lat="48.8976" lon="2.35062">
        <ele>34</ele>
        <time>2013-09-26T17:50:43Z</time>
      </trkpt>
      <trkpt lat="48.89767" lon="2.35032">
        <ele>37</ele>
        <time>2013-09-26T17:50:56Z</time>
      </trkpt>
      <trkpt lat="48.89767" lon="2.35024">
        <ele>37</ele>
        <time>2013-09-26T17:50:57Z</time>
      </trkpt>
      <trkpt lat="48.89766" lon="2.3501">
        <ele>37</ele>
        <time>2013-09-26T17:50:59Z</time>
      </trkpt>
      <trkpt lat="48.89765" lon="2.34998">
        <ele>32</ele>
        <time>2013-09-26T17:51:01Z</time>
      </trkpt>
      <trkpt lat="48.89765" lon="2.34988">
        <ele>33</ele>
        <time>2013-09-26T17:51:03Z</time>
      </trkpt>
      <trkpt lat="48.89766" lon="2.34927">
        <ele>36</ele>
        <time>2013-09-26T17:51:14Z</time>
      </trkpt>
      <trkpt lat="48.89767" lon="2.34914">
        <ele>35</ele>
        <time>2013-09-26T17:51:16Z</time>
      </trkpt>
      <trkpt lat="48.8977" lon="2.34904">
        <ele>32</ele>
        <time>2013-09-26T17:51:18Z</time>
      </trkpt>
      <trkpt lat="48.89771" lon="2.34893">
        <ele>30</ele>
        <time>2013-09-26T17:51:20Z</time>
      </trkpt>
      <trkpt lat="48.89772" lon="2.34878">
        <ele>30</ele>
        <time>2013-09-26T17:51:23Z</time>
      </trkpt>
      <trkpt lat="48.89771" lon="2.3487">
        <ele>31</ele>
        <time>2013-09-26T17:51:25Z</time>
      </trkpt>
      <trkpt lat="48.89772" lon="2.34861">
        <ele>29</ele>
        <time>2013-09-26T17:51:29Z</time>
      </trkpt>
      <trkpt lat="48.89772" lon="2.34854">
        <ele>37</ele>
        <time>2013-09-26T17:51:31Z</time>
      </trkpt>
      <trkpt lat="48.89769" lon="2.34844">
        <ele>36</ele>
        <time>2013-09-26T17:51:34Z</time>
      </trkpt>
      <trkpt lat="48.89769" lon="2.34834">
        <ele>41</ele>
        <time>2013-09-26T17:51:37Z</time>
      </trkpt>
      <trkpt lat="48.89768" lon="2.34826">
        <ele>40</ele>
        <time>2013-09-26T17:51:39Z</time>
      </trkpt>
      <trkpt lat="48.89768" lon="2.34816">
        <ele>39</ele>
        <time>2013-09-26T17:51:41Z</time>
      </trkpt>
      <trkpt lat="48.89764" lon="2.34788">
        <ele>43</ele>
        <time>2013-09-26T17:51:48Z</time>
      </trkpt>
      <trkpt lat="48.8976" lon="2.34781">
        <ele>47</ele>
        <time>2013-09-26T17:51:50Z</time>
      </trkpt>
      <trkpt lat="48.89759" lon="2.34772">
        <ele>43</ele>
        <time>2013-09-26T17:51:53Z</time>
      </trkpt>
      <trkpt lat="48.89758" lon="2.34761">
        <ele>40</ele>
        <time>2013-09-26T17:51:56Z</time>
      </trkpt>
      <trkpt lat="48.89759" lon="2.34751">
        <ele>39</ele>
        <time>2013-09-26T17:51:59Z</time>
      </trkpt>
      <trkpt lat="48.89759" lon="2.34739">
        <ele>36</ele>
        <time>2013-09-26T17:52:03Z</time>
      </trkpt>
      <trkpt lat="48.8976" lon="2.3473">
        <ele>31</ele>
        <time>2013-09-26T17:52:07Z</time>
      </trkpt>
      <trkpt lat="48.89762" lon="2.34723">
        <ele>28</ele>
        <time>2013-09-26T17:52:11Z</time>
      </trkpt>
      <trkpt lat="48.89765" lon="2.34711">
        <ele>28</ele>
        <time>2013-09-26T17:52:21Z</time>
      </trkpt>
      <trkpt lat="48.89764" lon="2.34699">
        <ele>35</ele>
        <time>2013-09-26T17:52:24Z</time>
      </trkpt>
      <trkpt lat="48.89764" lon="2.3469">
        <ele>39</ele>
        <time>2013-09-26T17:52:26Z</time>
      </trkpt>
      <trkpt lat="48.89765" lon="2.34659">
        <ele>37</ele>
        <time>2013-09-26T17:52:33Z</time>
      </trkpt>
      <trkpt lat="48.89764" lon="2.34651">
        <ele>40</ele>
        <time>2013-09-26T17:52:35Z</time>
      </trkpt>
      <trkpt lat="48.89762" lon="2.3462">
        <ele>38</ele>
        <time>2013-09-26T17:52:42Z</time>
      </trkpt>
      <trkpt lat="48.8976" lon="2.34613">
        <ele>38</ele>
        <time>2013-09-26T17:52:44Z</time>
      </trkpt>
      <trkpt lat="48.89759" lon="2.34604">
        <ele>39</ele>
        <time>2013-09-26T17:52:46Z</time>
      </trkpt>
      <trkpt lat="48.89756" lon="2.34595">
        <ele>38</ele>
        <time>2013-09-26T17:52:48Z</time>
      </trkpt>
      <trkpt lat="48.89755" lon="2.34588">
        <ele>38</ele>
        <time>2013-09-26T17:52:50Z</time>
      </trkpt>
      <trkpt lat="48.89757" lon="2.34577">
        <ele>37</ele>
        <time>2013-09-26T17:52:52Z</time>
      </trkpt>
      <trkpt lat="48.89754" lon="2.34566">
        <ele>38</ele>
        <time>2013-09-26T17:52:54Z</time>
      </trkpt>
      <trkpt lat="48.8975" lon="2.34548">
        <ele>42</ele>
        <time>2013-09-26T17:53:00Z</time>
      </trkpt>
      <trkpt lat="48.89748" lon="2.34539">
        <ele>42</ele>
        <time>2013-09-26T17:53:02Z</time>
      </trkpt>
      <trkpt lat="48.89746" lon="2.34531">
        <ele>44</ele>
        <time>2013-09-26T17:53:05Z</time>
      </trkpt>
      <trkpt lat="48.89744" lon="2.34516">
        <ele>36</ele>
        <time>2013-09-26T17:53:11Z</time>
      </trkpt>
      <trkpt lat="48.89745" lon="2.34508">
        <ele>38</ele>
        <time>2013-09-26T17:53:15Z</time>
      </trkpt>
      <trkpt lat="48.89747" lon="2.34501">
        <ele>35</ele>
        <time>2013-09-26T17:53:19Z</time>
      </trkpt>
      <trkpt lat="48.89743" lon="2.34493">
        <ele>36</ele>
        <time>2013-09-26T17:53:35Z</time>
      </trkpt>
      <trkpt lat="48.89743" lon="2.34484">
        <ele>40</ele>
        <time>2013-09-26T17:53:38Z</time>
      </trkpt>
      <trkpt lat="48.89738" lon="2.34479">
        <ele>47</ele>
        <time>2013-09-26T17:53:42Z</time>
      </trkpt>
      <trkpt lat="48.89733" lon="2.34479">
        <ele>51</ele>
        <time>2013-09-26T17:53:44Z</time>
      </trkpt>
      <trkpt lat="48.89727" lon="2.34482">
        <ele>43</ele>
        <time>2013-09-26T17:53:46Z</time>
      </trkpt>
      <trkpt lat="48.89708" lon="2.3449">
        <ele>44</ele>
        <time>2013-09-26T17:53:51Z</time>
      </trkpt>
      <trkpt lat="48.897" lon="2.34492">
        <ele>46</ele>
        <time>2013-09-26T17:53:53Z</time>
      </trkpt>
      <trkpt lat="48.89694" lon="2.34495">
        <ele>44</ele>
        <time>2013-09-26T17:53:54Z</time>
      </trkpt>
      <trkpt lat="48.89683" lon="2.34504">
        <ele>44</ele>
        <time>2013-09-26T17:53:56Z</time>
      </trkpt>
      <trkpt lat="48.89677" lon="2.34508">
        <ele>44</ele>
        <time>2013-09-26T17:53:57Z</time>
      </trkpt>
      <trkpt lat="48.89641" lon="2.34531">
        <ele>45</ele>
        <time>2013-09-26T17:54:06Z</time>
      </trkpt>
      <trkpt lat="48.89635" lon="2.3454">
        <ele>45</ele>
        <time>2013-09-26T17:54:08Z</time>
      </trkpt>
      <trkpt lat="48.8963" lon="2.3455">
        <ele>50</ele>
        <time>2013-09-26T17:54:10Z</time>
      </trkpt>
      <trkpt lat="48.89625" lon="2.34558">
        <ele>52</ele>
        <time>2013-09-26T17:54:12Z</time>
      </trkpt>
      <trkpt lat="48.89617" lon="2.34565">
        <ele>55</ele>
        <time>2013-09-26T17:54:14Z</time>
      </trkpt>
      <trkpt lat="48.89581" lon="2.34596">
        <ele>46</ele>
        <time>2013-09-26T17:54:23Z</time>
      </trkpt>
      <trkpt lat="48.89574" lon="2.34601">
        <ele>46</ele>
        <time>2013-09-26T17:54:25Z</time>
      </trkpt>
      <trkpt lat="48.89568" lon="2.34605">
        <ele>41</ele>
        <time>2013-09-26T17:54:27Z</time>
      </trkpt>
      <trkpt lat="48.89564" lon="2.34612">
        <ele>37</ele>
        <time>2013-09-26T17:54:29Z</time>
      </trkpt>
      <trkpt lat="48.89553" lon="2.34626">
        <ele>37</ele>
        <time>2013-09-26T17:54:34Z</time>
      </trkpt>
      <trkpt lat="48.89548" lon="2.3463">
        <ele>38</ele>
        <time>2013-09-26T17:54:37Z</time>
      </trkpt>
      <trkpt lat="48.89542" lon="2.34634">
        <ele>38</ele>
        <time>2013-09-26T17:54:45Z</time>
      </trkpt>
      <trkpt lat="48.89537" lon="2.34635">
        <ele>38</ele>
        <time>2013-09-26T17:54:50Z</time>
      </trkpt>
      <trkpt lat="48.89531" lon="2.34637">
        <ele>41</ele>
        <time>2013-09-26T17:54:55Z</time>
      </trkpt>
      <trkpt lat="48.89525" lon="2.34638">
        <ele>46</ele>
        <time>2013-09-26T17:54:58Z</time>
      </trkpt>
      <trkpt lat="48.89521" lon="2.3464">
        <ele>44</ele>
        <time>2013-09-26T17:55:01Z</time>
      </trkpt>
      <trkpt lat="48.89516" lon="2.34646">
        <ele>48</ele>
        <time>2013-09-26T17:55:04Z</time>
      </trkpt>
      <trkpt lat="48.89511" lon="2.34651">
        <ele>53</ele>
        <time>2013-09-26T17:55:09Z</time>
      </trkpt>
      <trkpt lat="48.89507" lon="2.34658">
        <ele>54</ele>
        <time>2013-09-26T17:55:12Z</time>
      </trkpt>
      <trkpt lat="48.89502" lon="2.34664">
        <ele>54</ele>
        <time>2013-09-26T17:55:14Z</time>
      </trkpt>
      <trkpt lat="48.89489" lon="2.34676">
        <ele>53</ele>
        <time>2013-09-26T17:55:18Z</time>
      </trkpt>
      <trkpt lat="48.89478" lon="2.34685">
        <ele>59</ele>
        <time>2013-09-26T17:55:21Z</time>
      </trkpt>
      <trkpt lat="48.8947" lon="2.34685">
        <ele>62</ele>
        <time>2013-09-26T17:55:23Z</time>
      </trkpt>
      <trkpt lat="48.89461" lon="2.34689">
        <ele>64</ele>
        <time>2013-09-26T17:55:25Z</time>
      </trkpt>
      <trkpt lat="48.89442" lon="2.34702">
        <ele>56</ele>
        <time>2013-09-26T17:55:30Z</time>
      </trkpt>
      <trkpt lat="48.89437" lon="2.3471">
        <ele>57</ele>
        <time>2013-09-26T17:55:32Z</time>
      </trkpt>
      <trkpt lat="48.89434" lon="2.34717">
        <ele>56</ele>
        <time>2013-09-26T17:55:34Z</time>
      </trkpt>
      <trkpt lat="48.89426" lon="2.34725">
        <ele>59</ele>
        <time>2013-09-26T17:55:36Z</time>
      </trkpt>
      <trkpt lat="48.89417" lon="2.34734">
        <ele>59</ele>
        <time>2013-09-26T17:55:38Z</time>
      </trkpt>
      <trkpt lat="48.89402" lon="2.34749">
        <ele>60</ele>
        <time>2013-09-26T17:55:42Z</time>
      </trkpt>
      <trkpt lat="48.89395" lon="2.34754">
        <ele>62</ele>
        <time>2013-09-26T17:55:44Z</time>
      </trkpt>
      <trkpt lat="48.89384" lon="2.3476">
        <ele>60</ele>
        <time>2013-09-26T17:55:47Z</time>
      </trkpt>
      <trkpt lat="48.89376" lon="2.34766">
        <ele>59</ele>
        <time>2013-09-26T17:55:50Z</time>
      </trkpt>
      <trkpt lat="48.89369" lon="2.34769">
        <ele>50</ele>
        <time>2013-09-26T17:55:54Z</time>
      </trkpt>
      <trkpt lat="48.89361" lon="2.34784">
        <ele>76</ele>
        <time>2013-09-26T17:56:01Z</time>
      </trkpt>
      <trkpt lat="48.89348" lon="2.34803">
        <ele>56</ele>
        <time>2013-09-26T17:56:15Z</time>
      </trkpt>
      <trkpt lat="48.89342" lon="2.34808">
        <ele>53</ele>
        <time>2013-09-26T17:56:17Z</time>
      </trkpt>
      <trkpt lat="48.89334" lon="2.34819">
        <ele>55</ele>
        <time>2013-09-26T17:56:20Z</time>
      </trkpt>
      <trkpt lat="48.89326" lon="2.34827">
        <ele>52</ele>
        <time>2013-09-26T17:56:22Z</time>
      </trkpt>
      <trkpt lat="48.8931" lon="2.34845">
        <ele>52</ele>
        <time>2013-09-26T17:56:26Z</time>
      </trkpt>
      <trkpt lat="48.893" lon="2.34853">
        <ele>55</ele>
        <time>2013-09-26T17:56:29Z</time>
      </trkpt>
      <trkpt lat="48.89292" lon="2.34858">
        <ele>52</ele>
        <time>2013-09-26T17:56:32Z</time>
      </trkpt>
      <trkpt lat="48.89277" lon="2.34864">
        <ele>46</ele>
        <time>2013-09-26T17:56:38Z</time>
      </trkpt>
      <trkpt lat="48.89271" lon="2.34864">
        <ele>45</ele>
        <time>2013-09-26T17:56:40Z</time>
      </trkpt>
      <trkpt lat="48.89263" lon="2.34866">
        <ele>45</ele>
        <time>2013-09-26T17:56:42Z</time>
      </trkpt>
      <trkpt lat="48.89255" lon="2.3487">
        <ele>46</ele>
        <time>2013-09-26T17:56:44Z</time>
      </trkpt>
      <trkpt lat="48.89248" lon="2.34875">
        <ele>46</ele>
        <time>2013-09-26T17:56:46Z</time>
      </trkpt>
      <trkpt lat="48.89242" lon="2.34878">
        <ele>45</ele>
        <time>2013-09-26T17:56:48Z</time>
      </trkpt>
      <trkpt lat="48.89236" lon="2.34879">
        <ele>47</ele>
        <time>2013-09-26T17:56:51Z</time>
      </trkpt>
      <trkpt lat="48.89226" lon="2.34877">
        <ele>46</ele>
        <time>2013-09-26T17:56:55Z</time>
      </trkpt>
      <trkpt lat="48.8922" lon="2.34872">
        <ele>46</ele>
        <time>2013-09-26T17:56:57Z</time>
      </trkpt>
      <trkpt lat="48.89215" lon="2.34872">
        <ele>46</ele>
        <time>2013-09-26T17:57:00Z</time>
      </trkpt>
      <trkpt lat="48.89211" lon="2.34879">
        <ele>46</ele>
        <time>2013-09-26T17:57:03Z</time>
      </trkpt>
      <trkpt lat="48.89207" lon="2.34886">
        <ele>45</ele>
        <time>2013-09-26T17:57:06Z</time>
      </trkpt>
      <trkpt lat="48.89203" lon="2.34892">
        <ele>44</ele>
        <time>2013-09-26T17:57:09Z</time>
      </trkpt>
      <trkpt lat="48.89187" lon="2.34908">
        <ele>45</ele>
        <time>2013-09-26T17:57:32Z</time>
      </trkpt>
      <trkpt lat="48.89178" lon="2.34926">
        <ele>55</ele>
        <time>2013-09-26T17:57:35Z</time>
      </trkpt>
      <trkpt lat="48.89172" lon="2.34932">
        <ele>49</ele>
        <time>2013-09-26T17:57:49Z</time>
      </trkpt>
      <trkpt lat="48.89168" lon="2.34938">
        <ele>45</ele>
        <time>2013-09-26T17:59:07Z</time>
      </trkpt>
      <trkpt lat="48.89161" lon="2.3494">
        <ele>34</ele>
        <time>2013-09-26T17:59:15Z</time>
      </trkpt>
      <trkpt lat="48.89159" lon="2.34927">
        <ele>35</ele>
        <time>2013-09-26T17:59:20Z</time>
      </trkpt>
      <trkpt lat="48.89162" lon="2.34921">
        <ele>40</ele>
        <time>2013-09-26T17:59:22Z</time>
      </trkpt>
      <trkpt lat="48.89164" lon="2.3491">
        <ele>43</ele>
        <time>2013-09-26T17:59:25Z</time>
      </trkpt>
      <trkpt lat="48.89167" lon="2.34903">
        <ele>42</ele>
        <time>2013-09-26T17:59:27Z</time>
      </trkpt>
      <trkpt lat="48.8917" lon="2.34895">
        <ele>47</ele>
        <time>2013-09-26T17:59:30Z</time>
      </trkpt>
      <trkpt lat="48.89171" lon="2.34884">
        <ele>40</ele>
        <time>2013-09-26T17:59:33Z</time>
      </trkpt>
      <trkpt lat="48.89176" lon="2.34855">
        <ele>43</ele>
        <time>2013-09-26T17:59:39Z</time>
      </trkpt>
      <trkpt lat="48.8918" lon="2.34845">
        <ele>45</ele>
        <time>2013-09-26T17:59:41Z</time>
      </trkpt>
      <trkpt lat="48.89188" lon="2.34819">
        <ele>42</ele>
        <time>2013-09-26T17:59:46Z</time>
      </trkpt>
      <trkpt lat="48.89191" lon="2.3481">
        <ele>46</ele>
        <time>2013-09-26T17:59:48Z</time>
      </trkpt>
      <trkpt lat="48.89192" lon="2.34798">
        <ele>42</ele>
        <time>2013-09-26T17:59:50Z</time>
      </trkpt>
      <trkpt lat="48.89195" lon="2.34787">
        <ele>41</ele>
        <time>2013-09-26T17:59:52Z</time>
      </trkpt>
      <trkpt lat="48.89203" lon="2.34759">
        <ele>47</ele>
        <time>2013-09-26T17:59:57Z</time>
      </trkpt>
      <trkpt lat="48.89208" lon="2.34747">
        <ele>42</ele>
        <time>2013-09-26T17:59:59Z</time>
      </trkpt>
      <trkpt lat="48.89215" lon="2.34736">
        <ele>40</ele>
        <time>2013-09-26T18:00:01Z</time>
      </trkpt>
      <trkpt lat="48.89218" lon="2.34727">
        <ele>44</ele>
        <time>2013-09-26T18:00:02Z</time>
      </trkpt>
      <trkpt lat="48.89224" lon="2.34702">
        <ele>51</ele>
        <time>2013-09-26T18:00:06Z</time>
      </trkpt>
      <trkpt lat="48.8923" lon="2.34681">
        <ele>48</ele>
        <time>2013-09-26T18:00:11Z</time>
      </trkpt>
      <trkpt lat="48.8923" lon="2.3467">
        <ele>50</ele>
        <time>2013-09-26T18:00:13Z</time>
      </trkpt>
      <trkpt lat="48.89233" lon="2.3466">
        <ele>48</ele>
        <time>2013-09-26T18:00:15Z</time>
      </trkpt>
      <trkpt lat="48.89234" lon="2.3465">
        <ele>55</ele>
        <time>2013-09-26T18:00:17Z</time>
      </trkpt>
      <trkpt lat="48.89238" lon="2.34634">
        <ele>54</ele>
        <time>2013-09-26T18:00:22Z</time>
      </trkpt>
      <trkpt lat="48.89242" lon="2.34626">
        <ele>57</ele>
        <time>2013-09-26T18:00:26Z</time>
      </trkpt>
      <trkpt lat="48.89246" lon="2.3462">
        <ele>49</ele>
        <time>2013-09-26T18:00:34Z</time>
      </trkpt>
      <trkpt lat="48.89245" lon="2.34612">
        <ele>47</ele>
        <time>2013-09-26T18:00:40Z</time>
      </trkpt>
      <trkpt lat="48.89244" lon="2.346">
        <ele>47</ele>
        <time>2013-09-26T18:00:45Z</time>
      </trkpt>
      <trkpt lat="48.89245" lon="2.34592">
        <ele>47</ele>
        <time>2013-09-26T18:00:49Z</time>
      </trkpt>
      <trkpt lat="48.89247" lon="2.34577">
        <ele>51</ele>
        <time>2013-09-26T18:00:52Z</time>
      </trkpt>
      <trkpt lat="48.89255" lon="2.34516">
        <ele>47</ele>
        <time>2013-09-26T18:01:13Z</time>
      </trkpt>
      <trkpt lat="48.89254" lon="2.34508">
        <ele>48</ele>
        <time>2013-09-26T18:01:16Z</time>
      </trkpt>
      <trkpt lat="48.89255" lon="2.34495">
        <ele>47</ele>
        <time>2013-09-26T18:01:23Z</time>
      </trkpt>
      <trkpt lat="48.89255" lon="2.34469">
        <ele>48</ele>
        <time>2013-09-26T18:01:37Z</time>
      </trkpt>
      <trkpt lat="48.89258" lon="2.3446">
        <ele>47</ele>
        <time>2013-09-26T18:01:46Z</time>
      </trkpt>
      <trkpt lat="48.89259" lon="2.34452">
        <ele>51</ele>
        <time>2013-09-26T18:01:49Z</time>
      </trkpt>
      <trkpt lat="48.89258" lon="2.34443">
        <ele>52</ele>
        <time>2013-09-26T18:01:53Z</time>
      </trkpt>
      <trkpt lat="48.89262" lon="2.34437">
        <ele>64</ele>
        <time>2013-09-26T18:02:04Z</time>
      </trkpt>
      <trkpt lat="48.89267" lon="2.34433">
        <ele>55</ele>
        <time>2013-09-26T18:02:15Z</time>
      </trkpt>
      <trkpt lat="48.89268" lon="2.34422">
        <ele>49</ele>
        <time>2013-09-26T18:02:23Z</time>
      </trkpt>
      <trkpt lat="48.89269" lon="2.34412">
        <ele>52</ele>
        <time>2013-09-26T18:02:29Z</time>
      </trkpt>
      <trkpt lat="48.8927" lon="2.34405">
        <ele>53</ele>
        <time>2013-09-26T18:02:32Z</time>
      </trkpt>
      <trkpt lat="48.89275" lon="2.34375">
        <ele>48</ele>
        <time>2013-09-26T18:02:42Z</time>
      </trkpt>
      <trkpt lat="48.89276" lon="2.34362">
        <ele>49</ele>
        <time>2013-09-26T18:02:45Z</time>
      </trkpt>
      <trkpt lat="48.89279" lon="2.34351">
        <ele>48</ele>
        <time>2013-09-26T18:02:47Z</time>
      </trkpt>
      <trkpt lat="48.89282" lon="2.34339">
        <ele>50</ele>
        <time>2013-09-26T18:02:50Z</time>
      </trkpt>
      <trkpt lat="48.89284" lon="2.34328">
        <ele>51</ele>
        <time>2013-09-26T18:02:52Z</time>
      </trkpt>
      <trkpt lat="48.89287" lon="2.34316">
        <ele>46</ele>
        <time>2013-09-26T18:02:54Z</time>
      </trkpt>
      <trkpt lat="48.8929" lon="2.34299">
        <ele>48</ele>
        <time>2013-09-26T18:02:57Z</time>
      </trkpt>
      <trkpt lat="48.89292" lon="2.34287">
        <ele>45</ele>
        <time>2013-09-26T18:02:59Z</time>
      </trkpt>
      <trkpt lat="48.89298" lon="2.34256">
        <ele>46</ele>
        <time>2013-09-26T18:03:04Z</time>
      </trkpt>
      <trkpt lat="48.89299" lon="2.34244">
        <ele>45</ele>
        <time>2013-09-26T18:03:06Z</time>
      </trkpt>
      <trkpt lat="48.89298" lon="2.34236">
        <ele>52</ele>
        <time>2013-09-26T18:03:08Z</time>
      </trkpt>
      <trkpt lat="48.89297" lon="2.34219">
        <ele>52</ele>
        <time>2013-09-26T18:03:12Z</time>
      </trkpt>
      <trkpt lat="48.89298" lon="2.34209">
        <ele>48</ele>
        <time>2013-09-26T18:03:14Z</time>
      </trkpt>
      <trkpt lat="48.89297" lon="2.34196">
        <ele>56</ele>
        <time>2013-09-26T18:03:16Z</time>
      </trkpt>
      <trkpt lat="48.89297" lon="2.34174">
        <ele>56</ele>
        <time>2013-09-26T18:03:21Z</time>
      </trkpt>
      <trkpt lat="48.893" lon="2.34166">
        <ele>54</ele>
        <time>2013-09-26T18:03:24Z</time>
      </trkpt>
      <trkpt lat="48.89292" lon="2.34168">
        <ele>51</ele>
        <time>2013-09-26T18:03:27Z</time>
      </trkpt>
      <trkpt lat="48.89288" lon="2.34172">
        <ele>57</ele>
        <time>2013-09-26T18:03:30Z</time>
      </trkpt>
      <trkpt lat="48.89275" lon="2.34187">
        <ele>55</ele>
        <time>2013-09-26T18:03:35Z</time>
      </trkpt>
      <trkpt lat="48.89266" lon="2.34194">
        <ele>65</ele>
        <time>2013-09-26T18:03:41Z</time>
      </trkpt>
      <trkpt lat="48.89263" lon="2.34187">
        <ele>58</ele>
        <time>2013-09-26T18:03:45Z</time>
      </trkpt>
      <trkpt lat="48.89259" lon="2.34182">
        <ele>58</ele>
        <time>2013-09-26T18:03:48Z</time>
      </trkpt>
      <trkpt lat="48.89243" lon="2.34157">
        <ele>49</ele>
        <time>2013-09-26T18:03:57Z</time>
      </trkpt>
      <trkpt lat="48.89243" lon="2.34152">
        <ele>52</ele>
        <time>2013-09-26T18:03:58Z</time>
      </trkpt>
      <trkpt lat="48.89245" lon="2.34145">
        <ele>57</ele>
        <time>2013-09-26T18:04:14Z</time>
      </trkpt>
      <trkpt lat="48.8924" lon="2.34133">
        <ele>52</ele>
        <time>2013-09-26T18:04:19Z</time>
      </trkpt>
      <trkpt lat="48.89235" lon="2.34123">
        <ele>65</ele>
        <time>2013-09-26T18:04:22Z</time>
      </trkpt>
      <trkpt lat="48.89225" lon="2.34109">
        <ele>51</ele>
        <time>2013-09-26T18:04:27Z</time>
      </trkpt>
      <trkpt lat="48.89216" lon="2.34096">
        <ele>48</ele>
        <time>2013-09-26T18:04:32Z</time>
      </trkpt>
      <trkpt lat="48.89214" lon="2.34088">
        <ele>48</ele>
        <time>2013-09-26T18:04:34Z</time>
      </trkpt>
      <trkpt lat="48.89209" lon="2.34089">
        <ele>53</ele>
        <time>2013-09-26T18:04:37Z</time>
      </trkpt>
      <trkpt lat="48.892" lon="2.34094">
        <ele>61</ele>
        <time>2013-09-26T18:04:39Z</time>
      </trkpt>
      <trkpt lat="48.89186" lon="2.34095">
        <ele>54</ele>
        <time>2013-09-26T18:04:43Z</time>
      </trkpt>
      <trkpt lat="48.89179" lon="2.34094">
        <ele>53</ele>
        <time>2013-09-26T18:04:45Z</time>
      </trkpt>
      <trkpt lat="48.89169" lon="2.34091">
        <ele>51</ele>
        <time>2013-09-26T18:04:48Z</time>
      </trkpt>
      <trkpt lat="48.89162" lon="2.34087">
        <ele>48</ele>
        <time>2013-09-26T18:04:50Z</time>
      </trkpt>
      <trkpt lat="48.89155" lon="2.34082">
        <ele>55</ele>
        <time>2013-09-26T18:04:52Z</time>
      </trkpt>
      <trkpt lat="48.89149" lon="2.34076">
        <ele>49</ele>
        <time>2013-09-26T18:04:54Z</time>
      </trkpt>
      <trkpt lat="48.8914" lon="2.34065">
        <ele>57</ele>
        <time>2013-09-26T18:04:57Z</time>
      </trkpt>
      <trkpt lat="48.89134" lon="2.34047">
        <ele>52</ele>
        <time>2013-09-26T18:05:00Z</time>
      </trkpt>
      <trkpt lat="48.89131" lon="2.3404">
        <ele>51</ele>
        <time>2013-09-26T18:05:02Z</time>
      </trkpt>
      <trkpt lat="48.89128" lon="2.34033">
        <ele>47</ele>
        <time>2013-09-26T18:05:04Z</time>
      </trkpt>
      <trkpt lat="48.89127" lon="2.34024">
        <ele>44</ele>
        <time>2013-09-26T18:05:06Z</time>
      </trkpt>
      <trkpt lat="48.89122" lon="2.34009">
        <ele>54</ele>
        <time>2013-09-26T18:05:11Z</time>
      </trkpt>
      <trkpt lat="48.89119" lon="2.34002">
        <ele>50</ele>
        <time>2013-09-26T18:05:14Z</time>
      </trkpt>
      <trkpt lat="48.89115" lon="2.33996">
        <ele>42</ele>
        <time>2013-09-26T18:05:17Z</time>
      </trkpt>
      <trkpt lat="48.89111" lon="2.33988">
        <ele>50</ele>
        <time>2013-09-26T18:05:20Z</time>
      </trkpt>
      <trkpt lat="48.8911" lon="2.33976">
        <ele>54</ele>
        <time>2013-09-26T18:05:26Z</time>
      </trkpt>
      <trkpt lat="48.89088" lon="2.33999">
        <ele>52</ele>
        <time>2013-09-26T18:06:31Z</time>
      </trkpt>
      <trkpt lat="48.89085" lon="2.34022">
        <ele>45</ele>
        <time>2013-09-26T18:06:33Z</time>
      </trkpt>
      <trkpt lat="48.89078" lon="2.34054">
        <ele>49</ele>
        <time>2013-09-26T18:06:40Z</time>
      </trkpt>
      <trkpt lat="48.89077" lon="2.34063">
        <ele>50</ele>
        <time>2013-09-26T18:06:42Z</time>
      </trkpt>
      <trkpt lat="48.89077" lon="2.34072">
        <ele>53</ele>
        <time>2013-09-26T18:06:44Z</time>
      </trkpt>
      <trkpt lat="48.89082" lon="2.34086">
        <ele>57</ele>
        <time>2013-09-26T18:07:01Z</time>
      </trkpt>
      <trkpt lat="48.89053" lon="2.34067">
        <ele>49</ele>
        <time>2013-09-26T18:08:34Z</time>
      </trkpt>
      <trkpt lat="48.89032" lon="2.34049">
        <ele>45</ele>
        <time>2013-09-26T18:09:07Z</time>
      </trkpt>
      <trkpt lat="48.89019" lon="2.34044">
        <ele>45</ele>
        <time>2013-09-26T18:09:13Z</time>
      </trkpt>
      <trkpt lat="48.89002" lon="2.34038">
        <ele>57</ele>
        <time>2013-09-26T18:09:15Z</time>
      </trkpt>
      <trkpt lat="48.88987" lon="2.34037">
        <ele>55</ele>
        <time>2013-09-26T18:09:19Z</time>
      </trkpt>
      <trkpt lat="48.88971" lon="2.34041">
        <ele>62</ele>
        <time>2013-09-26T18:09:28Z</time>
      </trkpt>
      <trkpt lat="48.88962" lon="2.34022">
        <ele>94</ele>
        <time>2013-09-26T18:09:47Z</time>
      </trkpt>
      <trkpt lat="48.88955" lon="2.34016">
        <ele>118</ele>
        <time>2013-09-26T18:09:55Z</time>
      </trkpt>
      <trkpt lat="48.88952" lon="2.3403">
        <ele>64</ele>
        <time>2013-09-26T18:10:02Z</time>
      </trkpt>
      <trkpt lat="48.88956" lon="2.34035">
        <ele>49</ele>
        <time>2013-09-26T18:10:10Z</time>
      </trkpt>
      <trkpt lat="48.88962" lon="2.34036">
        <ele>49</ele>
        <time>2013-09-26T18:10:47Z</time>
      </trkpt>
      <trkpt lat="48.88969" lon="2.34038">
        <ele>45</ele>
        <time>2013-09-26T18:10:56Z</time>
      </trkpt>
      <trkpt lat="48.88981" lon="2.34018">
        <ele>46</ele>
        <time>2013-09-26T18:11:18Z</time>
      </trkpt>
      <trkpt lat="48.8899" lon="2.34014">
        <ele>43</ele>
        <time>2013-09-26T18:11:25Z</time>
      </trkpt>
      <trkpt lat="48.88994" lon="2.3402">
        <ele>44</ele>
        <time>2013-09-26T18:11:42Z</time>
      </trkpt>
      <trkpt lat="48.88989" lon="2.34026">
        <ele>46</ele>
        <time>2013-09-26T18:11:48Z</time>
      </trkpt>
      <trkpt lat="48.88983" lon="2.34026">
        <ele>47</ele>
        <time>2013-09-26T18:13:14Z</time>
      </trkpt>
      <trkpt lat="48.8898" lon="2.34033">
        <ele>47</ele>
        <time>2013-09-26T18:13:17Z</time>
      </trkpt>
      <trkpt lat="48.88983" lon="2.34041">
        <ele>43</ele>
        <time>2013-09-26T18:13:21Z</time>
      </trkpt>
      <trkpt lat="48.88982" lon="2.34025">
        <ele>44</ele>
        <time>2013-09-26T18:14:14Z</time>
      </trkpt>
      <trkpt lat="48.88986" lon="2.34019">
        <ele>46</ele>
        <time>2013-09-26T18:14:19Z</time>
      </trkpt>
      <trkpt lat="48.88983" lon="2.33963">
        <ele>46</ele>
        <time>2013-09-26T18:18:20Z</time>
      </trkpt>
      <trkpt lat="48.88994" lon="2.33908">
        <ele>45</ele>
        <time>2013-09-26T18:18:23Z</time>
      </trkpt>
      <trkpt lat="48.89011" lon="2.33848">
        <ele>52</ele>
        <time>2013-09-26T18:18:29Z</time>
      </trkpt>
      <trkpt lat="48.89001" lon="2.33814">
        <ele>46</ele>
        <time>2013-09-26T18:18:55Z</time>
      </trkpt>
      <trkpt lat="48.88988" lon="2.33754">
        <ele>42</ele>
        <time>2013-09-26T18:19:26Z</time>
      </trkpt>
      <trkpt lat="48.88986" lon="2.33713">
        <ele>39</ele>
        <time>2013-09-26T18:19:29Z</time>
      </trkpt>
      <trkpt lat="48.8895" lon="2.33574">
        <ele>49</ele>
        <time>2013-09-26T18:19:50Z</time>
      </trkpt>
      <trkpt lat="48.88812" lon="2.33396">
        <ele>45</ele>
        <time>2013-09-26T18:20:58Z</time>
      </trkpt>
      <trkpt lat="48.88784" lon="2.33403">
        <ele>44</ele>
        <time>2013-09-26T18:21:00Z</time>
      </trkpt>
      <trkpt lat="48.88757" lon="2.33397">
        <ele>52</ele>
        <time>2013-09-26T18:21:06Z</time>
      </trkpt>
      <trkpt lat="48.88756" lon="2.3333">
        <ele>36</ele>
        <time>2013-09-26T18:21:17Z</time>
      </trkpt>
      <trkpt lat="48.88754" lon="2.33299">
        <ele>39</ele>
        <time>2013-09-26T18:21:22Z</time>
      </trkpt>
      <trkpt lat="48.887" lon="2.33262">
        <ele>58</ele>
        <time>2013-09-26T18:21:40Z</time>
      </trkpt>
      <trkpt lat="48.88689" lon="2.33262">
        <ele>71</ele>
        <time>2013-09-26T18:21:42Z</time>
      </trkpt>
      <trkpt lat="48.88685" lon="2.33255">
        <ele>71</ele>
        <time>2013-09-26T18:21:44Z</time>
      </trkpt>
      <trkpt lat="48.88686" lon="2.33247">
        <ele>79</ele>
        <time>2013-09-26T18:21:47Z</time>
      </trkpt>
      <trkpt lat="48.88683" lon="2.3324">
        <ele>82</ele>
        <time>2013-09-26T18:21:49Z</time>
      </trkpt>
      <trkpt lat="48.88677" lon="2.33236">
        <ele>74</ele>
        <time>2013-09-26T18:21:51Z</time>
      </trkpt>
      <trkpt lat="48.88669" lon="2.33235">
        <ele>72</ele>
        <time>2013-09-26T18:21:53Z</time>
      </trkpt>
      <trkpt lat="48.88664" lon="2.33236">
        <ele>78</ele>
        <time>2013-09-26T18:21:55Z</time>
      </trkpt>
      <trkpt lat="48.88658" lon="2.33234">
        <ele>75</ele>
        <time>2013-09-26T18:21:57Z</time>
      </trkpt>
      <trkpt lat="48.88652" lon="2.33231">
        <ele>80</ele>
        <time>2013-09-26T18:21:59Z</time>
      </trkpt>
      <trkpt lat="48.88647" lon="2.33222">
        <ele>76</ele>
        <time>2013-09-26T18:22:01Z</time>
      </trkpt>
      <trkpt lat="48.88644" lon="2.33214">
        <ele>76</ele>
        <time>2013-09-26T18:22:03Z</time>
      </trkpt>
      <trkpt lat="48.88639" lon="2.33206">
        <ele>69</ele>
        <time>2013-09-26T18:22:05Z</time>
      </trkpt>
      <trkpt lat="48.88632" lon="2.33199">
        <ele>72</ele>
        <time>2013-09-26T18:22:07Z</time>
      </trkpt>
      <trkpt lat="48.88625" lon="2.3319">
        <ele>69</ele>
        <time>2013-09-26T18:22:09Z</time>
      </trkpt>
      <trkpt lat="48.88594" lon="2.33144">
        <ele>80</ele>
        <time>2013-09-26T18:22:17Z</time>
      </trkpt>
      <trkpt lat="48.88589" lon="2.33136">
        <ele>77</ele>
        <time>2013-09-26T18:22:18Z</time>
      </trkpt>
      <trkpt lat="48.88544" lon="2.33061">
        <ele>63</ele>
        <time>2013-09-26T18:22:28Z</time>
      </trkpt>
      <trkpt lat="48.8854" lon="2.33053">
        <ele>64</ele>
        <time>2013-09-26T18:22:29Z</time>
      </trkpt>
      <trkpt lat="48.88517" lon="2.3301">
        <ele>51</ele>
        <time>2013-09-26T18:22:35Z</time>
      </trkpt>
      <trkpt lat="48.88512" lon="2.33002">
        <ele>51</ele>
        <time>2013-09-26T18:22:36Z</time>
      </trkpt>
      <trkpt lat="48.88499" lon="2.3298">
        <ele>53</ele>
        <time>2013-09-26T18:22:40Z</time>
      </trkpt>
      <trkpt lat="48.88495" lon="2.32976">
        <ele>51</ele>
        <time>2013-09-26T18:22:41Z</time>
      </trkpt>
      <trkpt lat="48.88479" lon="2.3296">
        <ele>57</ele>
        <time>2013-09-26T18:22:45Z</time>
      </trkpt>
      <trkpt lat="48.88474" lon="2.32948">
        <ele>56</ele>
        <time>2013-09-26T18:22:49Z</time>
      </trkpt>
      <trkpt lat="48.8847" lon="2.32935">
        <ele>57</ele>
        <time>2013-09-26T18:22:54Z</time>
      </trkpt>
      <trkpt lat="48.88464" lon="2.3292">
        <ele>63</ele>
        <time>2013-09-26T18:22:59Z</time>
      </trkpt>
      <trkpt lat="48.88459" lon="2.32905">
        <ele>66</ele>
        <time>2013-09-26T18:23:04Z</time>
      </trkpt>
      <trkpt lat="48.88456" lon="2.32898">
        <ele>68</ele>
        <time>2013-09-26T18:23:06Z</time>
      </trkpt>
      <trkpt lat="48.88451" lon="2.32891">
        <ele>61</ele>
        <time>2013-09-26T18:23:08Z</time>
      </trkpt>
      <trkpt lat="48.88446" lon="2.32882">
        <ele>57</ele>
        <time>2013-09-26T18:23:10Z</time>
      </trkpt>
      <trkpt lat="48.88447" lon="2.32874">
        <ele>56</ele>
        <time>2013-09-26T18:23:11Z</time>
      </trkpt>
      <trkpt lat="48.88442" lon="2.32864">
        <ele>59</ele>
        <time>2013-09-26T18:23:14Z</time>
      </trkpt>
      <trkpt lat="48.88437" lon="2.3286">
        <ele>61</ele>
        <time>2013-09-26T18:23:16Z</time>
      </trkpt>
      <trkpt lat="48.88428" lon="2.32847">
        <ele>63</ele>
        <time>2013-09-26T18:23:21Z</time>
      </trkpt>
      <trkpt lat="48.88424" lon="2.32841">
        <ele>66</ele>
        <time>2013-09-26T18:23:23Z</time>
      </trkpt>
      <trkpt lat="48.88419" lon="2.32835">
        <ele>67</ele>
        <time>2013-09-26T18:23:25Z</time>
      </trkpt>
      <trkpt lat="48.88416" lon="2.32828">
        <ele>72</ele>
        <time>2013-09-26T18:23:27Z</time>
      </trkpt>
      <trkpt lat="48.88414" lon="2.3282">
        <ele>73</ele>
        <time>2013-09-26T18:23:29Z</time>
      </trkpt>
      <trkpt lat="48.88404" lon="2.32793">
        <ele>79</ele>
        <time>2013-09-26T18:23:36Z</time>
      </trkpt>
      <trkpt lat="48.88398" lon="2.32781">
        <ele>88</ele>
        <time>2013-09-26T18:23:40Z</time>
      </trkpt>
      <trkpt lat="48.88393" lon="2.32775">
        <ele>90</ele>
        <time>2013-09-26T18:23:42Z</time>
      </trkpt>
      <trkpt lat="48.88388" lon="2.32766">
        <ele>82</ele>
        <time>2013-09-26T18:23:46Z</time>
      </trkpt>
      <trkpt lat="48.88378" lon="2.32767">
        <ele>72</ele>
        <time>2013-09-26T18:23:52Z</time>
      </trkpt>
      <trkpt lat="48.88371" lon="2.32778">
        <ele>61</ele>
        <time>2013-09-26T18:24:12Z</time>
      </trkpt>
      <trkpt lat="48.88362" lon="2.32773">
        <ele>45</ele>
        <time>2013-09-26T18:24:37Z</time>
      </trkpt>
      <trkpt lat="48.88363" lon="2.32764">
        <ele>42</ele>
        <time>2013-09-26T18:24:39Z</time>
      </trkpt>
      <trkpt lat="48.88359" lon="2.32751">
        <ele>41</ele>
        <time>2013-09-26T18:24:43Z</time>
      </trkpt>
      <trkpt lat="48.88354" lon="2.3274">
        <ele>44</ele>
        <time>2013-09-26T18:24:46Z</time>
      </trkpt>
      <trkpt lat="48.88348" lon="2.32738">
        <ele>49</ele>
        <time>2013-09-26T18:24:48Z</time>
      </trkpt>
      <trkpt lat="48.88344" lon="2.32731">
        <ele>50</ele>
        <time>2013-09-26T18:24:50Z</time>
      </trkpt>
      <trkpt lat="48.88342" lon="2.32721">
        <ele>62</ele>
        <time>2013-09-26T18:24:52Z</time>
      </trkpt>
      <trkpt lat="48.88341" lon="2.32711">
        <ele>57</ele>
        <time>2013-09-26T18:24:54Z</time>
      </trkpt>
      <trkpt lat="48.88334" lon="2.3268">
        <ele>58</ele>
        <time>2013-09-26T18:25:01Z</time>
      </trkpt>
      <trkpt lat="48.88314" lon="2.32584">
        <ele>52</ele>
        <time>2013-09-26T18:25:22Z</time>
      </trkpt>
      <trkpt lat="48.88305" lon="2.32559">
        <ele>53</ele>
        <time>2013-09-26T18:25:26Z</time>
      </trkpt>
      <trkpt lat="48.88299" lon="2.32531">
        <ele>49</ele>
        <time>2013-09-26T18:25:31Z</time>
      </trkpt>
      <trkpt lat="48.88298" lon="2.32517">
        <ele>49</ele>
        <time>2013-09-26T18:25:33Z</time>
      </trkpt>
      <trkpt lat="48.88296" lon="2.32504">
        <ele>45</ele>
        <time>2013-09-26T18:25:35Z</time>
      </trkpt>
      <trkpt lat="48.88293" lon="2.32492">
        <ele>46</ele>
        <time>2013-09-26T18:25:37Z</time>
      </trkpt>
      <trkpt lat="48.88291" lon="2.3248">
        <ele>48</ele>
        <time>2013-09-26T18:25:39Z</time>
      </trkpt>
      <trkpt lat="48.88289" lon="2.32449">
        <ele>46</ele>
        <time>2013-09-26T18:25:44Z</time>
      </trkpt>
      <trkpt lat="48.8829" lon="2.32435">
        <ele>44</ele>
        <time>2013-09-26T18:26:02Z</time>
      </trkpt>
      <trkpt lat="48.88288" lon="2.32426">
        <ele>43</ele>
        <time>2013-09-26T18:26:04Z</time>
      </trkpt>
      <trkpt lat="48.8828" lon="2.32413">
        <ele>48</ele>
        <time>2013-09-26T18:26:10Z</time>
      </trkpt>
      <trkpt lat="48.88277" lon="2.32404">
        <ele>46</ele>
        <time>2013-09-26T18:26:12Z</time>
      </trkpt>
      <trkpt lat="48.8827" lon="2.32373">
        <ele>47</ele>
        <time>2013-09-26T18:26:19Z</time>
      </trkpt>
      <trkpt lat="48.88268" lon="2.32361">
        <ele>46</ele>
        <time>2013-09-26T18:26:21Z</time>
      </trkpt>
      <trkpt lat="48.88266" lon="2.32339">
        <ele>50</ele>
        <time>2013-09-26T18:26:24Z</time>
      </trkpt>
      <trkpt lat="48.88264" lon="2.32326">
        <ele>47</ele>
        <time>2013-09-26T18:26:26Z</time>
      </trkpt>
      <trkpt lat="48.88259" lon="2.32299">
        <ele>45</ele>
        <time>2013-09-26T18:26:30Z</time>
      </trkpt>
      <trkpt lat="48.88257" lon="2.32292">
        <ele>50</ele>
        <time>2013-09-26T18:26:31Z</time>
      </trkpt>
      <trkpt lat="48.88256" lon="2.32284">
        <ele>50</ele>
        <time>2013-09-26T18:26:32Z</time>
      </trkpt>
      <trkpt lat="48.8825" lon="2.32255">
        <ele>48</ele>
        <time>2013-09-26T18:26:36Z</time>
      </trkpt>
      <trkpt lat="48.88247" lon="2.32247">
        <ele>45</ele>
        <time>2013-09-26T18:26:37Z</time>
      </trkpt>
      <trkpt lat="48.88246" lon="2.32238">
        <ele>47</ele>
        <time>2013-09-26T18:26:38Z</time>
      </trkpt>
      <trkpt lat="48.88244" lon="2.32219">
        <ele>47</ele>
        <time>2013-09-26T18:26:40Z</time>
      </trkpt>
      <trkpt lat="48.88239" lon="2.322">
        <ele>51</ele>
        <time>2013-09-26T18:26:43Z</time>
      </trkpt>
      <trkpt lat="48.88233" lon="2.3217">
        <ele>46</ele>
        <time>2013-09-26T18:26:48Z</time>
      </trkpt>
      <trkpt lat="48.88231" lon="2.32155">
        <ele>47</ele>
        <time>2013-09-26T18:26:50Z</time>
      </trkpt>
      <trkpt lat="48.88227" lon="2.32131">
        <ele>48</ele>
        <time>2013-09-26T18:26:54Z</time>
      </trkpt>
      <trkpt lat="48.88223" lon="2.32118">
        <ele>45</ele>
        <time>2013-09-26T18:26:57Z</time>
      </trkpt>
      <trkpt lat="48.88223" lon="2.32107">
        <ele>45</ele>
        <time>2013-09-26T18:26:59Z</time>
      </trkpt>
      <trkpt lat="48.8822" lon="2.32079">
        <ele>55</ele>
        <time>2013-09-26T18:27:04Z</time>
      </trkpt>
      <trkpt lat="48.88216" lon="2.3207">
        <ele>58</ele>
        <time>2013-09-26T18:27:06Z</time>
      </trkpt>
      <trkpt lat="48.88216" lon="2.32048">
        <ele>52</ele>
        <time>2013-09-26T18:27:40Z</time>
      </trkpt>
      <trkpt lat="48.8821" lon="2.32036">
        <ele>54</ele>
        <time>2013-09-26T18:27:46Z</time>
      </trkpt>
      <trkpt lat="48.88208" lon="2.32027">
        <ele>57</ele>
        <time>2013-09-26T18:27:50Z</time>
      </trkpt>
      <trkpt lat="48.88204" lon="2.32001">
        <ele>62</ele>
        <time>2013-09-26T18:27:57Z</time>
      </trkpt>
      <trkpt lat="48.88203" lon="2.31993">
        <ele>61</ele>
        <time>2013-09-26T18:27:59Z</time>
      </trkpt>
      <trkpt lat="48.88201" lon="2.31985">
        <ele>60</ele>
        <time>2013-09-26T18:28:01Z</time>
      </trkpt>
      <trkpt lat="48.88197" lon="2.31976">
        <ele>58</ele>
        <time>2013-09-26T18:28:03Z</time>
      </trkpt>
      <trkpt lat="48.88192" lon="2.31966">
        <ele>51</ele>
        <time>2013-09-26T18:28:05Z</time>
      </trkpt>
      <trkpt lat="48.88191" lon="2.31955">
        <ele>48</ele>
        <time>2013-09-26T18:28:07Z</time>
      </trkpt>
      <trkpt lat="48.88189" lon="2.31944">
        <ele>47</ele>
        <time>2013-09-26T18:28:09Z</time>
      </trkpt>
      <trkpt lat="48.88186" lon="2.31911">
        <ele>48</ele>
        <time>2013-09-26T18:28:14Z</time>
      </trkpt>
      <trkpt lat="48.88184" lon="2.319">
        <ele>47</ele>
        <time>2013-09-26T18:28:16Z</time>
      </trkpt>
      <trkpt lat="48.8818" lon="2.31883">
        <ele>48</ele>
        <time>2013-09-26T18:28:19Z</time>
      </trkpt>
      <trkpt lat="48.88176" lon="2.31862">
        <ele>50</ele>
        <time>2013-09-26T18:28:24Z</time>
      </trkpt>
      <trkpt lat="48.88171" lon="2.31834">
        <ele>45</ele>
        <time>2013-09-26T18:28:29Z</time>
      </trkpt>
      <trkpt lat="48.88168" lon="2.31822">
        <ele>45</ele>
        <time>2013-09-26T18:28:31Z</time>
      </trkpt>
      <trkpt lat="48.88159" lon="2.31794">
        <ele>43</ele>
        <time>2013-09-26T18:28:36Z</time>
      </trkpt>
      <trkpt lat="48.88156" lon="2.31783">
        <ele>44</ele>
        <time>2013-09-26T18:28:38Z</time>
      </trkpt>
      <trkpt lat="48.88142" lon="2.31729">
        <ele>46</ele>
        <time>2013-09-26T18:28:48Z</time>
      </trkpt>
      <trkpt lat="48.8814" lon="2.31707">
        <ele>45</ele>
        <time>2013-09-26T18:28:51Z</time>
      </trkpt>
      <trkpt lat="48.88142" lon="2.31682">
        <ele>45</ele>
        <time>2013-09-26T18:28:55Z</time>
      </trkpt>
      <trkpt lat="48.88149" lon="2.3166">
        <ele>46</ele>
        <time>2013-09-26T18:28:59Z</time>
      </trkpt>
      <trkpt lat="48.88151" lon="2.31644">
        <ele>46</ele>
        <time>2013-09-26T18:29:02Z</time>
      </trkpt>
      <trkpt lat="48.88148" lon="2.31622">
        <ele>51</ele>
        <time>2013-09-26T18:29:06Z</time>
      </trkpt>
      <trkpt lat="48.88138" lon="2.31551">
        <ele>49</ele>
        <time>2013-09-26T18:29:43Z</time>
      </trkpt>
      <trkpt lat="48.8814" lon="2.31543">
        <ele>48</ele>
        <time>2013-09-26T18:29:45Z</time>
      </trkpt>
      <trkpt lat="48.88139" lon="2.31535">
        <ele>50</ele>
        <time>2013-09-26T18:29:47Z</time>
      </trkpt>
      <trkpt lat="48.8814" lon="2.31527">
        <ele>49</ele>
        <time>2013-09-26T18:29:49Z</time>
      </trkpt>
      <trkpt lat="48.88141" lon="2.31518">
        <ele>52</ele>
        <time>2013-09-26T18:29:52Z</time>
      </trkpt>
      <trkpt lat="48.8814" lon="2.31511">
        <ele>52</ele>
        <time>2013-09-26T18:29:55Z</time>
      </trkpt>
      <trkpt lat="48.88139" lon="2.31503">
        <ele>50</ele>
        <time>2013-09-26T18:29:58Z</time>
      </trkpt>
      <trkpt lat="48.88137" lon="2.31493">
        <ele>47</ele>
        <time>2013-09-26T18:30:01Z</time>
      </trkpt>
      <trkpt lat="48.88134" lon="2.31462">
        <ele>41</ele>
        <time>2013-09-26T18:30:08Z</time>
      </trkpt>
      <trkpt lat="48.8813" lon="2.31447">
        <ele>41</ele>
        <time>2013-09-26T18:30:10Z</time>
      </trkpt>
      <trkpt lat="48.88126" lon="2.31415">
        <ele>43</ele>
        <time>2013-09-26T18:30:14Z</time>
      </trkpt>
      <trkpt lat="48.88124" lon="2.31409">
        <ele>45</ele>
        <time>2013-09-26T18:30:15Z</time>
      </trkpt>
      <trkpt lat="48.88123" lon="2.31401">
        <ele>43</ele>
        <time>2013-09-26T18:30:16Z</time>
      </trkpt>
      <trkpt lat="48.88117" lon="2.31375">
        <ele>48</ele>
        <time>2013-09-26T18:30:20Z</time>
      </trkpt>
      <trkpt lat="48.88112" lon="2.31362">
        <ele>47</ele>
        <time>2013-09-26T18:30:22Z</time>
      </trkpt>
      <trkpt lat="48.88104" lon="2.31334">
        <ele>45</ele>
        <time>2013-09-26T18:30:26Z</time>
      </trkpt>
      <trkpt lat="48.88097" lon="2.31306">
        <ele>37</ele>
        <time>2013-09-26T18:30:30Z</time>
      </trkpt>
      <trkpt lat="48.88096" lon="2.31291">
        <ele>41</ele>
        <time>2013-09-26T18:30:32Z</time>
      </trkpt>
      <trkpt lat="48.88094" lon="2.3126">
        <ele>44</ele>
        <time>2013-09-26T18:30:37Z</time>
      </trkpt>
      <trkpt lat="48.88094" lon="2.31222">
        <ele>42</ele>
        <time>2013-09-26T18:30:49Z</time>
      </trkpt>
      <trkpt lat="48.88102" lon="2.3122">
        <ele>46</ele>
        <time>2013-09-26T18:31:08Z</time>
      </trkpt>
      <trkpt lat="48.88097" lon="2.31218">
        <ele>45</ele>
        <time>2013-09-26T18:31:12Z</time>
      </trkpt>
      <trkpt lat="48.88091" lon="2.31211">
        <ele>47</ele>
        <time>2013-09-26T18:31:16Z</time>
      </trkpt>
      <trkpt lat="48.88083" lon="2.312">
        <ele>47</ele>
        <time>2013-09-26T18:31:21Z</time>
      </trkpt>
      <trkpt lat="48.88079" lon="2.31192">
        <ele>50</ele>
        <time>2013-09-26T18:31:24Z</time>
      </trkpt>
      <trkpt lat="48.88075" lon="2.31186">
        <ele>54</ele>
        <time>2013-09-26T18:31:26Z</time>
      </trkpt>
      <trkpt lat="48.88076" lon="2.31175">
        <ele>51</ele>
        <time>2013-09-26T18:31:28Z</time>
      </trkpt>
      <trkpt lat="48.88074" lon="2.31161">
        <ele>52</ele>
        <time>2013-09-26T18:31:30Z</time>
      </trkpt>
      <trkpt lat="48.88076" lon="2.31153">
        <ele>51</ele>
        <time>2013-09-26T18:31:31Z</time>
      </trkpt>
      <trkpt lat="48.88079" lon="2.31122">
        <ele>54</ele>
        <time>2013-09-26T18:31:36Z</time>
      </trkpt>
      <trkpt lat="48.88078" lon="2.31114">
        <ele>51</ele>
        <time>2013-09-26T18:31:37Z</time>
      </trkpt>
      <trkpt lat="48.88073" lon="2.31082">
        <ele>49</ele>
        <time>2013-09-26T18:31:41Z</time>
      </trkpt>
      <trkpt lat="48.88073" lon="2.31074">
        <ele>50</ele>
        <time>2013-09-26T18:31:42Z</time>
      </trkpt>
      <trkpt lat="48.88069" lon="2.3101">
        <ele>49</ele>
        <time>2013-09-26T18:31:54Z</time>
      </trkpt>
      <trkpt lat="48.8807" lon="2.31002">
        <ele>54</ele>
        <time>2013-09-26T18:31:56Z</time>
      </trkpt>
      <trkpt lat="48.8807" lon="2.30994">
        <ele>52</ele>
        <time>2013-09-26T18:31:58Z</time>
      </trkpt>
      <trkpt lat="48.88069" lon="2.30977">
        <ele>49</ele>
        <time>2013-09-26T18:32:02Z</time>
      </trkpt>
      <trkpt lat="48.88068" lon="2.30968">
        <ele>42</ele>
        <time>2013-09-26T18:32:04Z</time>
      </trkpt>
      <trkpt lat="48.88069" lon="2.30959">
        <ele>38</ele>
        <time>2013-09-26T18:32:07Z</time>
      </trkpt>
      <trkpt lat="48.88074" lon="2.30954">
        <ele>34</ele>
        <time>2013-09-26T18:32:09Z</time>
      </trkpt>
      <trkpt lat="48.88077" lon="2.30948">
        <ele>39</ele>
        <time>2013-09-26T18:32:11Z</time>
      </trkpt>
      <trkpt lat="48.88079" lon="2.3094">
        <ele>45</ele>
        <time>2013-09-26T18:32:13Z</time>
      </trkpt>
      <trkpt lat="48.88078" lon="2.30931">
        <ele>39</ele>
        <time>2013-09-26T18:32:16Z</time>
      </trkpt>
      <trkpt lat="48.88074" lon="2.30922">
        <ele>41</ele>
        <time>2013-09-26T18:32:19Z</time>
      </trkpt>
      <trkpt lat="48.88071" lon="2.30914">
        <ele>40</ele>
        <time>2013-09-26T18:32:21Z</time>
      </trkpt>
      <trkpt lat="48.8807" lon="2.30904">
        <ele>43</ele>
        <time>2013-09-26T18:32:23Z</time>
      </trkpt>
      <trkpt lat="48.8807" lon="2.30894">
        <ele>47</ele>
        <time>2013-09-26T18:32:25Z</time>
      </trkpt>
      <trkpt lat="48.88069" lon="2.30876">
        <ele>48</ele>
        <time>2013-09-26T18:32:29Z</time>
      </trkpt>
      <trkpt lat="48.88068" lon="2.30868">
        <ele>49</ele>
        <time>2013-09-26T18:32:31Z</time>
      </trkpt>
      <trkpt lat="48.88059" lon="2.30865">
        <ele>38</ele>
        <time>2013-09-26T18:32:49Z</time>
      </trkpt>
      <trkpt lat="48.88055" lon="2.30857">
        <ele>48</ele>
        <time>2013-09-26T18:32:52Z</time>
      </trkpt>
      <trkpt lat="48.88048" lon="2.30849">
        <ele>40</ele>
        <time>2013-09-26T18:32:57Z</time>
      </trkpt>
      <trkpt lat="48.88045" lon="2.30843">
        <ele>37</ele>
        <time>2013-09-26T18:32:59Z</time>
      </trkpt>
      <trkpt lat="48.88036" lon="2.30822">
        <ele>44</ele>
        <time>2013-09-26T18:33:08Z</time>
      </trkpt>
      <trkpt lat="48.88032" lon="2.30809">
        <ele>49</ele>
        <time>2013-09-26T18:33:11Z</time>
      </trkpt>
      <trkpt lat="48.88026" lon="2.30786">
        <ele>48</ele>
        <time>2013-09-26T18:33:16Z</time>
      </trkpt>
      <trkpt lat="48.88021" lon="2.30755">
        <ele>56</ele>
        <time>2013-09-26T18:33:22Z</time>
      </trkpt>
      <trkpt lat="48.88018" lon="2.30733">
        <ele>53</ele>
        <time>2013-09-26T18:33:26Z</time>
      </trkpt>
      <trkpt lat="48.88013" lon="2.30705">
        <ele>57</ele>
        <time>2013-09-26T18:33:30Z</time>
      </trkpt>
      <trkpt lat="48.88007" lon="2.30682">
        <ele>60</ele>
        <time>2013-09-26T18:33:33Z</time>
      </trkpt>
      <trkpt lat="48.87992" lon="2.30608">
        <ele>57</ele>
        <time>2013-09-26T18:33:42Z</time>
      </trkpt>
      <trkpt lat="48.87988" lon="2.30586">
        <ele>49</ele>
        <time>2013-09-26T18:33:45Z</time>
      </trkpt>
      <trkpt lat="48.87987" lon="2.30574">
        <ele>50</ele>
        <time>2013-09-26T18:33:47Z</time>
      </trkpt>
      <trkpt lat="48.87985" lon="2.3055">
        <ele>50</ele>
        <time>2013-09-26T18:33:51Z</time>
      </trkpt>
      <trkpt lat="48.87976" lon="2.30481">
        <ele>41</ele>
        <time>2013-09-26T18:34:06Z</time>
      </trkpt>
      <trkpt lat="48.87968" lon="2.30462">
        <ele>47</ele>
        <time>2013-09-26T18:34:15Z</time>
      </trkpt>
      <trkpt lat="48.87963" lon="2.30438">
        <ele>44</ele>
        <time>2013-09-26T18:34:21Z</time>
      </trkpt>
      <trkpt lat="48.87943" lon="2.30349">
        <ele>46</ele>
        <time>2013-09-26T18:34:55Z</time>
      </trkpt>
      <trkpt lat="48.87939" lon="2.30343">
        <ele>44</ele>
        <time>2013-09-26T18:35:00Z</time>
      </trkpt>
      <trkpt lat="48.87933" lon="2.30335">
        <ele>40</ele>
        <time>2013-09-26T18:35:05Z</time>
      </trkpt>
      <trkpt lat="48.8793" lon="2.30327">
        <ele>41</ele>
        <time>2013-09-26T18:35:09Z</time>
      </trkpt>
      <trkpt lat="48.87932" lon="2.30319">
        <ele>40</ele>
        <time>2013-09-26T18:35:11Z</time>
      </trkpt>
      <trkpt lat="48.87937" lon="2.30309">
        <ele>32</ele>
        <time>2013-09-26T18:35:16Z</time>
      </trkpt>
      <trkpt lat="48.87934" lon="2.30302">
        <ele>29</ele>
        <time>2013-09-26T18:35:20Z</time>
      </trkpt>
      <trkpt lat="48.87922" lon="2.30279">
        <ele>43</ele>
        <time>2013-09-26T18:35:29Z</time>
      </trkpt>
      <trkpt lat="48.87918" lon="2.30268">
        <ele>42</ele>
        <time>2013-09-26T18:35:32Z</time>
      </trkpt>
      <trkpt lat="48.87918" lon="2.3026">
        <ele>39</ele>
        <time>2013-09-26T18:35:34Z</time>
      </trkpt>
      <trkpt lat="48.87917" lon="2.3025">
        <ele>45</ele>
        <time>2013-09-26T18:35:36Z</time>
      </trkpt>
      <trkpt lat="48.87915" lon="2.3024">
        <ele>47</ele>
        <time>2013-09-26T18:35:38Z</time>
      </trkpt>
      <trkpt lat="48.87913" lon="2.30229">
        <ele>41</ele>
        <time>2013-09-26T18:35:41Z</time>
      </trkpt>
      <trkpt lat="48.87908" lon="2.30219">
        <ele>46</ele>
        <time>2013-09-26T18:35:44Z</time>
      </trkpt>
      <trkpt lat="48.87897" lon="2.30196">
        <ele>59</ele>
        <time>2013-09-26T18:35:52Z</time>
      </trkpt>
      <trkpt lat="48.87891" lon="2.30179">
        <ele>57</ele>
        <time>2013-09-26T18:35:58Z</time>
      </trkpt>
      <trkpt lat="48.8789" lon="2.30169">
        <ele>52</ele>
        <time>2013-09-26T18:36:01Z</time>
      </trkpt>
      <trkpt lat="48.87885" lon="2.30143">
        <ele>46</ele>
        <time>2013-09-26T18:36:08Z</time>
      </trkpt>
      <trkpt lat="48.87874" lon="2.30084">
        <ele>40</ele>
        <time>2013-09-26T18:36:23Z</time>
      </trkpt>
      <trkpt lat="48.87873" lon="2.30075">
        <ele>42</ele>
        <time>2013-09-26T18:36:26Z</time>
      </trkpt>
      <trkpt lat="48.87873" lon="2.30067">
        <ele>43</ele>
        <time>2013-09-26T18:36:29Z</time>
      </trkpt>
      <trkpt lat="48.87872" lon="2.30054">
        <ele>45</ele>
        <time>2013-09-26T18:36:35Z</time>
      </trkpt>
      <trkpt lat="48.8787" lon="2.30038">
        <ele>45</ele>
        <time>2013-09-26T18:36:39Z</time>
      </trkpt>
      <trkpt lat="48.87867" lon="2.3003">
        <ele>45</ele>
        <time>2013-09-26T18:36:42Z</time>
      </trkpt>
      <trkpt lat="48.87858" lon="2.30003">
        <ele>43</ele>
        <time>2013-09-26T18:36:50Z</time>
      </trkpt>
      <trkpt lat="48.87852" lon="2.29995">
        <ele>45</ele>
        <time>2013-09-26T18:36:52Z</time>
      </trkpt>
      <trkpt lat="48.87848" lon="2.29985">
        <ele>45</ele>
        <time>2013-09-26T18:36:54Z</time>
      </trkpt>
      <trkpt lat="48.87846" lon="2.29972">
        <ele>49</ele>
        <time>2013-09-26T18:36:57Z</time>
      </trkpt>
      <trkpt lat="48.87838" lon="2.29945">
        <ele>42</ele>
        <time>2013-09-26T18:37:03Z</time>
      </trkpt>
      <trkpt lat="48.87829" lon="2.2991">
        <ele>43</ele>
        <time>2013-09-26T18:37:10Z</time>
      </trkpt>
      <trkpt lat="48.87825" lon="2.29878">
        <ele>33</ele>
        <time>2013-09-26T18:37:17Z</time>
      </trkpt>
      <trkpt lat="48.8783" lon="2.29874">
        <ele>34</ele>
        <time>2013-09-26T18:37:18Z</time>
      </trkpt>
      <trkpt lat="48.87847" lon="2.29856">
        <ele>37</ele>
        <time>2013-09-26T18:37:22Z</time>
      </trkpt>
      <trkpt lat="48.87851" lon="2.29844">
        <ele>42</ele>
        <time>2013-09-26T18:37:24Z</time>
      </trkpt>
      <trkpt lat="48.87858" lon="2.2983">
        <ele>38</ele>
        <time>2013-09-26T18:37:29Z</time>
      </trkpt>
      <trkpt lat="48.87858" lon="2.29822">
        <ele>40</ele>
        <time>2013-09-26T18:37:31Z</time>
      </trkpt>
      <trkpt lat="48.87857" lon="2.29815">
        <ele>43</ele>
        <time>2013-09-26T18:37:33Z</time>
      </trkpt>
      <trkpt lat="48.8785" lon="2.2979">
        <ele>41</ele>
        <time>2013-09-26T18:37:38Z</time>
      </trkpt>
      <trkpt lat="48.87836" lon="2.29752">
        <ele>38</ele>
        <time>2013-09-26T18:37:48Z</time>
      </trkpt>
      <trkpt lat="48.87825" lon="2.29737">
        <ele>45</ele>
        <time>2013-09-26T18:37:54Z</time>
      </trkpt>
      <trkpt lat="48.87823" lon="2.29735">
        <ele>39</ele>
        <time>2013-09-26T18:37:55Z</time>
      </trkpt>
      <trkpt lat="48.87817" lon="2.2973">
        <ele>41</ele>
        <time>2013-09-26T18:38:00Z</time>
      </trkpt>
      <trkpt lat="48.87813" lon="2.29723">
        <ele>39</ele>
        <time>2013-09-26T18:38:04Z</time>
      </trkpt>
      <trkpt lat="48.87808" lon="2.29713">
        <ele>42</ele>
        <time>2013-09-26T18:38:09Z</time>
      </trkpt>
      <trkpt lat="48.87803" lon="2.29709">
        <ele>47</ele>
        <time>2013-09-26T18:38:18Z</time>
      </trkpt>
      <trkpt lat="48.87798" lon="2.29713">
        <ele>44</ele>
        <time>2013-09-26T18:38:20Z</time>
      </trkpt>
      <trkpt lat="48.87794" lon="2.29719">
        <ele>44</ele>
        <time>2013-09-26T18:38:22Z</time>
      </trkpt>
      <trkpt lat="48.87791" lon="2.29725">
        <ele>42</ele>
        <time>2013-09-26T18:38:24Z</time>
      </trkpt>
      <trkpt lat="48.87781" lon="2.29747">
        <ele>43</ele>
        <time>2013-09-26T18:38:33Z</time>
      </trkpt>
      <trkpt lat="48.87779" lon="2.29754">
        <ele>47</ele>
        <time>2013-09-26T18:38:36Z</time>
      </trkpt>
      <trkpt lat="48.87774" lon="2.29763">
        <ele>48</ele>
        <time>2013-09-26T18:38:42Z</time>
      </trkpt>
      <trkpt lat="48.87768" lon="2.29764">
        <ele>40</ele>
        <time>2013-09-26T18:38:46Z</time>
      </trkpt>
      <trkpt lat="48.87762" lon="2.29761">
        <ele>44</ele>
        <time>2013-09-26T18:38:48Z</time>
      </trkpt>
      <trkpt lat="48.87754" lon="2.29759">
        <ele>47</ele>
        <time>2013-09-26T18:38:51Z</time>
      </trkpt>
      <trkpt lat="48.87744" lon="2.29754">
        <ele>40</ele>
        <time>2013-09-26T18:38:55Z</time>
      </trkpt>
      <trkpt lat="48.87738" lon="2.29748">
        <ele>45</ele>
        <time>2013-09-26T18:38:58Z</time>
      </trkpt>
      <trkpt lat="48.8772" lon="2.29733">
        <ele>43</ele>
        <time>2013-09-26T18:39:11Z</time>
      </trkpt>
      <trkpt lat="48.87714" lon="2.29731">
        <ele>38</ele>
        <time>2013-09-26T18:39:13Z</time>
      </trkpt>
      <trkpt lat="48.87709" lon="2.29728">
        <ele>34</ele>
        <time>2013-09-26T18:39:15Z</time>
      </trkpt>
      <trkpt lat="48.87703" lon="2.29723">
        <ele>40</ele>
        <time>2013-09-26T18:39:17Z</time>
      </trkpt>
      <trkpt lat="48.87697" lon="2.2972">
        <ele>36</ele>
        <time>2013-09-26T18:39:20Z</time>
      </trkpt>
      <trkpt lat="48.87689" lon="2.29715">
        <ele>39</ele>
        <time>2013-09-26T18:39:22Z</time>
      </trkpt>
      <trkpt lat="48.87683" lon="2.29709">
        <ele>43</ele>
        <time>2013-09-26T18:39:24Z</time>
      </trkpt>
      <trkpt lat="48.87679" lon="2.29703">
        <ele>33</ele>
        <time>2013-09-26T18:39:26Z</time>
      </trkpt>
      <trkpt lat="48.87672" lon="2.29689">
        <ele>35</ele>
        <time>2013-09-26T18:39:30Z</time>
      </trkpt>
      <trkpt lat="48.87668" lon="2.29682">
        <ele>31</ele>
        <time>2013-09-26T18:39:32Z</time>
      </trkpt>
      <trkpt lat="48.87663" lon="2.29679">
        <ele>41</ele>
        <time>2013-09-26T18:39:34Z</time>
      </trkpt>
      <trkpt lat="48.8765" lon="2.29674">
        <ele>42</ele>
        <time>2013-09-26T18:39:40Z</time>
      </trkpt>
      <trkpt lat="48.87645" lon="2.29675">
        <ele>39</ele>
        <time>2013-09-26T18:39:43Z</time>
      </trkpt>
      <trkpt lat="48.87639" lon="2.29678">
        <ele>43</ele>
        <time>2013-09-26T18:39:45Z</time>
      </trkpt>
      <trkpt lat="48.87633" lon="2.29677">
        <ele>50</ele>
        <time>2013-09-26T18:39:49Z</time>
      </trkpt>
      <trkpt lat="48.87628" lon="2.29674">
        <ele>52</ele>
        <time>2013-09-26T18:39:52Z</time>
      </trkpt>
      <trkpt lat="48.87622" lon="2.29673">
        <ele>52</ele>
        <time>2013-09-26T18:39:55Z</time>
      </trkpt>
      <trkpt lat="48.87617" lon="2.29668">
        <ele>42</ele>
        <time>2013-09-26T18:39:59Z</time>
      </trkpt>
      <trkpt lat="48.87612" lon="2.2966">
        <ele>49</ele>
        <time>2013-09-26T18:40:03Z</time>
      </trkpt>
      <trkpt lat="48.87608" lon="2.29654">
        <ele>46</ele>
        <time>2013-09-26T18:40:06Z</time>
      </trkpt>
      <trkpt lat="48.87602" lon="2.2965">
        <ele>42</ele>
        <time>2013-09-26T18:40:09Z</time>
      </trkpt>
      <trkpt lat="48.87595" lon="2.29647">
        <ele>31</ele>
        <time>2013-09-26T18:40:14Z</time>
      </trkpt>
      <trkpt lat="48.87587" lon="2.29646">
        <ele>44</ele>
        <time>2013-09-26T18:40:19Z</time>
      </trkpt>
      <trkpt lat="48.87576" lon="2.29645">
        <ele>47</ele>
        <time>2013-09-26T18:40:25Z</time>
      </trkpt>
      <trkpt lat="48.8757" lon="2.29646">
        <ele>47</ele>
        <time>2013-09-26T18:40:30Z</time>
      </trkpt>
      <trkpt lat="48.87564" lon="2.29638">
        <ele>46</ele>
        <time>2013-09-26T18:40:45Z</time>
      </trkpt>
      <trkpt lat="48.87559" lon="2.29636">
        <ele>57</ele>
        <time>2013-09-26T18:40:51Z</time>
      </trkpt>
      <trkpt lat="48.87554" lon="2.29633">
        <ele>54</ele>
        <time>2013-09-26T18:40:55Z</time>
      </trkpt>
      <trkpt lat="48.8755" lon="2.29628">
        <ele>54</ele>
        <time>2013-09-26T18:40:58Z</time>
      </trkpt>
      <trkpt lat="48.87547" lon="2.29621">
        <ele>53</ele>
        <time>2013-09-26T18:41:01Z</time>
      </trkpt>
      <trkpt lat="48.87548" lon="2.29611">
        <ele>52</ele>
        <time>2013-09-26T18:41:04Z</time>
      </trkpt>
      <trkpt lat="48.87553" lon="2.29603">
        <ele>34</ele>
        <time>2013-09-26T18:41:22Z</time>
      </trkpt>
      <trkpt lat="48.87555" lon="2.29601">
        <ele>47</ele>
        <time>2013-09-26T18:41:31Z</time>
      </trkpt>
      <trkpt lat="48.87552" lon="2.29598">
        <ele>53</ele>
        <time>2013-09-26T18:41:43Z</time>
      </trkpt>
      <trkpt lat="48.87547" lon="2.29598">
        <ele>56</ele>
        <time>2013-09-26T18:41:55Z</time>
      </trkpt>
      <trkpt lat="48.87545" lon="2.29598">
        <ele>58</ele>
        <time>2013-09-26T18:41:57Z</time>
      </trkpt>
      <trkpt lat="48.8754" lon="2.29596">
        <ele>56</ele>
        <time>2013-09-26T18:42:05Z</time>
      </trkpt>
      <trkpt lat="48.87534" lon="2.29596">
        <ele>52</ele>
        <time>2013-09-26T18:42:10Z</time>
      </trkpt>
      <trkpt lat="48.87529" lon="2.29596">
        <ele>44</ele>
        <time>2013-09-26T18:42:15Z</time>
      </trkpt>
      <trkpt lat="48.87522" lon="2.29604">
        <ele>48</ele>
        <time>2013-09-26T18:42:25Z</time>
      </trkpt>
      <trkpt lat="48.87515" lon="2.29541">
        <ele>44</ele>
        <time>2013-09-26T18:50:52Z</time>
      </trkpt>
      <trkpt lat="48.87506" lon="2.29591">
        <ele>59</ele>
        <time>2013-09-26T18:54:17Z</time>
      </trkpt>
      <trkpt lat="48.87514" lon="2.29576">
        <ele>59</ele>
        <time>2013-09-26T18:54:19Z</time>
      </trkpt>
      <trkpt lat="48.87515" lon="2.2962">
        <ele>45</ele>
        <time>2013-09-26T18:56:59Z</time>
      </trkpt>
      <trkpt lat="48.87515" lon="2.29609">
        <ele>45</ele>
        <time>2013-09-26T19:00:15Z</time>
      </trkpt>
      <trkpt lat="48.875" lon="2.29538">
        <ele>59</ele>
        <time>2013-09-26T19:20:24Z</time>
      </trkpt>
      <trkpt lat="48.87523" lon="2.29492">
        <ele>59</ele>
        <time>2013-09-26T19:20:45Z</time>
      </trkpt>
      <trkpt lat="48.87505" lon="2.2945">
        <ele>58</ele>
        <time>2013-09-26T19:20:59Z</time>
      </trkpt>
      <trkpt lat="48.875" lon="2.29397">
        <ele>58</ele>
        <time>2013-09-26T19:21:13Z</time>
      </trkpt>
      <trkpt lat="48.87455" lon="2.2936">
        <ele>56</ele>
        <time>2013-09-26T19:22:10Z</time>
      </trkpt>
      <trkpt lat="48.87455" lon="2.29284">
        <ele>56</ele>
        <time>2013-09-26T19:22:31Z</time>
      </trkpt>
      <trkpt lat="48.87438" lon="2.29321">
        <ele>54</ele>
        <time>2013-09-26T19:23:13Z</time>
      </trkpt>
      <trkpt lat="48.87361" lon="2.29319">
        <ele>54</ele>
        <time>2013-09-26T19:23:27Z</time>
      </trkpt>
      <trkpt lat="48.87345" lon="2.29238">
        <ele>53</ele>
        <time>2013-09-26T19:23:34Z</time>
      </trkpt>
      <trkpt lat="48.87346" lon="2.29351">
        <ele>53</ele>
        <time>2013-09-26T19:23:48Z</time>
      </trkpt>
      <trkpt lat="48.87304" lon="2.29348">
        <ele>53</ele>
        <time>2013-09-26T19:24:01Z</time>
      </trkpt>
      <trkpt lat="48.87283" lon="2.29388">
        <ele>52</ele>
        <time>2013-09-26T19:24:16Z</time>
      </trkpt>
      <trkpt lat="48.87255" lon="2.2942">
        <ele>51</ele>
        <time>2013-09-26T19:24:57Z</time>
      </trkpt>
      <trkpt lat="48.87244" lon="2.29488">
        <ele>51</ele>
        <time>2013-09-26T19:25:18Z</time>
      </trkpt>
      <trkpt lat="48.87193" lon="2.29532">
        <ele>51</ele>
        <time>2013-09-26T19:25:25Z</time>
      </trkpt>
      <trkpt lat="48.87244" lon="2.2952">
        <ele>50</ele>
        <time>2013-09-26T19:26:26Z</time>
      </trkpt>
      <trkpt lat="48.87284" lon="2.29557">
        <ele>50</ele>
        <time>2013-09-26T19:26:34Z</time>
      </trkpt>
      <trkpt lat="48.87251" lon="2.29629">
        <ele>50</ele>
        <time>2013-09-26T19:26:40Z</time>
      </trkpt>
      <trkpt lat="48.87301" lon="2.29622">
        <ele>50</ele>
        <time>2013-09-26T19:27:14Z</time>
      </trkpt>
      <trkpt lat="48.87298" lon="2.29734">
        <ele>49</ele>
        <time>2013-09-26T19:27:35Z</time>
      </trkpt>
      <trkpt lat="48.87286" lon="2.29796">
        <ele>49</ele>
        <time>2013-09-26T19:27:48Z</time>
      </trkpt>
      <trkpt lat="48.87264" lon="2.29862">
        <ele>49</ele>
        <time>2013-09-26T19:28:02Z</time>
      </trkpt>
      <trkpt lat="48.87242" lon="2.29959">
        <ele>49</ele>
        <time>2013-09-26T19:28:22Z</time>
      </trkpt>
      <trkpt lat="48.87207" lon="2.30025">
        <ele>49</ele>
        <time>2013-09-26T19:28:36Z</time>
      </trkpt>
      <trkpt lat="48.87167" lon="2.30167">
        <ele>49</ele>
        <time>2013-09-26T19:28:55Z</time>
      </trkpt>
      <trkpt lat="48.87165" lon="2.30121">
        <ele>49</ele>
        <time>2013-09-26T19:29:03Z</time>
      </trkpt>
      <trkpt lat="48.87135" lon="2.30093">
        <ele>49</ele>
        <time>2013-09-26T19:29:23Z</time>
      </trkpt>
      <trkpt lat="48.87073" lon="2.30095">
        <ele>54</ele>
        <time>2013-09-26T19:30:05Z</time>
      </trkpt>
      <trkpt lat="48.87019" lon="2.30123">
        <ele>54</ele>
        <time>2013-09-26T19:30:12Z</time>
      </trkpt>
      <trkpt lat="48.86987" lon="2.30087">
        <ele>53</ele>
        <time>2013-09-26T19:30:39Z</time>
      </trkpt>
      <trkpt lat="48.86941" lon="2.30107">
        <ele>52</ele>
        <time>2013-09-26T19:31:00Z</time>
      </trkpt>
      <trkpt lat="48.86891" lon="2.30117">
        <ele>51</ele>
        <time>2013-09-26T19:31:14Z</time>
      </trkpt>
      <trkpt lat="48.86864" lon="2.30153">
        <ele>51</ele>
        <time>2013-09-26T19:31:21Z</time>
      </trkpt>
      <trkpt lat="48.86859" lon="2.30092">
        <ele>65</ele>
        <time>2013-09-26T19:31:22Z</time>
      </trkpt>
      <trkpt lat="48.8683" lon="2.30101">
        <ele>46</ele>
        <time>2013-09-26T19:31:29Z</time>
      </trkpt>
      <trkpt lat="48.86824" lon="2.30104">
        <ele>25</ele>
        <time>2013-09-26T19:32:10Z</time>
      </trkpt>
      <trkpt lat="48.86817" lon="2.30104">
        <ele>37</ele>
        <time>2013-09-26T19:32:15Z</time>
      </trkpt>
      <trkpt lat="48.86809" lon="2.30102">
        <ele>43</ele>
        <time>2013-09-26T19:32:19Z</time>
      </trkpt>
      <trkpt lat="48.86803" lon="2.30098">
        <ele>43</ele>
        <time>2013-09-26T19:32:21Z</time>
      </trkpt>
      <trkpt lat="48.86795" lon="2.30099">
        <ele>42</ele>
        <time>2013-09-26T19:32:24Z</time>
      </trkpt>
      <trkpt lat="48.86788" lon="2.30102">
        <ele>35</ele>
        <time>2013-09-26T19:32:26Z</time>
      </trkpt>
      <trkpt lat="48.8677" lon="2.30108">
        <ele>34</ele>
        <time>2013-09-26T19:32:31Z</time>
      </trkpt>
      <trkpt lat="48.86729" lon="2.30118">
        <ele>43</ele>
        <time>2013-09-26T19:32:44Z</time>
      </trkpt>
      <trkpt lat="48.86714" lon="2.3012">
        <ele>43</ele>
        <time>2013-09-26T19:32:48Z</time>
      </trkpt>
      <trkpt lat="48.86704" lon="2.30119">
        <ele>42</ele>
        <time>2013-09-26T19:32:50Z</time>
      </trkpt>
      <trkpt lat="48.86697" lon="2.30115">
        <ele>39</ele>
        <time>2013-09-26T19:32:52Z</time>
      </trkpt>
      <trkpt lat="48.86684" lon="2.3011">
        <ele>32</ele>
        <time>2013-09-26T19:32:56Z</time>
      </trkpt>
      <trkpt lat="48.86679" lon="2.30112">
        <ele>36</ele>
        <time>2013-09-26T19:32:58Z</time>
      </trkpt>
      <trkpt lat="48.86676" lon="2.30118">
        <ele>31</ele>
        <time>2013-09-26T19:33:00Z</time>
      </trkpt>
      <trkpt lat="48.86667" lon="2.30124">
        <ele>36</ele>
        <time>2013-09-26T19:33:11Z</time>
      </trkpt>
      <trkpt lat="48.86665" lon="2.30132">
        <ele>42</ele>
        <time>2013-09-26T19:33:19Z</time>
      </trkpt>
      <trkpt lat="48.86664" lon="2.30142">
        <ele>40</ele>
        <time>2013-09-26T19:33:25Z</time>
      </trkpt>
      <trkpt lat="48.86664" lon="2.3015">
        <ele>52</ele>
        <time>2013-09-26T19:33:56Z</time>
      </trkpt>
      <trkpt lat="48.8667" lon="2.3015">
        <ele>51</ele>
        <time>2013-09-26T19:33:58Z</time>
      </trkpt>
      <trkpt lat="48.86658" lon="2.30158">
        <ele>41</ele>
        <time>2013-09-26T19:34:07Z</time>
      </trkpt>
      <trkpt lat="48.86647" lon="2.30159">
        <ele>38</ele>
        <time>2013-09-26T19:34:10Z</time>
      </trkpt>
      <trkpt lat="48.86635" lon="2.30156">
        <ele>35</ele>
        <time>2013-09-26T19:34:13Z</time>
      </trkpt>
      <trkpt lat="48.86629" lon="2.30155">
        <ele>36</ele>
        <time>2013-09-26T19:34:15Z</time>
      </trkpt>
      <trkpt lat="48.86624" lon="2.30156">
        <ele>42</ele>
        <time>2013-09-26T19:34:17Z</time>
      </trkpt>
      <trkpt lat="48.86617" lon="2.30155">
        <ele>39</ele>
        <time>2013-09-26T19:34:20Z</time>
      </trkpt>
      <trkpt lat="48.86611" lon="2.30152">
        <ele>42</ele>
        <time>2013-09-26T19:34:23Z</time>
      </trkpt>
      <trkpt lat="48.86606" lon="2.3015">
        <ele>41</ele>
        <time>2013-09-26T19:34:26Z</time>
      </trkpt>
      <trkpt lat="48.86591" lon="2.30149">
        <ele>44</ele>
        <time>2013-09-26T19:34:32Z</time>
      </trkpt>
      <trkpt lat="48.86572" lon="2.30148">
        <ele>42</ele>
        <time>2013-09-26T19:34:38Z</time>
      </trkpt>
      <trkpt lat="48.86566" lon="2.30144">
        <ele>43</ele>
        <time>2013-09-26T19:34:40Z</time>
      </trkpt>
      <trkpt lat="48.86559" lon="2.30148">
        <ele>42</ele>
        <time>2013-09-26T19:34:43Z</time>
      </trkpt>
      <trkpt lat="48.86551" lon="2.30145">
        <ele>42</ele>
        <time>2013-09-26T19:34:46Z</time>
      </trkpt>
      <trkpt lat="48.86545" lon="2.30145">
        <ele>39</ele>
        <time>2013-09-26T19:34:48Z</time>
      </trkpt>
      <trkpt lat="48.86526" lon="2.30143">
        <ele>42</ele>
        <time>2013-09-26T19:34:55Z</time>
      </trkpt>
      <trkpt lat="48.86522" lon="2.30136">
        <ele>43</ele>
        <time>2013-09-26T19:34:59Z</time>
      </trkpt>
      <trkpt lat="48.86519" lon="2.30127">
        <ele>43</ele>
        <time>2013-09-26T19:35:01Z</time>
      </trkpt>
      <trkpt lat="48.86514" lon="2.3012">
        <ele>42</ele>
        <time>2013-09-26T19:35:03Z</time>
      </trkpt>
      <trkpt lat="48.86505" lon="2.30118">
        <ele>37</ele>
        <time>2013-09-26T19:35:06Z</time>
      </trkpt>
      <trkpt lat="48.86499" lon="2.3012">
        <ele>34</ele>
        <time>2013-09-26T19:35:09Z</time>
      </trkpt>
      <trkpt lat="48.86493" lon="2.30125">
        <ele>49</ele>
        <time>2013-09-26T19:35:12Z</time>
      </trkpt>
      <trkpt lat="48.86478" lon="2.30133">
        <ele>44</ele>
        <time>2013-09-26T19:35:22Z</time>
      </trkpt>
      <trkpt lat="48.86475" lon="2.30126">
        <ele>42</ele>
        <time>2013-09-26T19:35:28Z</time>
      </trkpt>
      <trkpt lat="48.86471" lon="2.30117">
        <ele>19</ele>
        <time>2013-09-26T19:36:04Z</time>
      </trkpt>
      <trkpt lat="48.86463" lon="2.30113">
        <ele>41</ele>
        <time>2013-09-26T19:36:17Z</time>
      </trkpt>
      <trkpt lat="48.86458" lon="2.3011">
        <ele>41</ele>
        <time>2013-09-26T19:36:19Z</time>
      </trkpt>
      <trkpt lat="48.86441" lon="2.30098">
        <ele>27</ele>
        <time>2013-09-26T19:36:27Z</time>
      </trkpt>
      <trkpt lat="48.86435" lon="2.30098">
        <ele>29</ele>
        <time>2013-09-26T19:36:42Z</time>
      </trkpt>
      <trkpt lat="48.8643" lon="2.30102">
        <ele>29</ele>
        <time>2013-09-26T19:36:44Z</time>
      </trkpt>
      <trkpt lat="48.86425" lon="2.30109">
        <ele>36</ele>
        <time>2013-09-26T19:36:46Z</time>
      </trkpt>
      <trkpt lat="48.86421" lon="2.30117">
        <ele>37</ele>
        <time>2013-09-26T19:36:50Z</time>
      </trkpt>
      <trkpt lat="48.86419" lon="2.30125">
        <ele>32</ele>
        <time>2013-09-26T19:36:54Z</time>
      </trkpt>
      <trkpt lat="48.86418" lon="2.30132">
        <ele>19</ele>
        <time>2013-09-26T19:37:00Z</time>
      </trkpt>
      <trkpt lat="48.86417" lon="2.30133">
        <ele>30</ele>
        <time>2013-09-26T19:37:06Z</time>
      </trkpt>
      <trkpt lat="48.86413" lon="2.3014">
        <ele>30</ele>
        <time>2013-09-26T19:37:30Z</time>
      </trkpt>
      <trkpt lat="48.86407" lon="2.30144">
        <ele>29</ele>
        <time>2013-09-26T19:37:34Z</time>
      </trkpt>
      <trkpt lat="48.86401" lon="2.30146">
        <ele>31</ele>
        <time>2013-09-26T19:37:37Z</time>
      </trkpt>
      <trkpt lat="48.864" lon="2.30147">
        <ele>32</ele>
        <time>2013-09-26T19:37:38Z</time>
      </trkpt>
      <trkpt lat="48.86396" lon="2.30147">
        <ele>30</ele>
        <time>2013-09-26T19:37:42Z</time>
      </trkpt>
      <trkpt lat="48.86391" lon="2.30145">
        <ele>28</ele>
        <time>2013-09-26T19:37:45Z</time>
      </trkpt>
      <trkpt lat="48.86388" lon="2.30146">
        <ele>29</ele>
        <time>2013-09-26T19:37:47Z</time>
      </trkpt>
      <trkpt lat="48.86385" lon="2.30147">
        <ele>30</ele>
        <time>2013-09-26T19:37:49Z</time>
      </trkpt>
      <trkpt lat="48.8638" lon="2.30148">
        <ele>32</ele>
        <time>2013-09-26T19:37:53Z</time>
      </trkpt>
      <trkpt lat="48.86353" lon="2.30151">
        <ele>33</ele>
        <time>2013-09-26T19:38:07Z</time>
      </trkpt>
      <trkpt lat="48.86346" lon="2.30151">
        <ele>36</ele>
        <time>2013-09-26T19:38:10Z</time>
      </trkpt>
      <trkpt lat="48.86308" lon="2.30152">
        <ele>30</ele>
        <time>2013-09-26T19:38:28Z</time>
      </trkpt>
      <trkpt lat="48.86306" lon="2.30151">
        <ele>29</ele>
        <time>2013-09-26T19:38:29Z</time>
      </trkpt>
      <trkpt lat="48.86301" lon="2.30151">
        <ele>29</ele>
        <time>2013-09-26T19:38:31Z</time>
      </trkpt>
      <trkpt lat="48.86298" lon="2.30153">
        <ele>27</ele>
        <time>2013-09-26T19:38:32Z</time>
      </trkpt>
      <trkpt lat="48.86287" lon="2.30159">
        <ele>23</ele>
        <time>2013-09-26T19:38:36Z</time>
      </trkpt>
      <trkpt lat="48.86281" lon="2.3016">
        <ele>22</ele>
        <time>2013-09-26T19:38:38Z</time>
      </trkpt>
      <trkpt lat="48.86276" lon="2.30159">
        <ele>22</ele>
        <time>2013-09-26T19:38:40Z</time>
      </trkpt>
      <trkpt lat="48.86268" lon="2.30156">
        <ele>28</ele>
        <time>2013-09-26T19:38:43Z</time>
      </trkpt>
      <trkpt lat="48.86263" lon="2.30151">
        <ele>24</ele>
        <time>2013-09-26T19:38:45Z</time>
      </trkpt>
      <trkpt lat="48.86258" lon="2.30151">
        <ele>31</ele>
        <time>2013-09-26T19:38:47Z</time>
      </trkpt>
      <trkpt lat="48.86253" lon="2.30151">
        <ele>32</ele>
        <time>2013-09-26T19:38:49Z</time>
      </trkpt>
      <trkpt lat="48.86248" lon="2.30148">
        <ele>35</ele>
        <time>2013-09-26T19:38:54Z</time>
      </trkpt>
      <trkpt lat="48.86247" lon="2.30147">
        <ele>41</ele>
        <time>2013-09-26T19:38:59Z</time>
      </trkpt>
      <trkpt lat="48.86246" lon="2.30143">
        <ele>38</ele>
        <time>2013-09-26T19:39:08Z</time>
      </trkpt>
      <trkpt lat="48.86242" lon="2.30138">
        <ele>36</ele>
        <time>2013-09-26T19:39:11Z</time>
      </trkpt>
      <trkpt lat="48.86236" lon="2.30133">
        <ele>30</ele>
        <time>2013-09-26T19:39:14Z</time>
      </trkpt>
      <trkpt lat="48.86231" lon="2.3013">
        <ele>30</ele>
        <time>2013-09-26T19:39:16Z</time>
      </trkpt>
      <trkpt lat="48.86224" lon="2.3013">
        <ele>26</ele>
        <time>2013-09-26T19:39:18Z</time>
      </trkpt>
      <trkpt lat="48.86217" lon="2.30128">
        <ele>24</ele>
        <time>2013-09-26T19:39:20Z</time>
      </trkpt>
      <trkpt lat="48.86212" lon="2.30125">
        <ele>23</ele>
        <time>2013-09-26T19:39:22Z</time>
      </trkpt>
      <trkpt lat="48.86205" lon="2.30121">
        <ele>23</ele>
        <time>2013-09-26T19:39:25Z</time>
      </trkpt>
      <trkpt lat="48.86199" lon="2.30121">
        <ele>19</ele>
        <time>2013-09-26T19:39:28Z</time>
      </trkpt>
      <trkpt lat="48.86192" lon="2.30123">
        <ele>20</ele>
        <time>2013-09-26T19:39:31Z</time>
      </trkpt>
      <trkpt lat="48.86189" lon="2.3013">
        <ele>25</ele>
        <time>2013-09-26T19:39:35Z</time>
      </trkpt>
      <trkpt lat="48.86186" lon="2.30139">
        <ele>31</ele>
        <time>2013-09-26T19:39:49Z</time>
      </trkpt>
      <trkpt lat="48.86185" lon="2.30148">
        <ele>33</ele>
        <time>2013-09-26T19:39:55Z</time>
      </trkpt>
      <trkpt lat="48.86186" lon="2.30158">
        <ele>25</ele>
        <time>2013-09-26T19:40:01Z</time>
      </trkpt>
      <trkpt lat="48.86182" lon="2.30181">
        <ele>30</ele>
        <time>2013-09-26T19:40:16Z</time>
      </trkpt>
      <trkpt lat="48.86178" lon="2.30186">
        <ele>29</ele>
        <time>2013-09-26T19:40:19Z</time>
      </trkpt>
      <trkpt lat="48.86174" lon="2.30193">
        <ele>26</ele>
        <time>2013-09-26T19:40:23Z</time>
      </trkpt>
      <trkpt lat="48.86169" lon="2.30194">
        <ele>25</ele>
        <time>2013-09-26T19:40:26Z</time>
      </trkpt>
      <trkpt lat="48.86163" lon="2.30201">
        <ele>24</ele>
        <time>2013-09-26T19:40:29Z</time>
      </trkpt>
      <trkpt lat="48.86151" lon="2.30211">
        <ele>19</ele>
        <time>2013-09-26T19:40:34Z</time>
      </trkpt>
      <trkpt lat="48.86138" lon="2.3022">
        <ele>11</ele>
        <time>2013-09-26T19:40:40Z</time>
      </trkpt>
      <trkpt lat="48.86131" lon="2.30222">
        <ele>12</ele>
        <time>2013-09-26T19:40:43Z</time>
      </trkpt>
      <trkpt lat="48.86124" lon="2.30227">
        <ele>20</ele>
        <time>2013-09-26T19:40:46Z</time>
      </trkpt>
      <trkpt lat="48.8612" lon="2.30231">
        <ele>18</ele>
        <time>2013-09-26T19:40:48Z</time>
      </trkpt>
      <trkpt lat="48.86112" lon="2.30239">
        <ele>17</ele>
        <time>2013-09-26T19:40:52Z</time>
      </trkpt>
      <trkpt lat="48.86095" lon="2.30252">
        <ele>17</ele>
        <time>2013-09-26T19:40:59Z</time>
      </trkpt>
      <trkpt lat="48.86089" lon="2.30253">
        <ele>20</ele>
        <time>2013-09-26T19:41:01Z</time>
      </trkpt>
      <trkpt lat="48.86005" lon="2.30288">
        <ele>43</ele>
        <time>2013-09-26T19:41:26Z</time>
      </trkpt>
      <trkpt lat="48.86" lon="2.30296">
        <ele>43</ele>
        <time>2013-09-26T19:41:28Z</time>
      </trkpt>
      <trkpt lat="48.85985" lon="2.30307">
        <ele>42</ele>
        <time>2013-09-26T19:41:33Z</time>
      </trkpt>
      <trkpt lat="48.85981" lon="2.30309">
        <ele>44</ele>
        <time>2013-09-26T19:41:35Z</time>
      </trkpt>
      <trkpt lat="48.85975" lon="2.3031">
        <ele>45</ele>
        <time>2013-09-26T19:41:40Z</time>
      </trkpt>
      <trkpt lat="48.85968" lon="2.30308">
        <ele>43</ele>
        <time>2013-09-26T19:41:42Z</time>
      </trkpt>
      <trkpt lat="48.85956" lon="2.30307">
        <ele>44</ele>
        <time>2013-09-26T19:41:45Z</time>
      </trkpt>
      <trkpt lat="48.8595" lon="2.30308">
        <ele>44</ele>
        <time>2013-09-26T19:41:47Z</time>
      </trkpt>
      <trkpt lat="48.85929" lon="2.30313">
        <ele>40</ele>
        <time>2013-09-26T19:41:53Z</time>
      </trkpt>
      <trkpt lat="48.85921" lon="2.30313">
        <ele>38</ele>
        <time>2013-09-26T19:41:55Z</time>
      </trkpt>
      <trkpt lat="48.85912" lon="2.30315">
        <ele>41</ele>
        <time>2013-09-26T19:41:58Z</time>
      </trkpt>
      <trkpt lat="48.85907" lon="2.30316">
        <ele>39</ele>
        <time>2013-09-26T19:42:00Z</time>
      </trkpt>
      <trkpt lat="48.859" lon="2.30317">
        <ele>43</ele>
        <time>2013-09-26T19:42:03Z</time>
      </trkpt>
      <trkpt lat="48.85892" lon="2.30319">
        <ele>45</ele>
        <time>2013-09-26T19:42:07Z</time>
      </trkpt>
      <trkpt lat="48.85887" lon="2.30317">
        <ele>44</ele>
        <time>2013-09-26T19:42:11Z</time>
      </trkpt>
      <trkpt lat="48.85881" lon="2.30319">
        <ele>40</ele>
        <time>2013-09-26T19:42:15Z</time>
      </trkpt>
      <trkpt lat="48.85876" lon="2.30322">
        <ele>38</ele>
        <time>2013-09-26T19:42:18Z</time>
      </trkpt>
      <trkpt lat="48.85872" lon="2.3033">
        <ele>34</ele>
        <time>2013-09-26T19:42:21Z</time>
      </trkpt>
      <trkpt lat="48.8587" lon="2.30338">
        <ele>34</ele>
        <time>2013-09-26T19:42:23Z</time>
      </trkpt>
      <trkpt lat="48.85865" lon="2.30344">
        <ele>31</ele>
        <time>2013-09-26T19:42:26Z</time>
      </trkpt>
      <trkpt lat="48.8586" lon="2.30347">
        <ele>28</ele>
        <time>2013-09-26T19:42:28Z</time>
      </trkpt>
      <trkpt lat="48.85853" lon="2.30348">
        <ele>27</ele>
        <time>2013-09-26T19:42:30Z</time>
      </trkpt>
      <trkpt lat="48.85834" lon="2.30355">
        <ele>25</ele>
        <time>2013-09-26T19:42:37Z</time>
      </trkpt>
      <trkpt lat="48.85827" lon="2.30359">
        <ele>28</ele>
        <time>2013-09-26T19:42:40Z</time>
      </trkpt>
      <trkpt lat="48.85808" lon="2.3037">
        <ele>26</ele>
        <time>2013-09-26T19:42:47Z</time>
      </trkpt>
      <trkpt lat="48.85801" lon="2.30376">
        <ele>21</ele>
        <time>2013-09-26T19:42:49Z</time>
      </trkpt>
      <trkpt lat="48.85785" lon="2.30389">
        <ele>41</ele>
        <time>2013-09-26T19:42:55Z</time>
      </trkpt>
      <trkpt lat="48.8578" lon="2.3039">
        <ele>38</ele>
        <time>2013-09-26T19:42:56Z</time>
      </trkpt>
      <trkpt lat="48.85771" lon="2.30395">
        <ele>38</ele>
        <time>2013-09-26T19:42:58Z</time>
      </trkpt>
      <trkpt lat="48.85763" lon="2.30396">
        <ele>40</ele>
        <time>2013-09-26T19:43:00Z</time>
      </trkpt>
      <trkpt lat="48.85754" lon="2.30396">
        <ele>43</ele>
        <time>2013-09-26T19:43:03Z</time>
      </trkpt>
      <trkpt lat="48.85747" lon="2.30394">
        <ele>41</ele>
        <time>2013-09-26T19:43:05Z</time>
      </trkpt>
      <trkpt lat="48.85741" lon="2.30393">
        <ele>45</ele>
        <time>2013-09-26T19:43:07Z</time>
      </trkpt>
      <trkpt lat="48.85735" lon="2.30394">
        <ele>46</ele>
        <time>2013-09-26T19:43:09Z</time>
      </trkpt>
      <trkpt lat="48.85729" lon="2.30398">
        <ele>44</ele>
        <time>2013-09-26T19:43:11Z</time>
      </trkpt>
      <trkpt lat="48.85721" lon="2.30397">
        <ele>41</ele>
        <time>2013-09-26T19:43:13Z</time>
      </trkpt>
      <trkpt lat="48.85715" lon="2.30397">
        <ele>40</ele>
        <time>2013-09-26T19:43:15Z</time>
      </trkpt>
      <trkpt lat="48.8571" lon="2.30396">
        <ele>40</ele>
        <time>2013-09-26T19:43:17Z</time>
      </trkpt>
      <trkpt lat="48.85704" lon="2.30397">
        <ele>43</ele>
        <time>2013-09-26T19:43:20Z</time>
      </trkpt>
      <trkpt lat="48.85701" lon="2.30405">
        <ele>40</ele>
        <time>2013-09-26T19:43:23Z</time>
      </trkpt>
      <trkpt lat="48.85701" lon="2.30413">
        <ele>36</ele>
        <time>2013-09-26T19:43:26Z</time>
      </trkpt>
      <trkpt lat="48.85702" lon="2.30442">
        <ele>47</ele>
        <time>2013-09-26T19:43:34Z</time>
      </trkpt>
      <trkpt lat="48.85702" lon="2.3045">
        <ele>46</ele>
        <time>2013-09-26T19:43:36Z</time>
      </trkpt>
      <trkpt lat="48.85702" lon="2.30439">
        <ele>39</ele>
        <time>2013-09-26T19:43:39Z</time>
      </trkpt>
      <trkpt lat="48.85698" lon="2.30434">
        <ele>31</ele>
        <time>2013-09-26T19:43:43Z</time>
      </trkpt>
      <trkpt lat="48.85692" lon="2.30436">
        <ele>36</ele>
        <time>2013-09-26T19:43:47Z</time>
      </trkpt>
      <trkpt lat="48.85685" lon="2.30433">
        <ele>39</ele>
        <time>2013-09-26T19:43:50Z</time>
      </trkpt>
      <trkpt lat="48.85679" lon="2.30433">
        <ele>25</ele>
        <time>2013-09-26T19:43:54Z</time>
      </trkpt>
      <trkpt lat="48.85671" lon="2.30434">
        <ele>22</ele>
        <time>2013-09-26T19:44:00Z</time>
      </trkpt>
      <trkpt lat="48.85665" lon="2.30437">
        <ele>14</ele>
        <time>2013-09-26T19:44:04Z</time>
      </trkpt>
      <trkpt lat="48.85659" lon="2.30441">
        <ele>14</ele>
        <time>2013-09-26T19:44:10Z</time>
      </trkpt>
      <trkpt lat="48.85642" lon="2.30451">
        <ele>28</ele>
        <time>2013-09-26T19:44:21Z</time>
      </trkpt>
      <trkpt lat="48.85634" lon="2.30454">
        <ele>26</ele>
        <time>2013-09-26T19:44:27Z</time>
      </trkpt>
      <trkpt lat="48.85623" lon="2.30457">
        <ele>24</ele>
        <time>2013-09-26T19:44:32Z</time>
      </trkpt>
      <trkpt lat="48.8562" lon="2.30464">
        <ele>36</ele>
        <time>2013-09-26T19:44:35Z</time>
      </trkpt>
      <trkpt lat="48.85614" lon="2.30468">
        <ele>31</ele>
        <time>2013-09-26T19:44:39Z</time>
      </trkpt>
      <trkpt lat="48.85608" lon="2.30469">
        <ele>33</ele>
        <time>2013-09-26T19:44:43Z</time>
      </trkpt>
      <trkpt lat="48.85603" lon="2.30466">
        <ele>25</ele>
        <time>2013-09-26T19:44:46Z</time>
      </trkpt>
      <trkpt lat="48.85598" lon="2.30468">
        <ele>28</ele>
        <time>2013-09-26T19:44:50Z</time>
      </trkpt>
      <trkpt lat="48.8559" lon="2.30471">
        <ele>38</ele>
        <time>2013-09-26T19:44:54Z</time>
      </trkpt>
      <trkpt lat="48.85577" lon="2.30475">
        <ele>43</ele>
        <time>2013-09-26T19:45:00Z</time>
      </trkpt>
      <trkpt lat="48.85538" lon="2.30488">
        <ele>21</ele>
        <time>2013-09-26T19:45:20Z</time>
      </trkpt>
      <trkpt lat="48.85533" lon="2.30491">
        <ele>20</ele>
        <time>2013-09-26T19:45:24Z</time>
      </trkpt>
      <trkpt lat="48.85526" lon="2.30496">
        <ele>16</ele>
        <time>2013-09-26T19:45:28Z</time>
      </trkpt>
      <trkpt lat="48.85517" lon="2.30503">
        <ele>11</ele>
        <time>2013-09-26T19:45:33Z</time>
      </trkpt>
      <trkpt lat="48.8551" lon="2.30504">
        <ele>15</ele>
        <time>2013-09-26T19:45:35Z</time>
      </trkpt>
      <trkpt lat="48.85504" lon="2.30503">
        <ele>16</ele>
        <time>2013-09-26T19:45:37Z</time>
      </trkpt>
      <trkpt lat="48.85495" lon="2.30503">
        <ele>14</ele>
        <time>2013-09-26T19:45:40Z</time>
      </trkpt>
      <trkpt lat="48.8549" lon="2.30505">
        <ele>13</ele>
        <time>2013-09-26T19:45:43Z</time>
      </trkpt>
      <trkpt lat="48.85481" lon="2.30509">
        <ele>16</ele>
        <time>2013-09-26T19:45:47Z</time>
      </trkpt>
      <trkpt lat="48.85467" lon="2.30519">
        <ele>28</ele>
        <time>2013-09-26T19:45:54Z</time>
      </trkpt>
      <trkpt lat="48.85463" lon="2.30522">
        <ele>21</ele>
        <time>2013-09-26T19:45:57Z</time>
      </trkpt>
      <trkpt lat="48.85458" lon="2.30521">
        <ele>40</ele>
        <time>2013-09-26T19:46:07Z</time>
      </trkpt>
      <trkpt lat="48.85453" lon="2.30517">
        <ele>41</ele>
        <time>2013-09-26T19:46:12Z</time>
      </trkpt>
      <trkpt lat="48.8545" lon="2.30511">
        <ele>47</ele>
        <time>2013-09-26T19:46:22Z</time>
      </trkpt>
      <trkpt lat="48.85444" lon="2.30507">
        <ele>36</ele>
        <time>2013-09-26T19:46:31Z</time>
      </trkpt>
      <trkpt lat="48.85438" lon="2.30508">
        <ele>31</ele>
        <time>2013-09-26T19:46:34Z</time>
      </trkpt>
      <trkpt lat="48.85434" lon="2.30514">
        <ele>33</ele>
        <time>2013-09-26T19:46:39Z</time>
      </trkpt>
      <trkpt lat="48.85428" lon="2.30518">
        <ele>33</ele>
        <time>2013-09-26T19:46:56Z</time>
      </trkpt>
      <trkpt lat="48.85423" lon="2.30519">
        <ele>37</ele>
        <time>2013-09-26T19:47:00Z</time>
      </trkpt>
      <trkpt lat="48.85416" lon="2.30519">
        <ele>32</ele>
        <time>2013-09-26T19:47:04Z</time>
      </trkpt>
      <trkpt lat="48.85412" lon="2.30525">
        <ele>27</ele>
        <time>2013-09-26T19:47:08Z</time>
      </trkpt>
      <trkpt lat="48.85409" lon="2.30535">
        <ele>28</ele>
        <time>2013-09-26T19:47:12Z</time>
      </trkpt>
      <trkpt lat="48.85406" lon="2.30541">
        <ele>25</ele>
        <time>2013-09-26T19:47:16Z</time>
      </trkpt>
      <trkpt lat="48.85409" lon="2.30549">
        <ele>30</ele>
        <time>2013-09-26T19:47:19Z</time>
      </trkpt>
      <trkpt lat="48.85414" lon="2.30554">
        <ele>31</ele>
        <time>2013-09-26T19:47:22Z</time>
      </trkpt>
      <trkpt lat="48.85416" lon="2.30565">
        <ele>32</ele>
        <time>2013-09-26T19:47:26Z</time>
      </trkpt>
      <trkpt lat="48.85414" lon="2.30571">
        <ele>27</ele>
        <time>2013-09-26T19:47:28Z</time>
      </trkpt>
      <trkpt lat="48.85411" lon="2.3058">
        <ele>25</ele>
        <time>2013-09-26T19:47:31Z</time>
      </trkpt>
      <trkpt lat="48.85409" lon="2.30587">
        <ele>26</ele>
        <time>2013-09-26T19:47:33Z</time>
      </trkpt>
      <trkpt lat="48.85408" lon="2.30596">
        <ele>24</ele>
        <time>2013-09-26T19:47:36Z</time>
      </trkpt>
      <trkpt lat="48.85403" lon="2.30612">
        <ele>35</ele>
        <time>2013-09-26T19:47:41Z</time>
      </trkpt>
      <trkpt lat="48.854" lon="2.30618">
        <ele>37</ele>
        <time>2013-09-26T19:47:43Z</time>
      </trkpt>
      <trkpt lat="48.85386" lon="2.3064">
        <ele>33</ele>
        <time>2013-09-26T19:47:51Z</time>
      </trkpt>
      <trkpt lat="48.8526" lon="2.30854">
        <ele>46</ele>
        <time>2013-09-26T19:48:37Z</time>
      </trkpt>
      <trkpt lat="48.85248" lon="2.30866">
        <ele>37.2</ele>
        <time>2013-09-26T19:48:38Z</time>
      </trkpt>
      <trkpt lat="48.85236" lon="2.3086">
        <ele>8</ele>
        <time>2013-09-26T19:48:41Z</time>
      </trkpt>
      <trkpt lat="48.85242" lon="2.3086">
        <ele>41</ele>
        <time>2013-09-26T19:48:52Z</time>
      </trkpt>
      <trkpt lat="48.8512" lon="2.31126">
        <ele>36</ele>
        <time>2013-09-26T19:49:38Z</time>
      </trkpt>
      <trkpt lat="48.85106" lon="2.31099">
        <ele>37.9</ele>
        <time>2013-09-26T19:49:43Z</time>
      </trkpt>
      <trkpt lat="48.85109" lon="2.31072">
        <ele>4</ele>
        <time>2013-09-26T19:49:46Z</time>
      </trkpt>
      <trkpt lat="48.85115" lon="2.31056">
        <ele>22</ele>
        <time>2013-09-26T19:49:50Z</time>
      </trkpt>
      <trkpt lat="48.85119" lon="2.31047">
        <ele>22</ele>
        <time>2013-09-26T19:49:51Z</time>
      </trkpt>
      <trkpt lat="48.85122" lon="2.3104">
        <ele>31</ele>
        <time>2013-09-26T19:49:53Z</time>
      </trkpt>
      <trkpt lat="48.85134" lon="2.31016">
        <ele>41</ele>
        <time>2013-09-26T19:50:00Z</time>
      </trkpt>
      <trkpt lat="48.85127" lon="2.31028">
        <ele>45</ele>
        <time>2013-09-26T19:50:10Z</time>
      </trkpt>
      <trkpt lat="48.85118" lon="2.31051">
        <ele>43</ele>
        <time>2013-09-26T19:50:19Z</time>
      </trkpt>
      <trkpt lat="48.85113" lon="2.31059">
        <ele>44</ele>
        <time>2013-09-26T19:50:22Z</time>
      </trkpt>
      <trkpt lat="48.851" lon="2.31084">
        <ele>46</ele>
        <time>2013-09-26T19:50:30Z</time>
      </trkpt>
      <trkpt lat="48.85094" lon="2.31093">
        <ele>44</ele>
        <time>2013-09-26T19:50:33Z</time>
      </trkpt>
      <trkpt lat="48.85088" lon="2.31099">
        <ele>44</ele>
        <time>2013-09-26T19:50:35Z</time>
      </trkpt>
      <trkpt lat="48.8508" lon="2.31109">
        <ele>42</ele>
        <time>2013-09-26T19:50:38Z</time>
      </trkpt>
      <trkpt lat="48.85076" lon="2.31118">
        <ele>44</ele>
        <time>2013-09-26T19:50:40Z</time>
      </trkpt>
      <trkpt lat="48.85073" lon="2.31128">
        <ele>43</ele>
        <time>2013-09-26T19:50:42Z</time>
      </trkpt>
      <trkpt lat="48.85069" lon="2.31137">
        <ele>44</ele>
        <time>2013-09-26T19:50:44Z</time>
      </trkpt>
      <trkpt lat="48.85057" lon="2.31159">
        <ele>37</ele>
        <time>2013-09-26T19:50:52Z</time>
      </trkpt>
      <trkpt lat="48.85052" lon="2.31157">
        <ele>35</ele>
        <time>2013-09-26T19:50:58Z</time>
      </trkpt>
      <trkpt lat="48.85047" lon="2.31159">
        <ele>33</ele>
        <time>2013-09-26T19:51:00Z</time>
      </trkpt>
      <trkpt lat="48.85036" lon="2.31165">
        <ele>33</ele>
        <time>2013-09-26T19:51:03Z</time>
      </trkpt>
      <trkpt lat="48.85014" lon="2.31173">
        <ele>27</ele>
        <time>2013-09-26T19:51:08Z</time>
      </trkpt>
      <trkpt lat="48.85008" lon="2.31172">
        <ele>26</ele>
        <time>2013-09-26T19:51:09Z</time>
      </trkpt>
      <trkpt lat="48.85002" lon="2.31169">
        <ele>25</ele>
        <time>2013-09-26T19:51:10Z</time>
      </trkpt>
      <trkpt lat="48.84979" lon="2.31158">
        <ele>28</ele>
        <time>2013-09-26T19:51:14Z</time>
      </trkpt>
      <trkpt lat="48.84973" lon="2.31158">
        <ele>25</ele>
        <time>2013-09-26T19:51:15Z</time>
      </trkpt>
      <trkpt lat="48.84965" lon="2.31157">
        <ele>24</ele>
        <time>2013-09-26T19:51:16Z</time>
      </trkpt>
      <trkpt lat="48.84959" lon="2.31154">
        <ele>25</ele>
        <time>2013-09-26T19:51:17Z</time>
      </trkpt>
      <trkpt lat="48.84952" lon="2.31152">
        <ele>28</ele>
        <time>2013-09-26T19:51:18Z</time>
      </trkpt>
      <trkpt lat="48.84939" lon="2.31147">
        <ele>21</ele>
        <time>2013-09-26T19:51:20Z</time>
      </trkpt>
      <trkpt lat="48.84926" lon="2.31139">
        <ele>24</ele>
        <time>2013-09-26T19:51:22Z</time>
      </trkpt>
      <trkpt lat="48.84904" lon="2.31128">
        <ele>27</ele>
        <time>2013-09-26T19:51:26Z</time>
      </trkpt>
      <trkpt lat="48.84899" lon="2.31126">
        <ele>21</ele>
        <time>2013-09-26T19:51:27Z</time>
      </trkpt>
      <trkpt lat="48.84889" lon="2.31126">
        <ele>19</ele>
        <time>2013-09-26T19:51:29Z</time>
      </trkpt>
      <trkpt lat="48.84879" lon="2.31128">
        <ele>18</ele>
        <time>2013-09-26T19:51:31Z</time>
      </trkpt>
      <trkpt lat="48.84869" lon="2.31128">
        <ele>20</ele>
        <time>2013-09-26T19:51:33Z</time>
      </trkpt>
      <trkpt lat="48.84864" lon="2.31127">
        <ele>22</ele>
        <time>2013-09-26T19:51:34Z</time>
      </trkpt>
      <trkpt lat="48.84854" lon="2.31128">
        <ele>27</ele>
        <time>2013-09-26T19:51:36Z</time>
      </trkpt>
      <trkpt lat="48.84841" lon="2.31125">
        <ele>25</ele>
        <time>2013-09-26T19:51:39Z</time>
      </trkpt>
      <trkpt lat="48.84819" lon="2.31121">
        <ele>18</ele>
        <time>2013-09-26T19:51:43Z</time>
      </trkpt>
      <trkpt lat="48.84813" lon="2.31122">
        <ele>26</ele>
        <time>2013-09-26T19:51:44Z</time>
      </trkpt>
      <trkpt lat="48.84806" lon="2.31122">
        <ele>25</ele>
        <time>2013-09-26T19:51:45Z</time>
      </trkpt>
      <trkpt lat="48.84785" lon="2.31123">
        <ele>26</ele>
        <time>2013-09-26T19:51:49Z</time>
      </trkpt>
      <trkpt lat="48.84774" lon="2.3112">
        <ele>20</ele>
        <time>2013-09-26T19:51:53Z</time>
      </trkpt>
      <trkpt lat="48.84771" lon="2.31113">
        <ele>28</ele>
        <time>2013-09-26T19:51:56Z</time>
      </trkpt>
      <trkpt lat="48.84766" lon="2.31115">
        <ele>25</ele>
        <time>2013-09-26T19:52:06Z</time>
      </trkpt>
      <trkpt lat="48.84759" lon="2.31115">
        <ele>24</ele>
        <time>2013-09-26T19:52:08Z</time>
      </trkpt>
      <trkpt lat="48.84753" lon="2.31111">
        <ele>25</ele>
        <time>2013-09-26T19:52:10Z</time>
      </trkpt>
      <trkpt lat="48.84747" lon="2.31107">
        <ele>29</ele>
        <time>2013-09-26T19:52:12Z</time>
      </trkpt>
      <trkpt lat="48.84741" lon="2.31104">
        <ele>30</ele>
        <time>2013-09-26T19:52:14Z</time>
      </trkpt>
      <trkpt lat="48.84734" lon="2.31103">
        <ele>25</ele>
        <time>2013-09-26T19:52:16Z</time>
      </trkpt>
      <trkpt lat="48.84726" lon="2.31104">
        <ele>24</ele>
        <time>2013-09-26T19:52:18Z</time>
      </trkpt>
      <trkpt lat="48.84716" lon="2.31108">
        <ele>16</ele>
        <time>2013-09-26T19:52:21Z</time>
      </trkpt>
      <trkpt lat="48.84708" lon="2.31114">
        <ele>17</ele>
        <time>2013-09-26T19:52:23Z</time>
      </trkpt>
      <trkpt lat="48.8469" lon="2.31127">
        <ele>25</ele>
        <time>2013-09-26T19:52:29Z</time>
      </trkpt>
      <trkpt lat="48.84684" lon="2.31127">
        <ele>28</ele>
        <time>2013-09-26T19:52:31Z</time>
      </trkpt>
      <trkpt lat="48.84664" lon="2.31129">
        <ele>29</ele>
        <time>2013-09-26T19:52:37Z</time>
      </trkpt>
      <trkpt lat="48.84658" lon="2.31128">
        <ele>23</ele>
        <time>2013-09-26T19:52:39Z</time>
      </trkpt>
      <trkpt lat="48.84639" lon="2.31125">
        <ele>20</ele>
        <time>2013-09-26T19:52:45Z</time>
      </trkpt>
      <trkpt lat="48.84632" lon="2.31126">
        <ele>17</ele>
        <time>2013-09-26T19:52:47Z</time>
      </trkpt>
      <trkpt lat="48.84611" lon="2.31125">
        <ele>21</ele>
        <time>2013-09-26T19:52:53Z</time>
      </trkpt>
      <trkpt lat="48.84605" lon="2.31123">
        <ele>17</ele>
        <time>2013-09-26T19:52:54Z</time>
      </trkpt>
      <trkpt lat="48.84583" lon="2.31113">
        <ele>18</ele>
        <time>2013-09-26T19:52:58Z</time>
      </trkpt>
      <trkpt lat="48.84576" lon="2.31111">
        <ele>18</ele>
        <time>2013-09-26T19:52:59Z</time>
      </trkpt>
      <trkpt lat="48.84555" lon="2.31104">
        <ele>20</ele>
        <time>2013-09-26T19:53:03Z</time>
      </trkpt>
      <trkpt lat="48.84545" lon="2.31099">
        <ele>18</ele>
        <time>2013-09-26T19:53:07Z</time>
      </trkpt>
      <trkpt lat="48.8454" lon="2.3109">
        <ele>23</ele>
        <time>2013-09-26T19:53:10Z</time>
      </trkpt>
      <trkpt lat="48.84538" lon="2.31083">
        <ele>27</ele>
        <time>2013-09-26T19:53:12Z</time>
      </trkpt>
      <trkpt lat="48.84535" lon="2.31075">
        <ele>27</ele>
        <time>2013-09-26T19:53:15Z</time>
      </trkpt>
      <trkpt lat="48.84529" lon="2.3107">
        <ele>25</ele>
        <time>2013-09-26T19:53:18Z</time>
      </trkpt>
      <trkpt lat="48.84523" lon="2.3107">
        <ele>26</ele>
        <time>2013-09-26T19:53:24Z</time>
      </trkpt>
      <trkpt lat="48.84517" lon="2.31071">
        <ele>17</ele>
        <time>2013-09-26T19:53:30Z</time>
      </trkpt>
      <trkpt lat="48.84508" lon="2.31074">
        <ele>22</ele>
        <time>2013-09-26T19:53:45Z</time>
      </trkpt>
      <trkpt lat="48.84504" lon="2.31079">
        <ele>23</ele>
        <time>2013-09-26T19:53:48Z</time>
      </trkpt>
      <trkpt lat="48.84501" lon="2.31086">
        <ele>13</ele>
        <time>2013-09-26T19:53:54Z</time>
      </trkpt>
      <trkpt lat="48.8449" lon="2.31088">
        <ele>15</ele>
        <time>2013-09-26T19:53:56Z</time>
      </trkpt>
      <trkpt lat="48.84468" lon="2.31094">
        <ele>31</ele>
        <time>2013-09-26T19:54:02Z</time>
      </trkpt>
      <trkpt lat="48.84461" lon="2.31099">
        <ele>29</ele>
        <time>2013-09-26T19:54:04Z</time>
      </trkpt>
      <trkpt lat="48.84451" lon="2.31104">
        <ele>22</ele>
        <time>2013-09-26T19:54:07Z</time>
      </trkpt>
      <trkpt lat="48.84443" lon="2.31105">
        <ele>22</ele>
        <time>2013-09-26T19:54:10Z</time>
      </trkpt>
      <trkpt lat="48.84434" lon="2.31111">
        <ele>22</ele>
        <time>2013-09-26T19:54:13Z</time>
      </trkpt>
      <trkpt lat="48.84427" lon="2.31118">
        <ele>29</ele>
        <time>2013-09-26T19:54:15Z</time>
      </trkpt>
      <trkpt lat="48.8441" lon="2.31133">
        <ele>24</ele>
        <time>2013-09-26T19:54:19Z</time>
      </trkpt>
      <trkpt lat="48.84403" lon="2.31137">
        <ele>31</ele>
        <time>2013-09-26T19:54:21Z</time>
      </trkpt>
      <trkpt lat="48.84353" lon="2.31161">
        <ele>40</ele>
        <time>2013-09-26T19:54:36Z</time>
      </trkpt>
      <trkpt lat="48.84338" lon="2.31172">
        <ele>43</ele>
        <time>2013-09-26T19:54:41Z</time>
      </trkpt>
      <trkpt lat="48.84324" lon="2.31192">
        <ele>42</ele>
        <time>2013-09-26T19:54:47Z</time>
      </trkpt>
      <trkpt lat="48.84314" lon="2.31212">
        <ele>43</ele>
        <time>2013-09-26T19:54:51Z</time>
      </trkpt>
      <trkpt lat="48.84297" lon="2.31239">
        <ele>43</ele>
        <time>2013-09-26T19:54:56Z</time>
      </trkpt>
      <trkpt lat="48.84293" lon="2.31239">
        <ele>44</ele>
        <time>2013-09-26T19:54:57Z</time>
      </trkpt>
      <trkpt lat="48.84288" lon="2.31239">
        <ele>47</ele>
        <time>2013-09-26T19:55:00Z</time>
      </trkpt>
      <trkpt lat="48.84282" lon="2.31242">
        <ele>45</ele>
        <time>2013-09-26T19:55:04Z</time>
      </trkpt>
      <trkpt lat="48.84278" lon="2.31237">
        <ele>50</ele>
        <time>2013-09-26T19:55:13Z</time>
      </trkpt>
      <trkpt lat="48.84273" lon="2.31239">
        <ele>47</ele>
        <time>2013-09-26T19:55:46Z</time>
      </trkpt>
      <trkpt lat="48.84268" lon="2.31236">
        <ele>48</ele>
        <time>2013-09-26T19:56:02Z</time>
      </trkpt>
      <trkpt lat="48.84264" lon="2.31241">
        <ele>49</ele>
        <time>2013-09-26T19:56:18Z</time>
      </trkpt>
      <trkpt lat="48.8426" lon="2.31247">
        <ele>43</ele>
        <time>2013-09-26T19:56:22Z</time>
      </trkpt>
      <trkpt lat="48.84257" lon="2.31254">
        <ele>40</ele>
        <time>2013-09-26T19:56:25Z</time>
      </trkpt>
      <trkpt lat="48.84253" lon="2.31259">
        <ele>40</ele>
        <time>2013-09-26T19:56:28Z</time>
      </trkpt>
      <trkpt lat="48.84251" lon="2.31265">
        <ele>37</ele>
        <time>2013-09-26T19:56:31Z</time>
      </trkpt>
      <trkpt lat="48.84247" lon="2.31271">
        <ele>38</ele>
        <time>2013-09-26T19:56:34Z</time>
      </trkpt>
      <trkpt lat="48.84242" lon="2.31279">
        <ele>40</ele>
        <time>2013-09-26T19:56:37Z</time>
      </trkpt>
      <trkpt lat="48.84237" lon="2.31284">
        <ele>35</ele>
        <time>2013-09-26T19:56:40Z</time>
      </trkpt>
      <trkpt lat="48.84232" lon="2.31286">
        <ele>41</ele>
        <time>2013-09-26T19:56:43Z</time>
      </trkpt>
      <trkpt lat="48.84225" lon="2.31286">
        <ele>42</ele>
        <time>2013-09-26T19:56:46Z</time>
      </trkpt>
      <trkpt lat="48.84219" lon="2.31288">
        <ele>48</ele>
        <time>2013-09-26T19:56:48Z</time>
      </trkpt>
      <trkpt lat="48.84214" lon="2.3129">
        <ele>51</ele>
        <time>2013-09-26T19:56:50Z</time>
      </trkpt>
      <trkpt lat="48.84208" lon="2.31293">
        <ele>49</ele>
        <time>2013-09-26T19:56:53Z</time>
      </trkpt>
      <trkpt lat="48.84203" lon="2.31291">
        <ele>49</ele>
        <time>2013-09-26T19:56:57Z</time>
      </trkpt>
      <trkpt lat="48.84195" lon="2.31295">
        <ele>55</ele>
        <time>2013-09-26T19:57:11Z</time>
      </trkpt>
      <trkpt lat="48.84189" lon="2.31299">
        <ele>53</ele>
        <time>2013-09-26T19:57:15Z</time>
      </trkpt>
      <trkpt lat="48.8417" lon="2.31312">
        <ele>44</ele>
        <time>2013-09-26T19:57:23Z</time>
      </trkpt>
      <trkpt lat="48.84149" lon="2.31323">
        <ele>39</ele>
        <time>2013-09-26T19:57:30Z</time>
      </trkpt>
      <trkpt lat="48.84139" lon="2.3133">
        <ele>40</ele>
        <time>2013-09-26T19:57:35Z</time>
      </trkpt>
      <trkpt lat="48.84135" lon="2.31335">
        <ele>46</ele>
        <time>2013-09-26T19:57:38Z</time>
      </trkpt>
      <trkpt lat="48.8413" lon="2.31345">
        <ele>47</ele>
        <time>2013-09-26T19:57:43Z</time>
      </trkpt>
      <trkpt lat="48.84126" lon="2.31351">
        <ele>48</ele>
        <time>2013-09-26T19:57:45Z</time>
      </trkpt>
      <trkpt lat="48.84121" lon="2.31359">
        <ele>47</ele>
        <time>2013-09-26T19:57:48Z</time>
      </trkpt>
      <trkpt lat="48.84078" lon="2.31415">
        <ele>46</ele>
        <time>2013-09-26T19:58:12Z</time>
      </trkpt>
      <trkpt lat="48.84066" lon="2.31435">
        <ele>44</ele>
        <time>2013-09-26T19:58:19Z</time>
      </trkpt>
      <trkpt lat="48.84037" lon="2.31498">
        <ele>42</ele>
        <time>2013-09-26T19:58:27Z</time>
      </trkpt>
      <trkpt lat="48.8403" lon="2.31526">
        <ele>47</ele>
        <time>2013-09-26T19:58:30Z</time>
      </trkpt>
      <trkpt lat="48.84019" lon="2.31545">
        <ele>52</ele>
        <time>2013-09-26T19:58:35Z</time>
      </trkpt>
      <trkpt lat="48.84017" lon="2.31548">
        <ele>51</ele>
        <time>2013-09-26T19:58:44Z</time>
      </trkpt>
      <trkpt lat="48.84009" lon="2.31543">
        <ele>47</ele>
        <time>2013-09-26T19:58:51Z</time>
      </trkpt>
      <trkpt lat="48.84006" lon="2.31534">
        <ele>45</ele>
        <time>2013-09-26T19:58:52Z</time>
      </trkpt>
      <trkpt lat="48.84005" lon="2.31524">
        <ele>50</ele>
        <time>2013-09-26T19:58:58Z</time>
      </trkpt>
      <trkpt lat="48.84007" lon="2.31516">
        <ele>50</ele>
        <time>2013-09-26T19:59:00Z</time>
      </trkpt>
      <trkpt lat="48.84001" lon="2.31514">
        <ele>48</ele>
        <time>2013-09-26T19:59:09Z</time>
      </trkpt>
      <trkpt lat="48.83994" lon="2.31521">
        <ele>44</ele>
        <time>2013-09-26T19:59:11Z</time>
      </trkpt>
      <trkpt lat="48.83984" lon="2.31528">
        <ele>48</ele>
        <time>2013-09-26T19:59:14Z</time>
      </trkpt>
      <trkpt lat="48.83976" lon="2.31531">
        <ele>45</ele>
        <time>2013-09-26T19:59:19Z</time>
      </trkpt>
      <trkpt lat="48.83971" lon="2.31535">
        <ele>47</ele>
        <time>2013-09-26T19:59:21Z</time>
      </trkpt>
      <trkpt lat="48.83937" lon="2.31579">
        <ele>52</ele>
        <time>2013-09-26T19:59:48Z</time>
      </trkpt>
      <trkpt lat="48.83912" lon="2.31596">
        <ele>44</ele>
        <time>2013-09-26T19:59:51Z</time>
      </trkpt>
      <trkpt lat="48.83903" lon="2.316">
        <ele>49</ele>
        <time>2013-09-26T19:59:53Z</time>
      </trkpt>
      <trkpt lat="48.839" lon="2.31606">
        <ele>51</ele>
        <time>2013-09-26T19:59:56Z</time>
      </trkpt>
      <trkpt lat="48.83897" lon="2.31618">
        <ele>55</ele>
        <time>2013-09-26T20:00:01Z</time>
      </trkpt>
      <trkpt lat="48.83892" lon="2.31624">
        <ele>48</ele>
        <time>2013-09-26T20:00:03Z</time>
      </trkpt>
      <trkpt lat="48.83885" lon="2.31635">
        <ele>64</ele>
        <time>2013-09-26T20:00:09Z</time>
      </trkpt>
      <trkpt lat="48.83883" lon="2.31642">
        <ele>70</ele>
        <time>2013-09-26T20:00:17Z</time>
      </trkpt>
      <trkpt lat="48.83881" lon="2.31652">
        <ele>75</ele>
        <time>2013-09-26T20:00:24Z</time>
      </trkpt>
      <trkpt lat="48.83884" lon="2.31646">
        <ele>110</ele>
        <time>2013-09-26T20:00:29Z</time>
      </trkpt>
      <trkpt lat="48.8387" lon="2.31651">
        <ele>77</ele>
        <time>2013-09-26T20:00:36Z</time>
      </trkpt>
      <trkpt lat="48.83856" lon="2.31659">
        <ele>73</ele>
        <time>2013-09-26T20:00:39Z</time>
      </trkpt>
      <trkpt lat="48.83852" lon="2.31666">
        <ele>71</ele>
        <time>2013-09-26T20:00:41Z</time>
      </trkpt>
      <trkpt lat="48.83838" lon="2.3168">
        <ele>58</ele>
        <time>2013-09-26T20:00:52Z</time>
      </trkpt>
      <trkpt lat="48.83831" lon="2.31682">
        <ele>65</ele>
        <time>2013-09-26T20:00:55Z</time>
      </trkpt>
      <trkpt lat="48.83825" lon="2.31684">
        <ele>72</ele>
        <time>2013-09-26T20:00:57Z</time>
      </trkpt>
      <trkpt lat="48.83813" lon="2.31691">
        <ele>73</ele>
        <time>2013-09-26T20:01:00Z</time>
      </trkpt>
      <trkpt lat="48.83805" lon="2.31707">
        <ele>83</ele>
        <time>2013-09-26T20:01:04Z</time>
      </trkpt>
      <trkpt lat="48.83805" lon="2.31717">
        <ele>70</ele>
        <time>2013-09-26T20:01:05Z</time>
      </trkpt>
      <trkpt lat="48.83802" lon="2.31741">
        <ele>62</ele>
        <time>2013-09-26T20:01:09Z</time>
      </trkpt>
      <trkpt lat="48.83798" lon="2.3175">
        <ele>57</ele>
        <time>2013-09-26T20:01:11Z</time>
      </trkpt>
      <trkpt lat="48.83793" lon="2.3176">
        <ele>54</ele>
        <time>2013-09-26T20:01:13Z</time>
      </trkpt>
      <trkpt lat="48.8379" lon="2.31766">
        <ele>51</ele>
        <time>2013-09-26T20:01:15Z</time>
      </trkpt>
      <trkpt lat="48.83777" lon="2.31783">
        <ele>56</ele>
        <time>2013-09-26T20:01:21Z</time>
      </trkpt>
      <trkpt lat="48.8377" lon="2.31784">
        <ele>69</ele>
        <time>2013-09-26T20:01:25Z</time>
      </trkpt>
      <trkpt lat="48.8377" lon="2.31776">
        <ele>77</ele>
        <time>2013-09-26T20:01:28Z</time>
      </trkpt>
      <trkpt lat="48.83763" lon="2.31779">
        <ele>78</ele>
        <time>2013-09-26T20:01:33Z</time>
      </trkpt>
      <trkpt lat="48.83757" lon="2.31786">
        <ele>61</ele>
        <time>2013-09-26T20:01:35Z</time>
      </trkpt>
      <trkpt lat="48.8375" lon="2.31793">
        <ele>56</ele>
        <time>2013-09-26T20:01:39Z</time>
      </trkpt>
      <trkpt lat="48.83744" lon="2.31789">
        <ele>55</ele>
        <time>2013-09-26T20:01:43Z</time>
      </trkpt>
      <trkpt lat="48.83736" lon="2.31781">
        <ele>54</ele>
        <time>2013-09-26T20:01:48Z</time>
      </trkpt>
      <trkpt lat="48.83731" lon="2.31777">
        <ele>58</ele>
        <time>2013-09-26T20:01:51Z</time>
      </trkpt>
      <trkpt lat="48.83724" lon="2.31777">
        <ele>54</ele>
        <time>2013-09-26T20:01:54Z</time>
      </trkpt>
      <trkpt lat="48.83719" lon="2.31776">
        <ele>55</ele>
        <time>2013-09-26T20:01:56Z</time>
      </trkpt>
      <trkpt lat="48.83699" lon="2.31774">
        <ele>47</ele>
        <time>2013-09-26T20:02:03Z</time>
      </trkpt>
      <trkpt lat="48.83693" lon="2.31784">
        <ele>45</ele>
        <time>2013-09-26T20:02:05Z</time>
      </trkpt>
      <trkpt lat="48.83687" lon="2.31794">
        <ele>43</ele>
        <time>2013-09-26T20:02:08Z</time>
      </trkpt>
      <trkpt lat="48.83692" lon="2.31815">
        <ele>45</ele>
        <time>2013-09-26T20:02:19Z</time>
      </trkpt>
      <trkpt lat="48.83682" lon="2.31826">
        <ele>46</ele>
        <time>2013-09-26T20:02:21Z</time>
      </trkpt>
      <trkpt lat="48.83679" lon="2.31835">
        <ele>45</ele>
        <time>2013-09-26T20:02:22Z</time>
      </trkpt>
      <trkpt lat="48.83675" lon="2.31854">
        <ele>46</ele>
        <time>2013-09-26T20:02:25Z</time>
      </trkpt>
      <trkpt lat="48.83676" lon="2.31863">
        <ele>47</ele>
        <time>2013-09-26T20:02:27Z</time>
      </trkpt>
      <trkpt lat="48.83675" lon="2.31872">
        <ele>43</ele>
        <time>2013-09-26T20:02:30Z</time>
      </trkpt>
      <trkpt lat="48.83672" lon="2.31878">
        <ele>44</ele>
        <time>2013-09-26T20:02:33Z</time>
      </trkpt>
      <trkpt lat="48.83665" lon="2.3189">
        <ele>44</ele>
        <time>2013-09-26T20:02:38Z</time>
      </trkpt>
      <trkpt lat="48.83659" lon="2.31897">
        <ele>45</ele>
        <time>2013-09-26T20:02:41Z</time>
      </trkpt>
      <trkpt lat="48.83651" lon="2.31902">
        <ele>49</ele>
        <time>2013-09-26T20:02:45Z</time>
      </trkpt>
      <trkpt lat="48.83646" lon="2.31902">
        <ele>46</ele>
        <time>2013-09-26T20:02:47Z</time>
      </trkpt>
      <trkpt lat="48.83639" lon="2.31899">
        <ele>42</ele>
        <time>2013-09-26T20:02:49Z</time>
      </trkpt>
      <trkpt lat="48.83633" lon="2.31892">
        <ele>42</ele>
        <time>2013-09-26T20:02:51Z</time>
      </trkpt>
      <trkpt lat="48.83625" lon="2.31892">
        <ele>43</ele>
        <time>2013-09-26T20:02:53Z</time>
      </trkpt>
      <trkpt lat="48.83618" lon="2.31891">
        <ele>45</ele>
        <time>2013-09-26T20:02:55Z</time>
      </trkpt>
      <trkpt lat="48.83608" lon="2.31886">
        <ele>50</ele>
        <time>2013-09-26T20:02:57Z</time>
      </trkpt>
      <trkpt lat="48.836" lon="2.31884">
        <ele>48</ele>
        <time>2013-09-26T20:02:59Z</time>
      </trkpt>
      <trkpt lat="48.83594" lon="2.31884">
        <ele>48</ele>
        <time>2013-09-26T20:03:01Z</time>
      </trkpt>
      <trkpt lat="48.83589" lon="2.31887">
        <ele>43</ele>
        <time>2013-09-26T20:03:06Z</time>
      </trkpt>
      <trkpt lat="48.83586" lon="2.31894">
        <ele>46</ele>
        <time>2013-09-26T20:03:10Z</time>
      </trkpt>
      <trkpt lat="48.83583" lon="2.31904">
        <ele>45</ele>
        <time>2013-09-26T20:03:15Z</time>
      </trkpt>
      <trkpt lat="48.83581" lon="2.31913">
        <ele>47</ele>
        <time>2013-09-26T20:03:21Z</time>
      </trkpt>
      <trkpt lat="48.83581" lon="2.31921">
        <ele>44</ele>
        <time>2013-09-26T20:03:25Z</time>
      </trkpt>
      <trkpt lat="48.83578" lon="2.31927">
        <ele>48</ele>
        <time>2013-09-26T20:03:31Z</time>
      </trkpt>
      <trkpt lat="48.83577" lon="2.31938">
        <ele>45</ele>
        <time>2013-09-26T20:03:39Z</time>
      </trkpt>
      <trkpt lat="48.83575" lon="2.31945">
        <ele>48</ele>
        <time>2013-09-26T20:03:45Z</time>
      </trkpt>
      <trkpt lat="48.83569" lon="2.31952">
        <ele>54</ele>
        <time>2013-09-26T20:03:48Z</time>
      </trkpt>
      <trkpt lat="48.83557" lon="2.31964">
        <ele>50</ele>
        <time>2013-09-26T20:03:52Z</time>
      </trkpt>
      <trkpt lat="48.83539" lon="2.31983">
        <ele>52</ele>
        <time>2013-09-26T20:03:57Z</time>
      </trkpt>
      <trkpt lat="48.83534" lon="2.31991">
        <ele>49</ele>
        <time>2013-09-26T20:03:59Z</time>
      </trkpt>
      <trkpt lat="48.83523" lon="2.3201">
        <ele>47</ele>
        <time>2013-09-26T20:04:04Z</time>
      </trkpt>
      <trkpt lat="48.83509" lon="2.32031">
        <ele>48</ele>
        <time>2013-09-26T20:04:13Z</time>
      </trkpt>
      <trkpt lat="48.83507" lon="2.32038">
        <ele>46</ele>
        <time>2013-09-26T20:04:16Z</time>
      </trkpt>
      <trkpt lat="48.83503" lon="2.32043">
        <ele>49</ele>
        <time>2013-09-26T20:04:18Z</time>
      </trkpt>
      <trkpt lat="48.83498" lon="2.32055">
        <ele>53</ele>
        <time>2013-09-26T20:04:21Z</time>
      </trkpt>
      <trkpt lat="48.83495" lon="2.32065">
        <ele>55</ele>
        <time>2013-09-26T20:04:23Z</time>
      </trkpt>
      <trkpt lat="48.83485" lon="2.32085">
        <ele>59</ele>
        <time>2013-09-26T20:04:28Z</time>
      </trkpt>
      <trkpt lat="48.83481" lon="2.32091">
        <ele>53</ele>
        <time>2013-09-26T20:04:30Z</time>
      </trkpt>
      <trkpt lat="48.83472" lon="2.32106">
        <ele>54</ele>
        <time>2013-09-26T20:04:35Z</time>
      </trkpt>
      <trkpt lat="48.8347" lon="2.32113">
        <ele>45</ele>
        <time>2013-09-26T20:04:37Z</time>
      </trkpt>
      <trkpt lat="48.83468" lon="2.3212">
        <ele>45</ele>
        <time>2013-09-26T20:04:39Z</time>
      </trkpt>
      <trkpt lat="48.83462" lon="2.32131">
        <ele>47</ele>
        <time>2013-09-26T20:04:42Z</time>
      </trkpt>
      <trkpt lat="48.83436" lon="2.32175">
        <ele>55</ele>
        <time>2013-09-26T20:04:53Z</time>
      </trkpt>
      <trkpt lat="48.83431" lon="2.32182">
        <ele>57</ele>
        <time>2013-09-26T20:04:56Z</time>
      </trkpt>
      <trkpt lat="48.83428" lon="2.3219">
        <ele>64</ele>
        <time>2013-09-26T20:04:59Z</time>
      </trkpt>
      <trkpt lat="48.83427" lon="2.32198">
        <ele>60</ele>
        <time>2013-09-26T20:05:03Z</time>
      </trkpt>
      <trkpt lat="48.83422" lon="2.32207">
        <ele>62</ele>
        <time>2013-09-26T20:05:06Z</time>
      </trkpt>
      <trkpt lat="48.83418" lon="2.32214">
        <ele>63</ele>
        <time>2013-09-26T20:05:08Z</time>
      </trkpt>
      <trkpt lat="48.83393" lon="2.32259">
        <ele>49</ele>
        <time>2013-09-26T20:05:20Z</time>
      </trkpt>
      <trkpt lat="48.83388" lon="2.32271">
        <ele>52</ele>
        <time>2013-09-26T20:05:22Z</time>
      </trkpt>
      <trkpt lat="48.83376" lon="2.32293">
        <ele>55</ele>
        <time>2013-09-26T20:05:26Z</time>
      </trkpt>
      <trkpt lat="48.83368" lon="2.32315">
        <ele>51</ele>
        <time>2013-09-26T20:05:30Z</time>
      </trkpt>
      <trkpt lat="48.83358" lon="2.32338">
        <ele>47</ele>
        <time>2013-09-26T20:05:34Z</time>
      </trkpt>
      <trkpt lat="48.83355" lon="2.32344">
        <ele>45</ele>
        <time>2013-09-26T20:05:35Z</time>
      </trkpt>
      <trkpt lat="48.83343" lon="2.32369">
        <ele>47</ele>
        <time>2013-09-26T20:05:39Z</time>
      </trkpt>
      <trkpt lat="48.8334" lon="2.32375">
        <ele>48</ele>
        <time>2013-09-26T20:05:40Z</time>
      </trkpt>
      <trkpt lat="48.83332" lon="2.32391">
        <ele>44</ele>
        <time>2013-09-26T20:05:43Z</time>
      </trkpt>
      <trkpt lat="48.8332" lon="2.32417">
        <ele>45</ele>
        <time>2013-09-26T20:05:48Z</time>
      </trkpt>
      <trkpt lat="48.83312" lon="2.32429">
        <ele>45</ele>
        <time>2013-09-26T20:05:51Z</time>
      </trkpt>
      <trkpt lat="48.83307" lon="2.32438">
        <ele>49</ele>
        <time>2013-09-26T20:05:53Z</time>
      </trkpt>
      <trkpt lat="48.83299" lon="2.3245">
        <ele>57</ele>
        <time>2013-09-26T20:05:57Z</time>
      </trkpt>
      <trkpt lat="48.83293" lon="2.32455">
        <ele>65</ele>
        <time>2013-09-26T20:06:09Z</time>
      </trkpt>
      <trkpt lat="48.83294" lon="2.32464">
        <ele>72</ele>
        <time>2013-09-26T20:06:23Z</time>
      </trkpt>
      <trkpt lat="48.83295" lon="2.32485">
        <ele>99</ele>
        <time>2013-09-26T20:06:51Z</time>
      </trkpt>
      <trkpt lat="48.8329" lon="2.32493">
        <ele>49</ele>
        <time>2013-09-26T20:07:17Z</time>
      </trkpt>
      <trkpt lat="48.83284" lon="2.32492">
        <ele>58</ele>
        <time>2013-09-26T20:07:23Z</time>
      </trkpt>
      <trkpt lat="48.83281" lon="2.32483">
        <ele>57</ele>
        <time>2013-09-26T20:07:28Z</time>
      </trkpt>
      <trkpt lat="48.83275" lon="2.32482">
        <ele>47</ele>
        <time>2013-09-26T20:07:31Z</time>
      </trkpt>
      <trkpt lat="48.83269" lon="2.3248">
        <ele>45</ele>
        <time>2013-09-26T20:07:36Z</time>
      </trkpt>
      <trkpt lat="48.83262" lon="2.32483">
        <ele>47</ele>
        <time>2013-09-26T20:07:41Z</time>
      </trkpt>
      <trkpt lat="48.83251" lon="2.32485">
        <ele>50</ele>
        <time>2013-09-26T20:07:46Z</time>
      </trkpt>
      <trkpt lat="48.83243" lon="2.32488">
        <ele>51</ele>
        <time>2013-09-26T20:07:53Z</time>
      </trkpt>
      <trkpt lat="48.83241" lon="2.32495">
        <ele>55</ele>
        <time>2013-09-26T20:07:56Z</time>
      </trkpt>
      <trkpt lat="48.8324" lon="2.32504">
        <ele>59</ele>
        <time>2013-09-26T20:07:58Z</time>
      </trkpt>
      <trkpt lat="48.83239" lon="2.32515">
        <ele>62</ele>
        <time>2013-09-26T20:08:01Z</time>
      </trkpt>
      <trkpt lat="48.83242" lon="2.32522">
        <ele>58</ele>
        <time>2013-09-26T20:08:04Z</time>
      </trkpt>
      <trkpt lat="48.83245" lon="2.32531">
        <ele>59</ele>
        <time>2013-09-26T20:08:08Z</time>
      </trkpt>
      <trkpt lat="48.83245" lon="2.32537">
        <ele>56</ele>
        <time>2013-09-26T20:08:10Z</time>
      </trkpt>
      <trkpt lat="48.83243" lon="2.3255">
        <ele>50</ele>
        <time>2013-09-26T20:08:15Z</time>
      </trkpt>
      <trkpt lat="48.83242" lon="2.32559">
        <ele>51</ele>
        <time>2013-09-26T20:08:18Z</time>
      </trkpt>
      <trkpt lat="48.83241" lon="2.32575">
        <ele>57</ele>
        <time>2013-09-26T20:08:24Z</time>
      </trkpt>
      <trkpt lat="48.8324" lon="2.32579">
        <ele>59</ele>
        <time>2013-09-26T20:08:26Z</time>
      </trkpt>
      <trkpt lat="48.83238" lon="2.32583">
        <ele>54</ele>
        <time>2013-09-26T20:08:28Z</time>
      </trkpt>
      <trkpt lat="48.83238" lon="2.32588">
        <ele>47</ele>
        <time>2013-09-26T20:08:30Z</time>
      </trkpt>
      <trkpt lat="48.83237" lon="2.32592">
        <ele>51</ele>
        <time>2013-09-26T20:08:32Z</time>
      </trkpt>
      <trkpt lat="48.83236" lon="2.32602">
        <ele>52</ele>
        <time>2013-09-26T20:08:35Z</time>
      </trkpt>
      <trkpt lat="48.83234" lon="2.32612">
        <ele>54</ele>
        <time>2013-09-26T20:08:37Z</time>
      </trkpt>
      <trkpt lat="48.83233" lon="2.32619">
        <ele>52</ele>
        <time>2013-09-26T20:08:39Z</time>
      </trkpt>
      <trkpt lat="48.83231" lon="2.32627">
        <ele>48</ele>
        <time>2013-09-26T20:08:41Z</time>
      </trkpt>
      <trkpt lat="48.83225" lon="2.32659">
        <ele>51</ele>
        <time>2013-09-26T20:08:46Z</time>
      </trkpt>
      <trkpt lat="48.83223" lon="2.3267">
        <ele>50</ele>
        <time>2013-09-26T20:08:49Z</time>
      </trkpt>
      <trkpt lat="48.83218" lon="2.32699">
        <ele>49</ele>
        <time>2013-09-26T20:08:55Z</time>
      </trkpt>
      <trkpt lat="48.83215" lon="2.32707">
        <ele>51</ele>
        <time>2013-09-26T20:08:57Z</time>
      </trkpt>
      <trkpt lat="48.83208" lon="2.32733">
        <ele>59</ele>
        <time>2013-09-26T20:09:08Z</time>
      </trkpt>
      <trkpt lat="48.83208" lon="2.32741">
        <ele>58</ele>
        <time>2013-09-26T20:09:10Z</time>
      </trkpt>
      <trkpt lat="48.83206" lon="2.32751">
        <ele>58</ele>
        <time>2013-09-26T20:09:13Z</time>
      </trkpt>
      <trkpt lat="48.83204" lon="2.32756">
        <ele>57</ele>
        <time>2013-09-26T20:09:15Z</time>
      </trkpt>
      <trkpt lat="48.83197" lon="2.32771">
        <ele>48</ele>
        <time>2013-09-26T20:09:25Z</time>
      </trkpt>
      <trkpt lat="48.83196" lon="2.32779">
        <ele>46</ele>
        <time>2013-09-26T20:09:27Z</time>
      </trkpt>
      <trkpt lat="48.83194" lon="2.32786">
        <ele>46</ele>
        <time>2013-09-26T20:09:29Z</time>
      </trkpt>
      <trkpt lat="48.83191" lon="2.32794">
        <ele>46</ele>
        <time>2013-09-26T20:09:31Z</time>
      </trkpt>
      <trkpt lat="48.83187" lon="2.32805">
        <ele>46</ele>
        <time>2013-09-26T20:09:34Z</time>
      </trkpt>
      <trkpt lat="48.83175" lon="2.32831">
        <ele>45</ele>
        <time>2013-09-26T20:09:41Z</time>
      </trkpt>
      <trkpt lat="48.83172" lon="2.32839">
        <ele>44</ele>
        <time>2013-09-26T20:09:43Z</time>
      </trkpt>
      <trkpt lat="48.83162" lon="2.32862">
        <ele>43</ele>
        <time>2013-09-26T20:09:48Z</time>
      </trkpt>
      <trkpt lat="48.8316" lon="2.32872">
        <ele>42</ele>
        <time>2013-09-26T20:09:50Z</time>
      </trkpt>
      <trkpt lat="48.83159" lon="2.3288">
        <ele>42</ele>
        <time>2013-09-26T20:09:52Z</time>
      </trkpt>
      <trkpt lat="48.83155" lon="2.32897">
        <ele>44</ele>
        <time>2013-09-26T20:09:56Z</time>
      </trkpt>
      <trkpt lat="48.83147" lon="2.32925">
        <ele>32</ele>
        <time>2013-09-26T20:10:04Z</time>
      </trkpt>
      <trkpt lat="48.83143" lon="2.32932">
        <ele>30</ele>
        <time>2013-09-26T20:10:07Z</time>
      </trkpt>
      <trkpt lat="48.83139" lon="2.32941">
        <ele>31</ele>
        <time>2013-09-26T20:10:10Z</time>
      </trkpt>
      <trkpt lat="48.83134" lon="2.32953">
        <ele>28</ele>
        <time>2013-09-26T20:10:14Z</time>
      </trkpt>
      <trkpt lat="48.83131" lon="2.32962">
        <ele>37</ele>
        <time>2013-09-26T20:10:17Z</time>
      </trkpt>
      <trkpt lat="48.83133" lon="2.32971">
        <ele>39</ele>
        <time>2013-09-26T20:10:19Z</time>
      </trkpt>
      <trkpt lat="48.83137" lon="2.32978">
        <ele>42</ele>
        <time>2013-09-26T20:10:21Z</time>
      </trkpt>
      <trkpt lat="48.83142" lon="2.32982">
        <ele>65</ele>
        <time>2013-09-26T20:10:35Z</time>
      </trkpt>
      <trkpt lat="48.83144" lon="2.32988">
        <ele>64</ele>
        <time>2013-09-26T20:10:43Z</time>
      </trkpt>
      <trkpt lat="48.83143" lon="2.32992">
        <ele>62</ele>
        <time>2013-09-26T20:10:45Z</time>
      </trkpt>
      <trkpt lat="48.8314" lon="2.32999">
        <ele>59</ele>
        <time>2013-09-26T20:10:48Z</time>
      </trkpt>
      <trkpt lat="48.83141" lon="2.33008">
        <ele>53</ele>
        <time>2013-09-26T20:10:52Z</time>
      </trkpt>
      <trkpt lat="48.83145" lon="2.33013">
        <ele>50</ele>
        <time>2013-09-26T20:10:56Z</time>
      </trkpt>
      <trkpt lat="48.83151" lon="2.33018">
        <ele>47</ele>
        <time>2013-09-26T20:11:00Z</time>
      </trkpt>
      <trkpt lat="48.83156" lon="2.33023">
        <ele>49</ele>
        <time>2013-09-26T20:11:03Z</time>
      </trkpt>
      <trkpt lat="48.83161" lon="2.33032">
        <ele>46</ele>
        <time>2013-09-26T20:11:06Z</time>
      </trkpt>
      <trkpt lat="48.83164" lon="2.33038">
        <ele>50</ele>
        <time>2013-09-26T20:11:08Z</time>
      </trkpt>
      <trkpt lat="48.83178" lon="2.33059">
        <ele>47</ele>
        <time>2013-09-26T20:11:15Z</time>
      </trkpt>
      <trkpt lat="48.83186" lon="2.33067">
        <ele>45</ele>
        <time>2013-09-26T20:11:17Z</time>
      </trkpt>
      <trkpt lat="48.83203" lon="2.33086">
        <ele>41</ele>
        <time>2013-09-26T20:11:22Z</time>
      </trkpt>
      <trkpt lat="48.83214" lon="2.33095">
        <ele>42</ele>
        <time>2013-09-26T20:11:26Z</time>
      </trkpt>
      <trkpt lat="48.83222" lon="2.33099">
        <ele>43</ele>
        <time>2013-09-26T20:11:28Z</time>
      </trkpt>
      <trkpt lat="48.83234" lon="2.33108">
        <ele>53</ele>
        <time>2013-09-26T20:11:32Z</time>
      </trkpt>
      <trkpt lat="48.83251" lon="2.33122">
        <ele>42</ele>
        <time>2013-09-26T20:11:37Z</time>
      </trkpt>
      <trkpt lat="48.8326" lon="2.33131">
        <ele>51</ele>
        <time>2013-09-26T20:11:40Z</time>
      </trkpt>
      <trkpt lat="48.83266" lon="2.33139">
        <ele>56</ele>
        <time>2013-09-26T20:11:42Z</time>
      </trkpt>
      <trkpt lat="48.83272" lon="2.33143">
        <ele>56</ele>
        <time>2013-09-26T20:11:44Z</time>
      </trkpt>
      <trkpt lat="48.83279" lon="2.33147">
        <ele>54</ele>
        <time>2013-09-26T20:11:46Z</time>
      </trkpt>
      <trkpt lat="48.83299" lon="2.33157">
        <ele>49</ele>
        <time>2013-09-26T20:11:55Z</time>
      </trkpt>
      <trkpt lat="48.83303" lon="2.33164">
        <ele>48</ele>
        <time>2013-09-26T20:11:58Z</time>
      </trkpt>
      <trkpt lat="48.83319" lon="2.33186">
        <ele>49</ele>
        <time>2013-09-26T20:12:07Z</time>
      </trkpt>
      <trkpt lat="48.83327" lon="2.33196">
        <ele>47</ele>
        <time>2013-09-26T20:12:10Z</time>
      </trkpt>
      <trkpt lat="48.83331" lon="2.33205">
        <ele>43</ele>
        <time>2013-09-26T20:12:12Z</time>
      </trkpt>
      <trkpt lat="48.83336" lon="2.33224">
        <ele>49</ele>
        <time>2013-09-26T20:12:19Z</time>
      </trkpt>
      <trkpt lat="48.83334" lon="2.33231">
        <ele>48</ele>
        <time>2013-09-26T20:12:22Z</time>
      </trkpt>
      <trkpt lat="48.83332" lon="2.3325">
        <ele>51</ele>
        <time>2013-09-26T20:12:33Z</time>
      </trkpt>
      <trkpt lat="48.8333" lon="2.3327">
        <ele>52</ele>
        <time>2013-09-26T20:12:48Z</time>
      </trkpt>
      <trkpt lat="48.8333" lon="2.33284">
        <ele>52</ele>
        <time>2013-09-26T20:12:58Z</time>
      </trkpt>
      <trkpt lat="48.8333" lon="2.33291">
        <ele>44</ele>
        <time>2013-09-26T20:13:02Z</time>
      </trkpt>
      <trkpt lat="48.83326" lon="2.33298">
        <ele>41</ele>
        <time>2013-09-26T20:13:08Z</time>
      </trkpt>
      <trkpt lat="48.83325" lon="2.33306">
        <ele>48</ele>
        <time>2013-09-26T20:13:11Z</time>
      </trkpt>
      <trkpt lat="48.83326" lon="2.33311">
        <ele>47</ele>
        <time>2013-09-26T20:13:13Z</time>
      </trkpt>
      <trkpt lat="48.83324" lon="2.33313">
        <ele>55</ele>
        <time>2013-09-26T20:13:24Z</time>
      </trkpt>
      <trkpt lat="48.83321" lon="2.3332">
        <ele>60</ele>
        <time>2013-09-26T20:13:29Z</time>
      </trkpt>
      <trkpt lat="48.83325" lon="2.33328">
        <ele>58</ele>
        <time>2013-09-26T20:13:33Z</time>
      </trkpt>
      <trkpt lat="48.83326" lon="2.3333">
        <ele>59</ele>
        <time>2013-09-26T20:13:34Z</time>
      </trkpt>
      <trkpt lat="48.83328" lon="2.33334">
        <ele>57</ele>
        <time>2013-09-26T20:13:36Z</time>
      </trkpt>
      <trkpt lat="48.83331" lon="2.33339">
        <ele>60</ele>
        <time>2013-09-26T20:13:39Z</time>
      </trkpt>
      <trkpt lat="48.83335" lon="2.33346">
        <ele>67</ele>
        <time>2013-09-26T20:13:43Z</time>
      </trkpt>
      <trkpt lat="48.83336" lon="2.33347">
        <ele>60</ele>
        <time>2013-09-26T20:13:44Z</time>
      </trkpt>
      <trkpt lat="48.83339" lon="2.33348">
        <ele>64</ele>
        <time>2013-09-26T20:13:46Z</time>
      </trkpt>
      <trkpt lat="48.83344" lon="2.33351">
        <ele>57</ele>
        <time>2013-09-26T20:13:49Z</time>
      </trkpt>
      <trkpt lat="48.83348" lon="2.33357">
        <ele>51</ele>
        <time>2013-09-26T20:13:53Z</time>
      </trkpt>
      <trkpt lat="48.83352" lon="2.33357">
        <ele>51</ele>
        <time>2013-09-26T20:14:00Z</time>
      </trkpt>
      <trkpt lat="48.83357" lon="2.33355">
        <ele>48</ele>
        <time>2013-09-26T20:14:06Z</time>
      </trkpt>
      <trkpt lat="48.83362" lon="2.33359">
        <ele>52</ele>
        <time>2013-09-26T20:14:11Z</time>
      </trkpt>
      <trkpt lat="48.83366" lon="2.33358">
        <ele>78</ele>
        <time>2013-09-26T20:14:39Z</time>
      </trkpt>
      <trkpt lat="48.83361" lon="2.33362">
        <ele>47</ele>
        <time>2013-09-26T20:14:46Z</time>
      </trkpt>
      <trkpt lat="48.83359" lon="2.33365">
        <ele>53</ele>
        <time>2013-09-26T20:14:49Z</time>
      </trkpt>
      <trkpt lat="48.83363" lon="2.33371">
        <ele>55</ele>
        <time>2013-09-26T20:14:59Z</time>
      </trkpt>
      <trkpt lat="48.83368" lon="2.33367">
        <ele>49</ele>
        <time>2013-09-26T20:15:02Z</time>
      </trkpt>
      <trkpt lat="48.83376" lon="2.33364">
        <ele>45</ele>
        <time>2013-09-26T20:15:06Z</time>
      </trkpt>
      <trkpt lat="48.83381" lon="2.33361">
        <ele>45</ele>
        <time>2013-09-26T20:15:08Z</time>
      </trkpt>
      <trkpt lat="48.83388" lon="2.3336">
        <ele>51</ele>
        <time>2013-09-26T20:15:11Z</time>
      </trkpt>
      <trkpt lat="48.83392" lon="2.33356">
        <ele>52</ele>
        <time>2013-09-26T20:15:14Z</time>
      </trkpt>
      <trkpt lat="48.83409" lon="2.3334">
        <ele>53</ele>
        <time>2013-09-26T20:15:20Z</time>
      </trkpt>
      <trkpt lat="48.83416" lon="2.33337">
        <ele>55</ele>
        <time>2013-09-26T20:15:23Z</time>
      </trkpt>
      <trkpt lat="48.83422" lon="2.3334">
        <ele>62</ele>
        <time>2013-09-26T20:15:25Z</time>
      </trkpt>
      <trkpt lat="48.83429" lon="2.33342">
        <ele>65</ele>
        <time>2013-09-26T20:15:30Z</time>
      </trkpt>
      <trkpt lat="48.83433" lon="2.33334">
        <ele>56</ele>
        <time>2013-09-26T20:15:41Z</time>
      </trkpt>
      <trkpt lat="48.83438" lon="2.33325">
        <ele>51</ele>
        <time>2013-09-26T20:15:45Z</time>
      </trkpt>
      <trkpt lat="48.83441" lon="2.33319">
        <ele>50</ele>
        <time>2013-09-26T20:15:47Z</time>
      </trkpt>
      <trkpt lat="48.83441" lon="2.33311">
        <ele>56</ele>
        <time>2013-09-26T20:15:52Z</time>
      </trkpt>
      <trkpt lat="48.83445" lon="2.33305">
        <ele>53</ele>
        <time>2013-09-26T20:15:57Z</time>
      </trkpt>
      <trkpt lat="48.83449" lon="2.333">
        <ele>56</ele>
        <time>2013-09-26T20:16:00Z</time>
      </trkpt>
      <trkpt lat="48.83455" lon="2.33297">
        <ele>53</ele>
        <time>2013-09-26T20:16:05Z</time>
      </trkpt>
      <trkpt lat="48.83459" lon="2.33292">
        <ele>52</ele>
        <time>2013-09-26T20:16:08Z</time>
      </trkpt>
      <trkpt lat="48.83466" lon="2.33289">
        <ele>55</ele>
        <time>2013-09-26T20:16:11Z</time>
      </trkpt>
      <trkpt lat="48.83471" lon="2.33288">
        <ele>55</ele>
        <time>2013-09-26T20:16:13Z</time>
      </trkpt>
      <trkpt lat="48.83476" lon="2.33285">
        <ele>55</ele>
        <time>2013-09-26T20:16:15Z</time>
      </trkpt>
      <trkpt lat="48.83483" lon="2.33283">
        <ele>53</ele>
        <time>2013-09-26T20:16:18Z</time>
      </trkpt>
      <trkpt lat="48.8349" lon="2.33285">
        <ele>67</ele>
        <time>2013-09-26T20:16:21Z</time>
      </trkpt>
      <trkpt lat="48.83495" lon="2.33289">
        <ele>51</ele>
        <time>2013-09-26T20:16:23Z</time>
      </trkpt>
      <trkpt lat="48.83504" lon="2.33297">
        <ele>46</ele>
        <time>2013-09-26T20:16:27Z</time>
      </trkpt>
      <trkpt lat="48.83504" lon="2.33297">
        <ele>46</ele>
        <time>2013-09-26T20:16:27Z</time>
      </trkpt>
      <trkpt lat="48.83619" lon="2.33425">
        <ele>47</ele>
        <time>2013-09-26T20:17:13Z</time>
      </trkpt>
      <trkpt lat="48.83676" lon="2.33511">
        <ele>45</ele>
        <time>2013-09-26T20:17:35Z</time>
      </trkpt>
      <trkpt lat="48.83692" lon="2.33518">
        <ele>43</ele>
        <time>2013-09-26T20:17:38Z</time>
      </trkpt>
      <trkpt lat="48.83713" lon="2.33534">
        <ele>60</ele>
        <time>2013-09-26T20:17:49Z</time>
      </trkpt>
      <trkpt lat="48.83754" lon="2.3355">
        <ele>83</ele>
        <time>2013-09-26T20:17:56Z</time>
      </trkpt>
      <trkpt lat="48.83772" lon="2.33565">
        <ele>87</ele>
        <time>2013-09-26T20:18:03Z</time>
      </trkpt>
      <trkpt lat="48.83771" lon="2.33575">
        <ele>59</ele>
        <time>2013-09-26T20:18:09Z</time>
      </trkpt>
      <trkpt lat="48.83775" lon="2.33583">
        <ele>55</ele>
        <time>2013-09-26T20:18:12Z</time>
      </trkpt>
      <trkpt lat="48.8378" lon="2.33589">
        <ele>56</ele>
        <time>2013-09-26T20:18:14Z</time>
      </trkpt>
      <trkpt lat="48.83795" lon="2.33609">
        <ele>49</ele>
        <time>2013-09-26T20:18:19Z</time>
      </trkpt>
      <trkpt lat="48.83803" lon="2.33617">
        <ele>44</ele>
        <time>2013-09-26T20:18:21Z</time>
      </trkpt>
      <trkpt lat="48.83811" lon="2.33623">
        <ele>42</ele>
        <time>2013-09-26T20:18:23Z</time>
      </trkpt>
      <trkpt lat="48.83817" lon="2.3363">
        <ele>37</ele>
        <time>2013-09-26T20:18:25Z</time>
      </trkpt>
      <trkpt lat="48.8383" lon="2.3364">
        <ele>33</ele>
        <time>2013-09-26T20:18:29Z</time>
      </trkpt>
      <trkpt lat="48.83845" lon="2.33656">
        <ele>39</ele>
        <time>2013-09-26T20:18:34Z</time>
      </trkpt>
      <trkpt lat="48.83855" lon="2.33665">
        <ele>37</ele>
        <time>2013-09-26T20:18:37Z</time>
      </trkpt>
      <trkpt lat="48.83863" lon="2.33668">
        <ele>36</ele>
        <time>2013-09-26T20:18:39Z</time>
      </trkpt>
      <trkpt lat="48.83879" lon="2.33671">
        <ele>39</ele>
        <time>2013-09-26T20:18:43Z</time>
      </trkpt>
      <trkpt lat="48.83885" lon="2.33675">
        <ele>40</ele>
        <time>2013-09-26T20:18:45Z</time>
      </trkpt>
      <trkpt lat="48.83889" lon="2.33684">
        <ele>41</ele>
        <time>2013-09-26T20:18:47Z</time>
      </trkpt>
      <trkpt lat="48.83892" lon="2.33693">
        <ele>38</ele>
        <time>2013-09-26T20:18:49Z</time>
      </trkpt>
      <trkpt lat="48.83896" lon="2.33704">
        <ele>35</ele>
        <time>2013-09-26T20:18:52Z</time>
      </trkpt>
      <trkpt lat="48.83903" lon="2.33707">
        <ele>37</ele>
        <time>2013-09-26T20:18:55Z</time>
      </trkpt>
      <trkpt lat="48.83911" lon="2.33707">
        <ele>39</ele>
        <time>2013-09-26T20:18:57Z</time>
      </trkpt>
      <trkpt lat="48.83917" lon="2.33706">
        <ele>37</ele>
        <time>2013-09-26T20:18:59Z</time>
      </trkpt>
      <trkpt lat="48.83937" lon="2.33702">
        <ele>30</ele>
        <time>2013-09-26T20:19:09Z</time>
      </trkpt>
      <trkpt lat="48.83944" lon="2.33702">
        <ele>31</ele>
        <time>2013-09-26T20:19:12Z</time>
      </trkpt>
      <trkpt lat="48.83949" lon="2.337">
        <ele>44</ele>
        <time>2013-09-26T20:19:13Z</time>
      </trkpt>
      <trkpt lat="48.83959" lon="2.33695">
        <ele>36</ele>
        <time>2013-09-26T20:19:15Z</time>
      </trkpt>
      <trkpt lat="48.83967" lon="2.33689">
        <ele>36</ele>
        <time>2013-09-26T20:19:17Z</time>
      </trkpt>
      <trkpt lat="48.83974" lon="2.33687">
        <ele>34</ele>
        <time>2013-09-26T20:19:20Z</time>
      </trkpt>
      <trkpt lat="48.83982" lon="2.3369">
        <ele>42</ele>
        <time>2013-09-26T20:19:22Z</time>
      </trkpt>
      <trkpt lat="48.83989" lon="2.33694">
        <ele>44</ele>
        <time>2013-09-26T20:19:24Z</time>
      </trkpt>
      <trkpt lat="48.83996" lon="2.337">
        <ele>47</ele>
        <time>2013-09-26T20:19:26Z</time>
      </trkpt>
      <trkpt lat="48.84004" lon="2.33704">
        <ele>43</ele>
        <time>2013-09-26T20:19:29Z</time>
      </trkpt>
      <trkpt lat="48.84011" lon="2.3371">
        <ele>48</ele>
        <time>2013-09-26T20:19:31Z</time>
      </trkpt>
      <trkpt lat="48.84017" lon="2.33712">
        <ele>53</ele>
        <time>2013-09-26T20:19:33Z</time>
      </trkpt>
      <trkpt lat="48.84025" lon="2.33711">
        <ele>49</ele>
        <time>2013-09-26T20:19:35Z</time>
      </trkpt>
      <trkpt lat="48.8404" lon="2.33712">
        <ele>49</ele>
        <time>2013-09-26T20:19:39Z</time>
      </trkpt>
      <trkpt lat="48.84048" lon="2.33714">
        <ele>53</ele>
        <time>2013-09-26T20:19:41Z</time>
      </trkpt>
      <trkpt lat="48.84072" lon="2.33724">
        <ele>60</ele>
        <time>2013-09-26T20:19:45Z</time>
      </trkpt>
      <trkpt lat="48.84079" lon="2.3373">
        <ele>60</ele>
        <time>2013-09-26T20:19:47Z</time>
      </trkpt>
      <trkpt lat="48.84085" lon="2.33733">
        <ele>55</ele>
        <time>2013-09-26T20:19:49Z</time>
      </trkpt>
      <trkpt lat="48.841" lon="2.33738">
        <ele>42</ele>
        <time>2013-09-26T20:19:54Z</time>
      </trkpt>
      <trkpt lat="48.8412" lon="2.33745">
        <ele>46</ele>
        <time>2013-09-26T20:19:59Z</time>
      </trkpt>
      <trkpt lat="48.84127" lon="2.33746">
        <ele>45</ele>
        <time>2013-09-26T20:20:01Z</time>
      </trkpt>
      <trkpt lat="48.84137" lon="2.33749">
        <ele>45</ele>
        <time>2013-09-26T20:20:03Z</time>
      </trkpt>
      <trkpt lat="48.84145" lon="2.3375">
        <ele>46</ele>
        <time>2013-09-26T20:20:05Z</time>
      </trkpt>
      <trkpt lat="48.8415" lon="2.33754">
        <ele>44</ele>
        <time>2013-09-26T20:20:06Z</time>
      </trkpt>
      <trkpt lat="48.84166" lon="2.33769">
        <ele>44</ele>
        <time>2013-09-26T20:20:10Z</time>
      </trkpt>
      <trkpt lat="48.84172" lon="2.33777">
        <ele>45</ele>
        <time>2013-09-26T20:20:12Z</time>
      </trkpt>
      <trkpt lat="48.8418" lon="2.33784">
        <ele>44</ele>
        <time>2013-09-26T20:20:14Z</time>
      </trkpt>
      <trkpt lat="48.84189" lon="2.33789">
        <ele>44</ele>
        <time>2013-09-26T20:20:16Z</time>
      </trkpt>
      <trkpt lat="48.84206" lon="2.33795">
        <ele>46</ele>
        <time>2013-09-26T20:20:20Z</time>
      </trkpt>
      <trkpt lat="48.84214" lon="2.338">
        <ele>44</ele>
        <time>2013-09-26T20:20:22Z</time>
      </trkpt>
      <trkpt lat="48.84221" lon="2.33802">
        <ele>43</ele>
        <time>2013-09-26T20:20:24Z</time>
      </trkpt>
      <trkpt lat="48.84239" lon="2.33808">
        <ele>42</ele>
        <time>2013-09-26T20:20:29Z</time>
      </trkpt>
      <trkpt lat="48.84246" lon="2.33811">
        <ele>45</ele>
        <time>2013-09-26T20:20:31Z</time>
      </trkpt>
      <trkpt lat="48.84254" lon="2.33818">
        <ele>45</ele>
        <time>2013-09-26T20:20:33Z</time>
      </trkpt>
      <trkpt lat="48.84262" lon="2.33824">
        <ele>46</ele>
        <time>2013-09-26T20:20:35Z</time>
      </trkpt>
      <trkpt lat="48.8427" lon="2.33827">
        <ele>46</ele>
        <time>2013-09-26T20:20:37Z</time>
      </trkpt>
      <trkpt lat="48.84275" lon="2.3383">
        <ele>50</ele>
        <time>2013-09-26T20:20:38Z</time>
      </trkpt>
      <trkpt lat="48.84312" lon="2.33849">
        <ele>44</ele>
        <time>2013-09-26T20:20:44Z</time>
      </trkpt>
      <trkpt lat="48.8432" lon="2.33856">
        <ele>44</ele>
        <time>2013-09-26T20:20:46Z</time>
      </trkpt>
      <trkpt lat="48.84334" lon="2.33865">
        <ele>45</ele>
        <time>2013-09-26T20:20:50Z</time>
      </trkpt>
      <trkpt lat="48.8434" lon="2.33872">
        <ele>45</ele>
        <time>2013-09-26T20:20:52Z</time>
      </trkpt>
      <trkpt lat="48.84346" lon="2.33879">
        <ele>45</ele>
        <time>2013-09-26T20:20:54Z</time>
      </trkpt>
      <trkpt lat="48.84369" lon="2.33899">
        <ele>44</ele>
        <time>2013-09-26T20:21:01Z</time>
      </trkpt>
      <trkpt lat="48.84374" lon="2.33902">
        <ele>46</ele>
        <time>2013-09-26T20:21:03Z</time>
      </trkpt>
      <trkpt lat="48.84381" lon="2.33908">
        <ele>47</ele>
        <time>2013-09-26T20:21:05Z</time>
      </trkpt>
      <trkpt lat="48.84396" lon="2.33916">
        <ele>45</ele>
        <time>2013-09-26T20:21:10Z</time>
      </trkpt>
      <trkpt lat="48.84401" lon="2.33916">
        <ele>46</ele>
        <time>2013-09-26T20:21:14Z</time>
      </trkpt>
      <trkpt lat="48.84409" lon="2.33918">
        <ele>52</ele>
        <time>2013-09-26T20:21:16Z</time>
      </trkpt>
      <trkpt lat="48.84427" lon="2.33927">
        <ele>47</ele>
        <time>2013-09-26T20:21:23Z</time>
      </trkpt>
      <trkpt lat="48.84434" lon="2.33932">
        <ele>49</ele>
        <time>2013-09-26T20:21:26Z</time>
      </trkpt>
      <trkpt lat="48.84444" lon="2.33937">
        <ele>41</ele>
        <time>2013-09-26T20:21:30Z</time>
      </trkpt>
      <trkpt lat="48.84449" lon="2.33941">
        <ele>42</ele>
        <time>2013-09-26T20:21:32Z</time>
      </trkpt>
      <trkpt lat="48.84462" lon="2.3395">
        <ele>44</ele>
        <time>2013-09-26T20:21:36Z</time>
      </trkpt>
      <trkpt lat="48.8448" lon="2.33962">
        <ele>45</ele>
        <time>2013-09-26T20:21:41Z</time>
      </trkpt>
      <trkpt lat="48.84488" lon="2.33963">
        <ele>43</ele>
        <time>2013-09-26T20:21:43Z</time>
      </trkpt>
      <trkpt lat="48.84496" lon="2.33963">
        <ele>43</ele>
        <time>2013-09-26T20:21:45Z</time>
      </trkpt>
      <trkpt lat="48.84503" lon="2.3396">
        <ele>43</ele>
        <time>2013-09-26T20:21:47Z</time>
      </trkpt>
      <trkpt lat="48.84519" lon="2.33959">
        <ele>44</ele>
        <time>2013-09-26T20:21:51Z</time>
      </trkpt>
      <trkpt lat="48.84566" lon="2.33961">
        <ele>44</ele>
        <time>2013-09-26T20:22:05Z</time>
      </trkpt>
      <trkpt lat="48.84608" lon="2.34005">
        <ele>44</ele>
        <time>2013-09-26T20:22:16Z</time>
      </trkpt>
      <trkpt lat="48.84617" lon="2.34028">
        <ele>46</ele>
        <time>2013-09-26T20:22:18Z</time>
      </trkpt>
      <trkpt lat="48.84621" lon="2.34033">
        <ele>45</ele>
        <time>2013-09-26T20:22:21Z</time>
      </trkpt>
      <trkpt lat="48.8463" lon="2.34036">
        <ele>47</ele>
        <time>2013-09-26T20:22:25Z</time>
      </trkpt>
      <trkpt lat="48.84651" lon="2.34046">
        <ele>48</ele>
        <time>2013-09-26T20:22:30Z</time>
      </trkpt>
      <trkpt lat="48.84658" lon="2.34054">
        <ele>50</ele>
        <time>2013-09-26T20:22:32Z</time>
      </trkpt>
      <trkpt lat="48.84671" lon="2.34075">
        <ele>48</ele>
        <time>2013-09-26T20:22:37Z</time>
      </trkpt>
      <trkpt lat="48.84674" lon="2.34081">
        <ele>57</ele>
        <time>2013-09-26T20:22:45Z</time>
      </trkpt>
      <trkpt lat="48.8468" lon="2.3408">
        <ele>47</ele>
        <time>2013-09-26T20:22:48Z</time>
      </trkpt>
      <trkpt lat="48.84684" lon="2.34083">
        <ele>38</ele>
        <time>2013-09-26T20:22:52Z</time>
      </trkpt>
      <trkpt lat="48.84691" lon="2.34082">
        <ele>39</ele>
        <time>2013-09-26T20:22:55Z</time>
      </trkpt>
      <trkpt lat="48.84706" lon="2.34084">
        <ele>31</ele>
        <time>2013-09-26T20:23:00Z</time>
      </trkpt>
      <trkpt lat="48.84711" lon="2.34087">
        <ele>33</ele>
        <time>2013-09-26T20:23:02Z</time>
      </trkpt>
      <trkpt lat="48.84717" lon="2.34092">
        <ele>28</ele>
        <time>2013-09-26T20:23:05Z</time>
      </trkpt>
      <trkpt lat="48.84736" lon="2.34103">
        <ele>42</ele>
        <time>2013-09-26T20:23:14Z</time>
      </trkpt>
      <trkpt lat="48.84741" lon="2.34103">
        <ele>45</ele>
        <time>2013-09-26T20:23:16Z</time>
      </trkpt>
      <trkpt lat="48.84747" lon="2.34103">
        <ele>44</ele>
        <time>2013-09-26T20:23:18Z</time>
      </trkpt>
      <trkpt lat="48.84752" lon="2.34105">
        <ele>39</ele>
        <time>2013-09-26T20:23:21Z</time>
      </trkpt>
      <trkpt lat="48.84772" lon="2.3411">
        <ele>53</ele>
        <time>2013-09-26T20:23:28Z</time>
      </trkpt>
      <trkpt lat="48.84779" lon="2.34111">
        <ele>52</ele>
        <time>2013-09-26T20:23:30Z</time>
      </trkpt>
      <trkpt lat="48.84795" lon="2.34117">
        <ele>56</ele>
        <time>2013-09-26T20:23:34Z</time>
      </trkpt>
      <trkpt lat="48.84804" lon="2.34122">
        <ele>60</ele>
        <time>2013-09-26T20:23:36Z</time>
      </trkpt>
      <trkpt lat="48.8481" lon="2.34126">
        <ele>57</ele>
        <time>2013-09-26T20:23:37Z</time>
      </trkpt>
      <trkpt lat="48.84833" lon="2.34139">
        <ele>47</ele>
        <time>2013-09-26T20:23:41Z</time>
      </trkpt>
      <trkpt lat="48.8484" lon="2.34143">
        <ele>48</ele>
        <time>2013-09-26T20:23:42Z</time>
      </trkpt>
      <trkpt lat="48.84846" lon="2.34149">
        <ele>47</ele>
        <time>2013-09-26T20:23:43Z</time>
      </trkpt>
      <trkpt lat="48.84869" lon="2.34164">
        <ele>49</ele>
        <time>2013-09-26T20:23:46Z</time>
      </trkpt>
      <trkpt lat="48.84877" lon="2.34168">
        <ele>50</ele>
        <time>2013-09-26T20:23:47Z</time>
      </trkpt>
      <trkpt lat="48.84949" lon="2.34214">
        <ele>55</ele>
        <time>2013-09-26T20:23:58Z</time>
      </trkpt>
      <trkpt lat="48.84989" lon="2.34238">
        <ele>49</ele>
        <time>2013-09-26T20:24:03Z</time>
      </trkpt>
      <trkpt lat="48.85012" lon="2.34256">
        <ele>49</ele>
        <time>2013-09-26T20:24:06Z</time>
      </trkpt>
      <trkpt lat="48.85071" lon="2.34301">
        <ele>45</ele>
        <time>2013-09-26T20:24:14Z</time>
      </trkpt>
      <trkpt lat="48.85078" lon="2.34304">
        <ele>46</ele>
        <time>2013-09-26T20:24:15Z</time>
      </trkpt>
      <trkpt lat="48.85084" lon="2.34308">
        <ele>52</ele>
        <time>2013-09-26T20:24:16Z</time>
      </trkpt>
      <trkpt lat="48.85101" lon="2.34318">
        <ele>39</ele>
        <time>2013-09-26T20:24:19Z</time>
      </trkpt>
      <trkpt lat="48.85107" lon="2.34321">
        <ele>34</ele>
        <time>2013-09-26T20:24:20Z</time>
      </trkpt>
      <trkpt lat="48.85115" lon="2.34326">
        <ele>27</ele>
        <time>2013-09-26T20:24:22Z</time>
      </trkpt>
      <trkpt lat="48.85121" lon="2.34328">
        <ele>23</ele>
        <time>2013-09-26T20:24:24Z</time>
      </trkpt>
      <trkpt lat="48.8513" lon="2.34334">
        <ele>20</ele>
        <time>2013-09-26T20:24:38Z</time>
      </trkpt>
      <trkpt lat="48.85129" lon="2.34342">
        <ele>22</ele>
        <time>2013-09-26T20:24:41Z</time>
      </trkpt>
      <trkpt lat="48.85127" lon="2.34349">
        <ele>18</ele>
        <time>2013-09-26T20:24:43Z</time>
      </trkpt>
      <trkpt lat="48.85116" lon="2.34375">
        <ele>24</ele>
        <time>2013-09-26T20:24:50Z</time>
      </trkpt>
      <trkpt lat="48.85112" lon="2.34383">
        <ele>22</ele>
        <time>2013-09-26T20:24:52Z</time>
      </trkpt>
      <trkpt lat="48.8511" lon="2.34392">
        <ele>22</ele>
        <time>2013-09-26T20:24:54Z</time>
      </trkpt>
      <trkpt lat="48.85104" lon="2.34405">
        <ele>24</ele>
        <time>2013-09-26T20:24:57Z</time>
      </trkpt>
      <trkpt lat="48.85102" lon="2.34418">
        <ele>21</ele>
        <time>2013-09-26T20:25:01Z</time>
      </trkpt>
      <trkpt lat="48.85097" lon="2.34445">
        <ele>17</ele>
        <time>2013-09-26T20:25:06Z</time>
      </trkpt>
      <trkpt lat="48.85097" lon="2.34452">
        <ele>18</ele>
        <time>2013-09-26T20:25:08Z</time>
      </trkpt>
      <trkpt lat="48.85095" lon="2.34462">
        <ele>17</ele>
        <time>2013-09-26T20:25:10Z</time>
      </trkpt>
      <trkpt lat="48.85094" lon="2.34483">
        <ele>21</ele>
        <time>2013-09-26T20:25:16Z</time>
      </trkpt>
      <trkpt lat="48.8509" lon="2.34499">
        <ele>16</ele>
        <time>2013-09-26T20:25:20Z</time>
      </trkpt>
      <trkpt lat="48.85081" lon="2.34529">
        <ele>15</ele>
        <time>2013-09-26T20:25:28Z</time>
      </trkpt>
      <trkpt lat="48.85072" lon="2.34533">
        <ele>33</ele>
        <time>2013-09-26T20:25:43Z</time>
      </trkpt>
      <trkpt lat="48.85068" lon="2.34535">
        <ele>30</ele>
        <time>2013-09-26T20:25:52Z</time>
      </trkpt>
      <trkpt lat="48.85074" lon="2.34547">
        <ele>30</ele>
        <time>2013-09-26T20:26:04Z</time>
      </trkpt>
      <trkpt lat="48.85075" lon="2.34564">
        <ele>30</ele>
        <time>2013-09-26T20:26:09Z</time>
      </trkpt>
      <trkpt lat="48.85075" lon="2.34573">
        <ele>32</ele>
        <time>2013-09-26T20:26:11Z</time>
      </trkpt>
      <trkpt lat="48.85074" lon="2.34603">
        <ele>42</ele>
        <time>2013-09-26T20:26:17Z</time>
      </trkpt>
      <trkpt lat="48.85068" lon="2.3462">
        <ele>36</ele>
        <time>2013-09-26T20:26:24Z</time>
      </trkpt>
      <trkpt lat="48.85066" lon="2.34636">
        <ele>30</ele>
        <time>2013-09-26T20:26:27Z</time>
      </trkpt>
      <trkpt lat="48.85064" lon="2.34664">
        <ele>24</ele>
        <time>2013-09-26T20:26:33Z</time>
      </trkpt>
      <trkpt lat="48.85058" lon="2.34695">
        <ele>37</ele>
        <time>2013-09-26T20:26:42Z</time>
      </trkpt>
      <trkpt lat="48.85052" lon="2.34707">
        <ele>31</ele>
        <time>2013-09-26T20:26:49Z</time>
      </trkpt>
      <trkpt lat="48.85053" lon="2.34724">
        <ele>8</ele>
        <time>2013-09-26T20:26:59Z</time>
      </trkpt>
      <trkpt lat="48.85052" lon="2.34738">
        <ele>11</ele>
        <time>2013-09-26T20:27:01Z</time>
      </trkpt>
      <trkpt lat="48.85047" lon="2.3476">
        <ele>18</ele>
        <time>2013-09-26T20:27:04Z</time>
      </trkpt>
      <trkpt lat="48.8504" lon="2.34773">
        <ele>19</ele>
        <time>2013-09-26T20:27:06Z</time>
      </trkpt>
      <trkpt lat="48.85035" lon="2.3478">
        <ele>20</ele>
        <time>2013-09-26T20:27:07Z</time>
      </trkpt>
      <trkpt lat="48.85031" lon="2.34785">
        <ele>22</ele>
        <time>2013-09-26T20:27:08Z</time>
      </trkpt>
      <trkpt lat="48.85024" lon="2.34795">
        <ele>21</ele>
        <time>2013-09-26T20:27:10Z</time>
      </trkpt>
      <trkpt lat="48.85009" lon="2.34819">
        <ele>21</ele>
        <time>2013-09-26T20:27:16Z</time>
      </trkpt>
      <trkpt lat="48.85003" lon="2.34823">
        <ele>21</ele>
        <time>2013-09-26T20:27:18Z</time>
      </trkpt>
      <trkpt lat="48.84999" lon="2.3483">
        <ele>30</ele>
        <time>2013-09-26T20:27:20Z</time>
      </trkpt>
      <trkpt lat="48.84988" lon="2.34856">
        <ele>36</ele>
        <time>2013-09-26T20:27:25Z</time>
      </trkpt>
      <trkpt lat="48.84983" lon="2.34875">
        <ele>34</ele>
        <time>2013-09-26T20:27:28Z</time>
      </trkpt>
      <trkpt lat="48.84983" lon="2.34883">
        <ele>34</ele>
        <time>2013-09-26T20:27:29Z</time>
      </trkpt>
      <trkpt lat="48.84979" lon="2.34914">
        <ele>26</ele>
        <time>2013-09-26T20:27:35Z</time>
      </trkpt>
      <trkpt lat="48.84977" lon="2.34946">
        <ele>20</ele>
        <time>2013-09-26T20:27:43Z</time>
      </trkpt>
      <trkpt lat="48.84978" lon="2.34959">
        <ele>28</ele>
        <time>2013-09-26T20:27:46Z</time>
      </trkpt>
      <trkpt lat="48.84977" lon="2.34989">
        <ele>42</ele>
        <time>2013-09-26T20:27:52Z</time>
      </trkpt>
      <trkpt lat="48.84975" lon="2.35007">
        <ele>44</ele>
        <time>2013-09-26T20:27:56Z</time>
      </trkpt>
      <trkpt lat="48.84968" lon="2.35017">
        <ele>34</ele>
        <time>2013-09-26T20:27:58Z</time>
      </trkpt>
      <trkpt lat="48.84955" lon="2.35041">
        <ele>31</ele>
        <time>2013-09-26T20:28:03Z</time>
      </trkpt>
      <trkpt lat="48.8495" lon="2.35053">
        <ele>31</ele>
        <time>2013-09-26T20:28:05Z</time>
      </trkpt>
      <trkpt lat="48.84948" lon="2.35066">
        <ele>31</ele>
        <time>2013-09-26T20:28:07Z</time>
      </trkpt>
      <trkpt lat="48.84947" lon="2.35076">
        <ele>31</ele>
        <time>2013-09-26T20:28:09Z</time>
      </trkpt>
      <trkpt lat="48.84948" lon="2.35088">
        <ele>29</ele>
        <time>2013-09-26T20:28:12Z</time>
      </trkpt>
      <trkpt lat="48.84948" lon="2.35095">
        <ele>28</ele>
        <time>2013-09-26T20:28:14Z</time>
      </trkpt>
      <trkpt lat="48.8495" lon="2.35121">
        <ele>42</ele>
        <time>2013-09-26T20:28:22Z</time>
      </trkpt>
      <trkpt lat="48.8495" lon="2.35133">
        <ele>41</ele>
        <time>2013-09-26T20:28:25Z</time>
      </trkpt>
      <trkpt lat="48.84949" lon="2.35144">
        <ele>44</ele>
        <time>2013-09-26T20:28:27Z</time>
      </trkpt>
      <trkpt lat="48.84948" lon="2.35154">
        <ele>39</ele>
        <time>2013-09-26T20:28:29Z</time>
      </trkpt>
      <trkpt lat="48.84945" lon="2.35175">
        <ele>30</ele>
        <time>2013-09-26T20:28:34Z</time>
      </trkpt>
      <trkpt lat="48.84936" lon="2.35234">
        <ele>44</ele>
        <time>2013-09-26T20:28:46Z</time>
      </trkpt>
      <trkpt lat="48.84935" lon="2.35252">
        <ele>44</ele>
        <time>2013-09-26T20:28:49Z</time>
      </trkpt>
      <trkpt lat="48.84937" lon="2.35267">
        <ele>39</ele>
        <time>2013-09-26T20:28:51Z</time>
      </trkpt>
      <trkpt lat="48.84938" lon="2.35277">
        <ele>39</ele>
        <time>2013-09-26T20:28:53Z</time>
      </trkpt>
      <trkpt lat="48.84938" lon="2.35286">
        <ele>38</ele>
        <time>2013-09-26T20:28:55Z</time>
      </trkpt>
      <trkpt lat="48.84934" lon="2.35345">
        <ele>42</ele>
        <time>2013-09-26T20:29:08Z</time>
      </trkpt>
      <trkpt lat="48.84931" lon="2.35389">
        <ele>43</ele>
        <time>2013-09-26T20:29:16Z</time>
      </trkpt>
      <trkpt lat="48.84931" lon="2.354">
        <ele>41</ele>
        <time>2013-09-26T20:29:19Z</time>
      </trkpt>
      <trkpt lat="48.84932" lon="2.35411">
        <ele>38</ele>
        <time>2013-09-26T20:29:21Z</time>
      </trkpt>
      <trkpt lat="48.84933" lon="2.35423">
        <ele>29</ele>
        <time>2013-09-26T20:29:26Z</time>
      </trkpt>
      <trkpt lat="48.84932" lon="2.35431">
        <ele>32</ele>
        <time>2013-09-26T20:29:29Z</time>
      </trkpt>
      <trkpt lat="48.84933" lon="2.35439">
        <ele>30</ele>
        <time>2013-09-26T20:29:33Z</time>
      </trkpt>
      <trkpt lat="48.8494" lon="2.3547">
        <ele>46</ele>
        <time>2013-09-26T20:29:43Z</time>
      </trkpt>
      <trkpt lat="48.84945" lon="2.35512">
        <ele>45</ele>
        <time>2013-09-26T20:29:54Z</time>
      </trkpt>
      <trkpt lat="48.84946" lon="2.35517">
        <ele>44</ele>
        <time>2013-09-26T20:29:55Z</time>
      </trkpt>
      <trkpt lat="48.84946" lon="2.35526">
        <ele>46</ele>
        <time>2013-09-26T20:29:57Z</time>
      </trkpt>
      <trkpt lat="48.84944" lon="2.35546">
        <ele>40</ele>
        <time>2013-09-26T20:30:01Z</time>
      </trkpt>
      <trkpt lat="48.84941" lon="2.35553">
        <ele>36</ele>
        <time>2013-09-26T20:30:02Z</time>
      </trkpt>
      <trkpt lat="48.84937" lon="2.35566">
        <ele>37</ele>
        <time>2013-09-26T20:30:04Z</time>
      </trkpt>
      <trkpt lat="48.84938" lon="2.35576">
        <ele>39</ele>
        <time>2013-09-26T20:30:06Z</time>
      </trkpt>
      <trkpt lat="48.84944" lon="2.35583">
        <ele>43</ele>
        <time>2013-09-26T20:30:09Z</time>
      </trkpt>
      <trkpt lat="48.84947" lon="2.35589">
        <ele>38</ele>
        <time>2013-09-26T20:30:11Z</time>
      </trkpt>
      <trkpt lat="48.84953" lon="2.35597">
        <ele>35</ele>
        <time>2013-09-26T20:30:14Z</time>
      </trkpt>
      <trkpt lat="48.84958" lon="2.35596">
        <ele>24</ele>
        <time>2013-09-26T20:30:17Z</time>
      </trkpt>
      <trkpt lat="48.84962" lon="2.35588">
        <ele>25</ele>
        <time>2013-09-26T20:30:19Z</time>
      </trkpt>
      <trkpt lat="48.84966" lon="2.35596">
        <ele>28</ele>
        <time>2013-09-26T20:30:30Z</time>
      </trkpt>
      <trkpt lat="48.84965" lon="2.35607">
        <ele>28</ele>
        <time>2013-09-26T20:30:33Z</time>
      </trkpt>
      <trkpt lat="48.84962" lon="2.35614">
        <ele>29</ele>
        <time>2013-09-26T20:30:35Z</time>
      </trkpt>
      <trkpt lat="48.84961" lon="2.35623">
        <ele>30</ele>
        <time>2013-09-26T20:30:38Z</time>
      </trkpt>
      <trkpt lat="48.84957" lon="2.35641">
        <ele>29</ele>
        <time>2013-09-26T20:30:44Z</time>
      </trkpt>
      <trkpt lat="48.84954" lon="2.35647">
        <ele>28</ele>
        <time>2013-09-26T20:30:46Z</time>
      </trkpt>
      <trkpt lat="48.84953" lon="2.35657">
        <ele>27</ele>
        <time>2013-09-26T20:30:48Z</time>
      </trkpt>
      <trkpt lat="48.84953" lon="2.35666">
        <ele>28</ele>
        <time>2013-09-26T20:30:50Z</time>
      </trkpt>
      <trkpt lat="48.84951" lon="2.35674">
        <ele>18</ele>
        <time>2013-09-26T20:30:52Z</time>
      </trkpt>
      <trkpt lat="48.8495" lon="2.35678">
        <ele>17</ele>
        <time>2013-09-26T20:30:53Z</time>
      </trkpt>
      <trkpt lat="48.8495" lon="2.35682">
        <ele>17</ele>
        <time>2013-09-26T20:30:54Z</time>
      </trkpt>
      <trkpt lat="48.8495" lon="2.3569">
        <ele>18</ele>
        <time>2013-09-26T20:30:56Z</time>
      </trkpt>
      <trkpt lat="48.84952" lon="2.357">
        <ele>17</ele>
        <time>2013-09-26T20:30:59Z</time>
      </trkpt>
      <trkpt lat="48.84955" lon="2.3571">
        <ele>27</ele>
        <time>2013-09-26T20:31:01Z</time>
      </trkpt>
      <trkpt lat="48.84964" lon="2.35734">
        <ele>27</ele>
        <time>2013-09-26T20:31:06Z</time>
      </trkpt>
      <trkpt lat="48.84968" lon="2.35743">
        <ele>27</ele>
        <time>2013-09-26T20:31:08Z</time>
      </trkpt>
      <trkpt lat="48.84974" lon="2.35757">
        <ele>33</ele>
        <time>2013-09-26T20:31:11Z</time>
      </trkpt>
      <trkpt lat="48.84977" lon="2.35766">
        <ele>29</ele>
        <time>2013-09-26T20:31:13Z</time>
      </trkpt>
      <trkpt lat="48.85" lon="2.35846">
        <ele>25</ele>
        <time>2013-09-26T20:31:32Z</time>
      </trkpt>
      <trkpt lat="48.85002" lon="2.35855">
        <ele>28</ele>
        <time>2013-09-26T20:31:34Z</time>
      </trkpt>
      <trkpt lat="48.85005" lon="2.35862">
        <ele>28</ele>
        <time>2013-09-26T20:31:36Z</time>
      </trkpt>
      <trkpt lat="48.8501" lon="2.35878">
        <ele>27</ele>
        <time>2013-09-26T20:31:40Z</time>
      </trkpt>
      <trkpt lat="48.85016" lon="2.35898">
        <ele>25</ele>
        <time>2013-09-26T20:31:45Z</time>
      </trkpt>
      <trkpt lat="48.8502" lon="2.35901">
        <ele>21</ele>
        <time>2013-09-26T20:31:47Z</time>
      </trkpt>
      <trkpt lat="48.85021" lon="2.35904">
        <ele>20</ele>
        <time>2013-09-26T20:31:48Z</time>
      </trkpt>
      <trkpt lat="48.8503" lon="2.35922">
        <ele>21</ele>
        <time>2013-09-26T20:31:53Z</time>
      </trkpt>
      <trkpt lat="48.85031" lon="2.3593">
        <ele>19</ele>
        <time>2013-09-26T20:31:55Z</time>
      </trkpt>
      <trkpt lat="48.85035" lon="2.35944">
        <ele>18</ele>
        <time>2013-09-26T20:31:58Z</time>
      </trkpt>
      <trkpt lat="48.85041" lon="2.35963">
        <ele>21</ele>
        <time>2013-09-26T20:32:03Z</time>
      </trkpt>
      <trkpt lat="48.85049" lon="2.35988">
        <ele>32</ele>
        <time>2013-09-26T20:32:09Z</time>
      </trkpt>
      <trkpt lat="48.8505" lon="2.35998">
        <ele>29</ele>
        <time>2013-09-26T20:32:11Z</time>
      </trkpt>
      <trkpt lat="48.85051" lon="2.36003">
        <ele>28</ele>
        <time>2013-09-26T20:32:12Z</time>
      </trkpt>
      <trkpt lat="48.85051" lon="2.36007">
        <ele>27</ele>
        <time>2013-09-26T20:32:13Z</time>
      </trkpt>
      <trkpt lat="48.85051" lon="2.36011">
        <ele>27</ele>
        <time>2013-09-26T20:32:14Z</time>
      </trkpt>
      <trkpt lat="48.85052" lon="2.36016">
        <ele>29</ele>
        <time>2013-09-26T20:32:15Z</time>
      </trkpt>
      <trkpt lat="48.85054" lon="2.36022">
        <ele>27</ele>
        <time>2013-09-26T20:32:17Z</time>
      </trkpt>
      <trkpt lat="48.85058" lon="2.36031">
        <ele>24</ele>
        <time>2013-09-26T20:32:20Z</time>
      </trkpt>
      <trkpt lat="48.85059" lon="2.36036">
        <ele>24</ele>
        <time>2013-09-26T20:32:21Z</time>
      </trkpt>
      <trkpt lat="48.8506" lon="2.3604">
        <ele>24</ele>
        <time>2013-09-26T20:32:22Z</time>
      </trkpt>
      <trkpt lat="48.85066" lon="2.3606">
        <ele>23</ele>
        <time>2013-09-26T20:32:27Z</time>
      </trkpt>
      <trkpt lat="48.85069" lon="2.36067">
        <ele>25</ele>
        <time>2013-09-26T20:32:29Z</time>
      </trkpt>
      <trkpt lat="48.85071" lon="2.36077">
        <ele>22</ele>
        <time>2013-09-26T20:32:31Z</time>
      </trkpt>
      <trkpt lat="48.85074" lon="2.36086">
        <ele>24</ele>
        <time>2013-09-26T20:32:33Z</time>
      </trkpt>
      <trkpt lat="48.85083" lon="2.36115">
        <ele>27</ele>
        <time>2013-09-26T20:32:39Z</time>
      </trkpt>
      <trkpt lat="48.85089" lon="2.36128">
        <ele>23</ele>
        <time>2013-09-26T20:32:43Z</time>
      </trkpt>
      <trkpt lat="48.85094" lon="2.36136">
        <ele>24</ele>
        <time>2013-09-26T20:32:45Z</time>
      </trkpt>
      <trkpt lat="48.85097" lon="2.36143">
        <ele>28</ele>
        <time>2013-09-26T20:32:47Z</time>
      </trkpt>
      <trkpt lat="48.85102" lon="2.36149">
        <ele>27</ele>
        <time>2013-09-26T20:32:49Z</time>
      </trkpt>
      <trkpt lat="48.85106" lon="2.36158">
        <ele>26</ele>
        <time>2013-09-26T20:32:51Z</time>
      </trkpt>
      <trkpt lat="48.8511" lon="2.3617">
        <ele>22</ele>
        <time>2013-09-26T20:32:53Z</time>
      </trkpt>
      <trkpt lat="48.85112" lon="2.36181">
        <ele>25</ele>
        <time>2013-09-26T20:32:55Z</time>
      </trkpt>
      <trkpt lat="48.85115" lon="2.3621">
        <ele>26</ele>
        <time>2013-09-26T20:33:00Z</time>
      </trkpt>
      <trkpt lat="48.85119" lon="2.36219">
        <ele>23</ele>
        <time>2013-09-26T20:33:02Z</time>
      </trkpt>
      <trkpt lat="48.85121" lon="2.36237">
        <ele>25</ele>
        <time>2013-09-26T20:33:06Z</time>
      </trkpt>
      <trkpt lat="48.85121" lon="2.36246">
        <ele>23</ele>
        <time>2013-09-26T20:33:08Z</time>
      </trkpt>
      <trkpt lat="48.85125" lon="2.36253">
        <ele>21</ele>
        <time>2013-09-26T20:33:11Z</time>
      </trkpt>
      <trkpt lat="48.85127" lon="2.36262">
        <ele>26</ele>
        <time>2013-09-26T20:33:13Z</time>
      </trkpt>
      <trkpt lat="48.85132" lon="2.36275">
        <ele>29</ele>
        <time>2013-09-26T20:33:16Z</time>
      </trkpt>
      <trkpt lat="48.85135" lon="2.36284">
        <ele>26</ele>
        <time>2013-09-26T20:33:18Z</time>
      </trkpt>
      <trkpt lat="48.85139" lon="2.36292">
        <ele>24</ele>
        <time>2013-09-26T20:33:20Z</time>
      </trkpt>
      <trkpt lat="48.85144" lon="2.36308">
        <ele>29</ele>
        <time>2013-09-26T20:33:23Z</time>
      </trkpt>
      <trkpt lat="48.85148" lon="2.36325">
        <ele>28</ele>
        <time>2013-09-26T20:33:26Z</time>
      </trkpt>
      <trkpt lat="48.85156" lon="2.36352">
        <ele>30</ele>
        <time>2013-09-26T20:33:32Z</time>
      </trkpt>
      <trkpt lat="48.8516" lon="2.36358">
        <ele>35</ele>
        <time>2013-09-26T20:33:34Z</time>
      </trkpt>
      <trkpt lat="48.85168" lon="2.36373">
        <ele>38</ele>
        <time>2013-09-26T20:33:39Z</time>
      </trkpt>
      <trkpt lat="48.8517" lon="2.36382">
        <ele>42</ele>
        <time>2013-09-26T20:33:41Z</time>
      </trkpt>
      <trkpt lat="48.85173" lon="2.36391">
        <ele>34</ele>
        <time>2013-09-26T20:33:43Z</time>
      </trkpt>
      <trkpt lat="48.85175" lon="2.36401">
        <ele>30</ele>
        <time>2013-09-26T20:33:45Z</time>
      </trkpt>
      <trkpt lat="48.85176" lon="2.3641">
        <ele>27</ele>
        <time>2013-09-26T20:33:47Z</time>
      </trkpt>
      <trkpt lat="48.85177" lon="2.36421">
        <ele>25</ele>
        <time>2013-09-26T20:33:49Z</time>
      </trkpt>
      <trkpt lat="48.85179" lon="2.36432">
        <ele>25</ele>
        <time>2013-09-26T20:33:51Z</time>
      </trkpt>
      <trkpt lat="48.85186" lon="2.3646">
        <ele>29</ele>
        <time>2013-09-26T20:33:57Z</time>
      </trkpt>
      <trkpt lat="48.85189" lon="2.36467">
        <ele>28</ele>
        <time>2013-09-26T20:33:59Z</time>
      </trkpt>
      <trkpt lat="48.85193" lon="2.36479">
        <ele>29</ele>
        <time>2013-09-26T20:34:03Z</time>
      </trkpt>
      <trkpt lat="48.85196" lon="2.36486">
        <ele>35</ele>
        <time>2013-09-26T20:34:05Z</time>
      </trkpt>
      <trkpt lat="48.85199" lon="2.36496">
        <ele>35</ele>
        <time>2013-09-26T20:34:08Z</time>
      </trkpt>
      <trkpt lat="48.852" lon="2.36507">
        <ele>33</ele>
        <time>2013-09-26T20:34:11Z</time>
      </trkpt>
      <trkpt lat="48.85206" lon="2.36515">
        <ele>29</ele>
        <time>2013-09-26T20:34:13Z</time>
      </trkpt>
      <trkpt lat="48.85209" lon="2.36524">
        <ele>40</ele>
        <time>2013-09-26T20:34:15Z</time>
      </trkpt>
      <trkpt lat="48.85215" lon="2.3653">
        <ele>37</ele>
        <time>2013-09-26T20:34:18Z</time>
      </trkpt>
      <trkpt lat="48.85223" lon="2.36542">
        <ele>27</ele>
        <time>2013-09-26T20:34:22Z</time>
      </trkpt>
      <trkpt lat="48.85225" lon="2.3655">
        <ele>21</ele>
        <time>2013-09-26T20:34:24Z</time>
      </trkpt>
      <trkpt lat="48.85228" lon="2.36557">
        <ele>26</ele>
        <time>2013-09-26T20:34:27Z</time>
      </trkpt>
      <trkpt lat="48.8523" lon="2.36568">
        <ele>24</ele>
        <time>2013-09-26T20:34:30Z</time>
      </trkpt>
      <trkpt lat="48.8523" lon="2.36578">
        <ele>27</ele>
        <time>2013-09-26T20:34:32Z</time>
      </trkpt>
      <trkpt lat="48.85231" lon="2.3659">
        <ele>26</ele>
        <time>2013-09-26T20:34:35Z</time>
      </trkpt>
      <trkpt lat="48.85233" lon="2.36598">
        <ele>24</ele>
        <time>2013-09-26T20:34:37Z</time>
      </trkpt>
      <trkpt lat="48.85238" lon="2.3663">
        <ele>15</ele>
        <time>2013-09-26T20:34:45Z</time>
      </trkpt>
      <trkpt lat="48.85239" lon="2.36643">
        <ele>21</ele>
        <time>2013-09-26T20:34:47Z</time>
      </trkpt>
      <trkpt lat="48.85241" lon="2.36651">
        <ele>20</ele>
        <time>2013-09-26T20:34:49Z</time>
      </trkpt>
      <trkpt lat="48.8525" lon="2.36672">
        <ele>17</ele>
        <time>2013-09-26T20:34:55Z</time>
      </trkpt>
      <trkpt lat="48.85253" lon="2.3668">
        <ele>21</ele>
        <time>2013-09-26T20:34:57Z</time>
      </trkpt>
      <trkpt lat="48.85261" lon="2.36707">
        <ele>19</ele>
        <time>2013-09-26T20:35:05Z</time>
      </trkpt>
      <trkpt lat="48.85264" lon="2.3672">
        <ele>22</ele>
        <time>2013-09-26T20:35:08Z</time>
      </trkpt>
      <trkpt lat="48.85266" lon="2.36729">
        <ele>24</ele>
        <time>2013-09-26T20:35:10Z</time>
      </trkpt>
      <trkpt lat="48.8527" lon="2.36741">
        <ele>24</ele>
        <time>2013-09-26T20:35:13Z</time>
      </trkpt>
      <trkpt lat="48.85274" lon="2.36749">
        <ele>24</ele>
        <time>2013-09-26T20:35:15Z</time>
      </trkpt>
      <trkpt lat="48.85279" lon="2.36753">
        <ele>27</ele>
        <time>2013-09-26T20:35:17Z</time>
      </trkpt>
      <trkpt lat="48.85283" lon="2.3676">
        <ele>28</ele>
        <time>2013-09-26T20:35:19Z</time>
      </trkpt>
      <trkpt lat="48.85287" lon="2.36769">
        <ele>27</ele>
        <time>2013-09-26T20:35:22Z</time>
      </trkpt>
      <trkpt lat="48.85287" lon="2.36778">
        <ele>28</ele>
        <time>2013-09-26T20:35:24Z</time>
      </trkpt>
      <trkpt lat="48.85287" lon="2.36792">
        <ele>22</ele>
        <time>2013-09-26T20:35:27Z</time>
      </trkpt>
      <trkpt lat="48.8529" lon="2.368">
        <ele>21</ele>
        <time>2013-09-26T20:35:29Z</time>
      </trkpt>
      <trkpt lat="48.85295" lon="2.36813">
        <ele>22</ele>
        <time>2013-09-26T20:35:33Z</time>
      </trkpt>
      <trkpt lat="48.85302" lon="2.36815">
        <ele>18</ele>
        <time>2013-09-26T20:35:36Z</time>
      </trkpt>
      <trkpt lat="48.85307" lon="2.3682">
        <ele>14</ele>
        <time>2013-09-26T20:35:38Z</time>
      </trkpt>
      <trkpt lat="48.85312" lon="2.3682">
        <ele>11</ele>
        <time>2013-09-26T20:35:40Z</time>
      </trkpt>
      <trkpt lat="48.85316" lon="2.36818">
        <ele>18</ele>
        <time>2013-09-26T20:35:52Z</time>
      </trkpt>
      <trkpt lat="48.85323" lon="2.36822">
        <ele>27</ele>
        <time>2013-09-26T20:36:23Z</time>
      </trkpt>
      <trkpt lat="48.85329" lon="2.36823">
        <ele>24</ele>
        <time>2013-09-26T20:36:27Z</time>
      </trkpt>
      <trkpt lat="48.85335" lon="2.36828">
        <ele>27</ele>
        <time>2013-09-26T20:36:30Z</time>
      </trkpt>
      <trkpt lat="48.85339" lon="2.36834">
        <ele>28</ele>
        <time>2013-09-26T20:36:33Z</time>
      </trkpt>
      <trkpt lat="48.85341" lon="2.36842">
        <ele>33</ele>
        <time>2013-09-26T20:36:36Z</time>
      </trkpt>
      <trkpt lat="48.8534" lon="2.36851">
        <ele>35</ele>
        <time>2013-09-26T20:36:38Z</time>
      </trkpt>
      <trkpt lat="48.85341" lon="2.36859">
        <ele>28</ele>
        <time>2013-09-26T20:36:41Z</time>
      </trkpt>
      <trkpt lat="48.85346" lon="2.36867">
        <ele>30</ele>
        <time>2013-09-26T20:36:46Z</time>
      </trkpt>
      <trkpt lat="48.85351" lon="2.36868">
        <ele>28</ele>
        <time>2013-09-26T20:36:48Z</time>
      </trkpt>
      <trkpt lat="48.85358" lon="2.36867">
        <ele>23</ele>
        <time>2013-09-26T20:36:51Z</time>
      </trkpt>
      <trkpt lat="48.85364" lon="2.36869">
        <ele>35</ele>
        <time>2013-09-26T20:37:18Z</time>
      </trkpt>
      <trkpt lat="48.8537" lon="2.36863">
        <ele>43</ele>
        <time>2013-09-26T20:37:33Z</time>
      </trkpt>
      <trkpt lat="48.85376" lon="2.3686">
        <ele>37</ele>
        <time>2013-09-26T20:37:35Z</time>
      </trkpt>
      <trkpt lat="48.8538" lon="2.36866">
        <ele>23</ele>
        <time>2013-09-26T20:37:39Z</time>
      </trkpt>
      <trkpt lat="48.85379" lon="2.36873">
        <ele>23</ele>
        <time>2013-09-26T20:37:43Z</time>
      </trkpt>
      <trkpt lat="48.85377" lon="2.36883">
        <ele>31</ele>
        <time>2013-09-26T20:37:50Z</time>
      </trkpt>
      <trkpt lat="48.85374" lon="2.3689">
        <ele>23</ele>
        <time>2013-09-26T20:37:53Z</time>
      </trkpt>
      <trkpt lat="48.85374" lon="2.36892">
        <ele>23</ele>
        <time>2013-09-26T20:37:54Z</time>
      </trkpt>
      <trkpt lat="48.85375" lon="2.36897">
        <ele>29</ele>
        <time>2013-09-26T20:38:00Z</time>
      </trkpt>
      <trkpt lat="48.85377" lon="2.36904">
        <ele>40</ele>
        <time>2013-09-26T20:38:13Z</time>
      </trkpt>
      <trkpt lat="48.85378" lon="2.36913">
        <ele>36</ele>
        <time>2013-09-26T20:38:16Z</time>
      </trkpt>
      <trkpt lat="48.85383" lon="2.36919">
        <ele>29</ele>
        <time>2013-09-26T20:38:22Z</time>
      </trkpt>
      <trkpt lat="48.85386" lon="2.36921">
        <ele>28</ele>
        <time>2013-09-26T20:38:23Z</time>
      </trkpt>
      <trkpt lat="48.85388" lon="2.36925">
        <ele>29</ele>
        <time>2013-09-26T20:38:25Z</time>
      </trkpt>
      <trkpt lat="48.85391" lon="2.36933">
        <ele>22</ele>
        <time>2013-09-26T20:38:29Z</time>
      </trkpt>
      <trkpt lat="48.85395" lon="2.36942">
        <ele>30</ele>
        <time>2013-09-26T20:38:33Z</time>
      </trkpt>
      <trkpt lat="48.854" lon="2.36947">
        <ele>29</ele>
        <time>2013-09-26T20:38:35Z</time>
      </trkpt>
      <trkpt lat="48.85412" lon="2.36961">
        <ele>34</ele>
        <time>2013-09-26T20:38:40Z</time>
      </trkpt>
      <trkpt lat="48.8542" lon="2.36964">
        <ele>27</ele>
        <time>2013-09-26T20:38:42Z</time>
      </trkpt>
      <trkpt lat="48.85431" lon="2.36972">
        <ele>25</ele>
        <time>2013-09-26T20:38:45Z</time>
      </trkpt>
      <trkpt lat="48.8545" lon="2.36984">
        <ele>21</ele>
        <time>2013-09-26T20:38:52Z</time>
      </trkpt>
      <trkpt lat="48.85455" lon="2.36991">
        <ele>30</ele>
        <time>2013-09-26T20:38:54Z</time>
      </trkpt>
      <trkpt lat="48.85462" lon="2.36996">
        <ele>27</ele>
        <time>2013-09-26T20:38:56Z</time>
      </trkpt>
      <trkpt lat="48.85481" lon="2.37008">
        <ele>34</ele>
        <time>2013-09-26T20:39:01Z</time>
      </trkpt>
      <trkpt lat="48.85502" lon="2.37018">
        <ele>29</ele>
        <time>2013-09-26T20:39:06Z</time>
      </trkpt>
      <trkpt lat="48.85509" lon="2.37021">
        <ele>26</ele>
        <time>2013-09-26T20:39:08Z</time>
      </trkpt>
      <trkpt lat="48.85515" lon="2.37021">
        <ele>32</ele>
        <time>2013-09-26T20:39:10Z</time>
      </trkpt>
      <trkpt lat="48.85522" lon="2.37019">
        <ele>25</ele>
        <time>2013-09-26T20:39:13Z</time>
      </trkpt>
      <trkpt lat="48.85528" lon="2.37018">
        <ele>26</ele>
        <time>2013-09-26T20:39:15Z</time>
      </trkpt>
      <trkpt lat="48.85538" lon="2.37019">
        <ele>29</ele>
        <time>2013-09-26T20:39:18Z</time>
      </trkpt>
      <trkpt lat="48.85543" lon="2.37024">
        <ele>30</ele>
        <time>2013-09-26T20:39:20Z</time>
      </trkpt>
      <trkpt lat="48.8555" lon="2.37032">
        <ele>30</ele>
        <time>2013-09-26T20:39:23Z</time>
      </trkpt>
      <trkpt lat="48.85559" lon="2.3704">
        <ele>33</ele>
        <time>2013-09-26T20:39:28Z</time>
      </trkpt>
      <trkpt lat="48.85567" lon="2.37042">
        <ele>35</ele>
        <time>2013-09-26T20:39:30Z</time>
      </trkpt>
      <trkpt lat="48.85585" lon="2.37044">
        <ele>33</ele>
        <time>2013-09-26T20:39:35Z</time>
      </trkpt>
      <trkpt lat="48.85601" lon="2.37048">
        <ele>41</ele>
        <time>2013-09-26T20:39:40Z</time>
      </trkpt>
      <trkpt lat="48.85609" lon="2.37055">
        <ele>43</ele>
        <time>2013-09-26T20:39:42Z</time>
      </trkpt>
      <trkpt lat="48.85627" lon="2.37068">
        <ele>41</ele>
        <time>2013-09-26T20:39:47Z</time>
      </trkpt>
      <trkpt lat="48.85637" lon="2.3708">
        <ele>42</ele>
        <time>2013-09-26T20:39:51Z</time>
      </trkpt>
      <trkpt lat="48.85645" lon="2.37086">
        <ele>47</ele>
        <time>2013-09-26T20:39:54Z</time>
      </trkpt>
      <trkpt lat="48.85651" lon="2.37091">
        <ele>44</ele>
        <time>2013-09-26T20:39:56Z</time>
      </trkpt>
      <trkpt lat="48.85659" lon="2.37095">
        <ele>41</ele>
        <time>2013-09-26T20:39:58Z</time>
      </trkpt>
      <trkpt lat="48.85678" lon="2.37103">
        <ele>40</ele>
        <time>2013-09-26T20:40:03Z</time>
      </trkpt>
      <trkpt lat="48.85685" lon="2.37109">
        <ele>44</ele>
        <time>2013-09-26T20:40:05Z</time>
      </trkpt>
      <trkpt lat="48.85693" lon="2.37112">
        <ele>42</ele>
        <time>2013-09-26T20:40:07Z</time>
      </trkpt>
      <trkpt lat="48.85714" lon="2.37121">
        <ele>45</ele>
        <time>2013-09-26T20:40:12Z</time>
      </trkpt>
      <trkpt lat="48.85723" lon="2.37127">
        <ele>39</ele>
        <time>2013-09-26T20:40:14Z</time>
      </trkpt>
      <trkpt lat="48.85778" lon="2.37165">
        <ele>28</ele>
        <time>2013-09-26T20:40:28Z</time>
      </trkpt>
      <trkpt lat="48.85783" lon="2.37169">
        <ele>29</ele>
        <time>2013-09-26T20:40:30Z</time>
      </trkpt>
      <trkpt lat="48.85787" lon="2.37175">
        <ele>35</ele>
        <time>2013-09-26T20:40:34Z</time>
      </trkpt>
      <trkpt lat="48.85792" lon="2.37178">
        <ele>38</ele>
        <time>2013-09-26T20:40:37Z</time>
      </trkpt>
      <trkpt lat="48.85798" lon="2.37179">
        <ele>40</ele>
        <time>2013-09-26T20:40:41Z</time>
      </trkpt>
      <trkpt lat="48.8582" lon="2.37183">
        <ele>39</ele>
        <time>2013-09-26T20:40:48Z</time>
      </trkpt>
      <trkpt lat="48.85827" lon="2.37181">
        <ele>37</ele>
        <time>2013-09-26T20:40:50Z</time>
      </trkpt>
      <trkpt lat="48.85833" lon="2.37181">
        <ele>31</ele>
        <time>2013-09-26T20:40:52Z</time>
      </trkpt>
      <trkpt lat="48.8584" lon="2.37182">
        <ele>37</ele>
        <time>2013-09-26T20:40:54Z</time>
      </trkpt>
      <trkpt lat="48.85852" lon="2.37186">
        <ele>37</ele>
        <time>2013-09-26T20:40:58Z</time>
      </trkpt>
      <trkpt lat="48.85859" lon="2.37191">
        <ele>36</ele>
        <time>2013-09-26T20:41:00Z</time>
      </trkpt>
      <trkpt lat="48.85863" lon="2.37195">
        <ele>32</ele>
        <time>2013-09-26T20:41:01Z</time>
      </trkpt>
      <trkpt lat="48.85868" lon="2.37199">
        <ele>32</ele>
        <time>2013-09-26T20:41:02Z</time>
      </trkpt>
      <trkpt lat="48.85888" lon="2.3721">
        <ele>37</ele>
        <time>2013-09-26T20:41:07Z</time>
      </trkpt>
      <trkpt lat="48.85896" lon="2.37212">
        <ele>39</ele>
        <time>2013-09-26T20:41:09Z</time>
      </trkpt>
      <trkpt lat="48.85901" lon="2.37214">
        <ele>39</ele>
        <time>2013-09-26T20:41:11Z</time>
      </trkpt>
      <trkpt lat="48.85907" lon="2.37219">
        <ele>37</ele>
        <time>2013-09-26T20:41:13Z</time>
      </trkpt>
      <trkpt lat="48.85915" lon="2.37222">
        <ele>36</ele>
        <time>2013-09-26T20:41:15Z</time>
      </trkpt>
      <trkpt lat="48.85922" lon="2.37224">
        <ele>34</ele>
        <time>2013-09-26T20:41:17Z</time>
      </trkpt>
      <trkpt lat="48.85939" lon="2.3723">
        <ele>37</ele>
        <time>2013-09-26T20:41:22Z</time>
      </trkpt>
      <trkpt lat="48.85948" lon="2.37235">
        <ele>37</ele>
        <time>2013-09-26T20:41:24Z</time>
      </trkpt>
      <trkpt lat="48.85963" lon="2.37247">
        <ele>26</ele>
        <time>2013-09-26T20:41:27Z</time>
      </trkpt>
      <trkpt lat="48.85976" lon="2.37255">
        <ele>29</ele>
        <time>2013-09-26T20:41:30Z</time>
      </trkpt>
      <trkpt lat="48.85985" lon="2.37258">
        <ele>24</ele>
        <time>2013-09-26T20:41:32Z</time>
      </trkpt>
      <trkpt lat="48.85996" lon="2.37261">
        <ele>36</ele>
        <time>2013-09-26T20:41:35Z</time>
      </trkpt>
      <trkpt lat="48.86018" lon="2.37265">
        <ele>27</ele>
        <time>2013-09-26T20:41:41Z</time>
      </trkpt>
      <trkpt lat="48.86026" lon="2.37269">
        <ele>26</ele>
        <time>2013-09-26T20:41:43Z</time>
      </trkpt>
      <trkpt lat="48.86035" lon="2.3727">
        <ele>25</ele>
        <time>2013-09-26T20:41:45Z</time>
      </trkpt>
      <trkpt lat="48.86056" lon="2.37274">
        <ele>44</ele>
        <time>2013-09-26T20:41:50Z</time>
      </trkpt>
      <trkpt lat="48.86069" lon="2.37276">
        <ele>42</ele>
        <time>2013-09-26T20:41:53Z</time>
      </trkpt>
      <trkpt lat="48.86085" lon="2.37282">
        <ele>41</ele>
        <time>2013-09-26T20:41:57Z</time>
      </trkpt>
      <trkpt lat="48.86097" lon="2.37283">
        <ele>47</ele>
        <time>2013-09-26T20:42:01Z</time>
      </trkpt>
      <trkpt lat="48.86104" lon="2.37286">
        <ele>45</ele>
        <time>2013-09-26T20:42:03Z</time>
      </trkpt>
      <trkpt lat="48.86112" lon="2.37287">
        <ele>53</ele>
        <time>2013-09-26T20:42:05Z</time>
      </trkpt>
      <trkpt lat="48.86118" lon="2.37287">
        <ele>51</ele>
        <time>2013-09-26T20:42:07Z</time>
      </trkpt>
      <trkpt lat="48.86125" lon="2.37285">
        <ele>56</ele>
        <time>2013-09-26T20:42:09Z</time>
      </trkpt>
      <trkpt lat="48.86132" lon="2.37284">
        <ele>60</ele>
        <time>2013-09-26T20:42:11Z</time>
      </trkpt>
      <trkpt lat="48.86138" lon="2.37282">
        <ele>61</ele>
        <time>2013-09-26T20:42:13Z</time>
      </trkpt>
      <trkpt lat="48.86158" lon="2.37279">
        <ele>54</ele>
        <time>2013-09-26T20:42:18Z</time>
      </trkpt>
      <trkpt lat="48.86167" lon="2.37279">
        <ele>59</ele>
        <time>2013-09-26T20:42:21Z</time>
      </trkpt>
      <trkpt lat="48.86173" lon="2.37282">
        <ele>49</ele>
        <time>2013-09-26T20:42:23Z</time>
      </trkpt>
      <trkpt lat="48.8618" lon="2.37284">
        <ele>45</ele>
        <time>2013-09-26T20:42:26Z</time>
      </trkpt>
      <trkpt lat="48.86187" lon="2.37282">
        <ele>49</ele>
        <time>2013-09-26T20:42:29Z</time>
      </trkpt>
      <trkpt lat="48.86193" lon="2.37279">
        <ele>49</ele>
        <time>2013-09-26T20:42:31Z</time>
      </trkpt>
      <trkpt lat="48.86198" lon="2.37275">
        <ele>39</ele>
        <time>2013-09-26T20:42:34Z</time>
      </trkpt>
      <trkpt lat="48.86207" lon="2.37271">
        <ele>38</ele>
        <time>2013-09-26T20:42:38Z</time>
      </trkpt>
      <trkpt lat="48.86212" lon="2.37271">
        <ele>32</ele>
        <time>2013-09-26T20:42:40Z</time>
      </trkpt>
      <trkpt lat="48.86218" lon="2.37266">
        <ele>39</ele>
        <time>2013-09-26T20:42:43Z</time>
      </trkpt>
      <trkpt lat="48.86223" lon="2.37259">
        <ele>37</ele>
        <time>2013-09-26T20:42:47Z</time>
      </trkpt>
      <trkpt lat="48.86233" lon="2.37249">
        <ele>34</ele>
        <time>2013-09-26T20:42:52Z</time>
      </trkpt>
      <trkpt lat="48.86238" lon="2.37242">
        <ele>38</ele>
        <time>2013-09-26T20:42:55Z</time>
      </trkpt>
      <trkpt lat="48.86244" lon="2.37238">
        <ele>40</ele>
        <time>2013-09-26T20:42:57Z</time>
      </trkpt>
      <trkpt lat="48.86249" lon="2.3723">
        <ele>41</ele>
        <time>2013-09-26T20:42:59Z</time>
      </trkpt>
      <trkpt lat="48.86253" lon="2.37224">
        <ele>43</ele>
        <time>2013-09-26T20:43:01Z</time>
      </trkpt>
      <trkpt lat="48.86258" lon="2.37216">
        <ele>38</ele>
        <time>2013-09-26T20:43:04Z</time>
      </trkpt>
      <trkpt lat="48.86262" lon="2.37223">
        <ele>44</ele>
        <time>2013-09-26T20:43:20Z</time>
      </trkpt>
      <trkpt lat="48.86268" lon="2.37227">
        <ele>52</ele>
        <time>2013-09-26T20:43:24Z</time>
      </trkpt>
      <trkpt lat="48.86276" lon="2.37225">
        <ele>40</ele>
        <time>2013-09-26T20:43:28Z</time>
      </trkpt>
      <trkpt lat="48.86289" lon="2.37219">
        <ele>38</ele>
        <time>2013-09-26T20:43:32Z</time>
      </trkpt>
      <trkpt lat="48.86294" lon="2.37214">
        <ele>35</ele>
        <time>2013-09-26T20:43:34Z</time>
      </trkpt>
      <trkpt lat="48.86302" lon="2.37205">
        <ele>43</ele>
        <time>2013-09-26T20:43:37Z</time>
      </trkpt>
      <trkpt lat="48.86318" lon="2.37189">
        <ele>40</ele>
        <time>2013-09-26T20:43:43Z</time>
      </trkpt>
      <trkpt lat="48.86324" lon="2.37186">
        <ele>41</ele>
        <time>2013-09-26T20:43:45Z</time>
      </trkpt>
      <trkpt lat="48.86343" lon="2.37171">
        <ele>45</ele>
        <time>2013-09-26T20:43:53Z</time>
      </trkpt>
      <trkpt lat="48.86348" lon="2.37166">
        <ele>44</ele>
        <time>2013-09-26T20:43:55Z</time>
      </trkpt>
      <trkpt lat="48.86354" lon="2.37162">
        <ele>45</ele>
        <time>2013-09-26T20:43:57Z</time>
      </trkpt>
      <trkpt lat="48.8637" lon="2.37148">
        <ele>43</ele>
        <time>2013-09-26T20:44:04Z</time>
      </trkpt>
      <trkpt lat="48.86381" lon="2.37142">
        <ele>43</ele>
        <time>2013-09-26T20:44:08Z</time>
      </trkpt>
      <trkpt lat="48.86399" lon="2.37133">
        <ele>41</ele>
        <time>2013-09-26T20:44:15Z</time>
      </trkpt>
      <trkpt lat="48.86405" lon="2.37132">
        <ele>38</ele>
        <time>2013-09-26T20:44:18Z</time>
      </trkpt>
      <trkpt lat="48.8641" lon="2.37131">
        <ele>33</ele>
        <time>2013-09-26T20:44:23Z</time>
      </trkpt>
      <trkpt lat="48.86416" lon="2.37134">
        <ele>34</ele>
        <time>2013-09-26T20:44:28Z</time>
      </trkpt>
      <trkpt lat="48.86421" lon="2.37137">
        <ele>33</ele>
        <time>2013-09-26T20:44:31Z</time>
      </trkpt>
      <trkpt lat="48.86424" lon="2.37145">
        <ele>35</ele>
        <time>2013-09-26T20:44:35Z</time>
      </trkpt>
      <trkpt lat="48.86428" lon="2.37157">
        <ele>31</ele>
        <time>2013-09-26T20:44:38Z</time>
      </trkpt>
      <trkpt lat="48.86433" lon="2.37172">
        <ele>22</ele>
        <time>2013-09-26T20:44:44Z</time>
      </trkpt>
      <trkpt lat="48.86437" lon="2.37178">
        <ele>21</ele>
        <time>2013-09-26T20:44:48Z</time>
      </trkpt>
      <trkpt lat="48.8644" lon="2.37186">
        <ele>36</ele>
        <time>2013-09-26T20:44:54Z</time>
      </trkpt>
      <trkpt lat="48.86449" lon="2.37202">
        <ele>41</ele>
        <time>2013-09-26T20:45:00Z</time>
      </trkpt>
      <trkpt lat="48.86456" lon="2.37211">
        <ele>40</ele>
        <time>2013-09-26T20:45:02Z</time>
      </trkpt>
      <trkpt lat="48.86463" lon="2.37224">
        <ele>36</ele>
        <time>2013-09-26T20:45:05Z</time>
      </trkpt>
      <trkpt lat="48.86467" lon="2.37233">
        <ele>33</ele>
        <time>2013-09-26T20:45:08Z</time>
      </trkpt>
      <trkpt lat="48.86468" lon="2.3724">
        <ele>34</ele>
        <time>2013-09-26T20:45:10Z</time>
      </trkpt>
      <trkpt lat="48.86469" lon="2.37251">
        <ele>35</ele>
        <time>2013-09-26T20:45:12Z</time>
      </trkpt>
      <trkpt lat="48.86471" lon="2.37282">
        <ele>28</ele>
        <time>2013-09-26T20:45:18Z</time>
      </trkpt>
      <trkpt lat="48.86473" lon="2.3729">
        <ele>35</ele>
        <time>2013-09-26T20:45:20Z</time>
      </trkpt>
      <trkpt lat="48.86475" lon="2.37298">
        <ele>37</ele>
        <time>2013-09-26T20:45:22Z</time>
      </trkpt>
      <trkpt lat="48.86478" lon="2.37306">
        <ele>39</ele>
        <time>2013-09-26T20:45:26Z</time>
      </trkpt>
      <trkpt lat="48.8648" lon="2.37315">
        <ele>34</ele>
        <time>2013-09-26T20:45:29Z</time>
      </trkpt>
      <trkpt lat="48.86487" lon="2.37345">
        <ele>27</ele>
        <time>2013-09-26T20:45:35Z</time>
      </trkpt>
      <trkpt lat="48.8649" lon="2.37356">
        <ele>26</ele>
        <time>2013-09-26T20:45:37Z</time>
      </trkpt>
      <trkpt lat="48.86498" lon="2.37374">
        <ele>38</ele>
        <time>2013-09-26T20:45:41Z</time>
      </trkpt>
      <trkpt lat="48.86502" lon="2.37379">
        <ele>35</ele>
        <time>2013-09-26T20:45:43Z</time>
      </trkpt>
      <trkpt lat="48.86508" lon="2.37385">
        <ele>35</ele>
        <time>2013-09-26T20:45:46Z</time>
      </trkpt>
      <trkpt lat="48.86514" lon="2.37389">
        <ele>33</ele>
        <time>2013-09-26T20:45:50Z</time>
      </trkpt>
      <trkpt lat="48.86511" lon="2.37398">
        <ele>39</ele>
        <time>2013-09-26T20:46:00Z</time>
      </trkpt>
      <trkpt lat="48.86512" lon="2.37408">
        <ele>39</ele>
        <time>2013-09-26T20:46:03Z</time>
      </trkpt>
      <trkpt lat="48.86511" lon="2.37427">
        <ele>40</ele>
        <time>2013-09-26T20:46:07Z</time>
      </trkpt>
      <trkpt lat="48.86512" lon="2.37455">
        <ele>36</ele>
        <time>2013-09-26T20:46:14Z</time>
      </trkpt>
      <trkpt lat="48.8651" lon="2.37463">
        <ele>32</ele>
        <time>2013-09-26T20:46:17Z</time>
      </trkpt>
      <trkpt lat="48.86508" lon="2.37479">
        <ele>36</ele>
        <time>2013-09-26T20:46:22Z</time>
      </trkpt>
      <trkpt lat="48.86509" lon="2.37487">
        <ele>39</ele>
        <time>2013-09-26T20:46:26Z</time>
      </trkpt>
      <trkpt lat="48.86509" lon="2.37496">
        <ele>44</ele>
        <time>2013-09-26T20:46:28Z</time>
      </trkpt>
      <trkpt lat="48.86506" lon="2.37509">
        <ele>36</ele>
        <time>2013-09-26T20:46:41Z</time>
      </trkpt>
      <trkpt lat="48.86504" lon="2.37517">
        <ele>31</ele>
        <time>2013-09-26T20:46:44Z</time>
      </trkpt>
      <trkpt lat="48.86507" lon="2.37526">
        <ele>29</ele>
        <time>2013-09-26T20:46:47Z</time>
      </trkpt>
      <trkpt lat="48.8651" lon="2.37533">
        <ele>33</ele>
        <time>2013-09-26T20:46:49Z</time>
      </trkpt>
      <trkpt lat="48.86512" lon="2.37542">
        <ele>34</ele>
        <time>2013-09-26T20:46:51Z</time>
      </trkpt>
      <trkpt lat="48.86515" lon="2.37563">
        <ele>36</ele>
        <time>2013-09-26T20:46:56Z</time>
      </trkpt>
      <trkpt lat="48.86518" lon="2.37575">
        <ele>42</ele>
        <time>2013-09-26T20:46:59Z</time>
      </trkpt>
      <trkpt lat="48.86521" lon="2.37582">
        <ele>39</ele>
        <time>2013-09-26T20:47:01Z</time>
      </trkpt>
      <trkpt lat="48.86523" lon="2.3759">
        <ele>35</ele>
        <time>2013-09-26T20:47:03Z</time>
      </trkpt>
      <trkpt lat="48.86529" lon="2.37616">
        <ele>38</ele>
        <time>2013-09-26T20:47:08Z</time>
      </trkpt>
      <trkpt lat="48.86531" lon="2.37631">
        <ele>31</ele>
        <time>2013-09-26T20:47:11Z</time>
      </trkpt>
      <trkpt lat="48.86532" lon="2.37641">
        <ele>32</ele>
        <time>2013-09-26T20:47:13Z</time>
      </trkpt>
      <trkpt lat="48.86534" lon="2.37659">
        <ele>37</ele>
        <time>2013-09-26T20:47:17Z</time>
      </trkpt>
      <trkpt lat="48.86537" lon="2.37674">
        <ele>40</ele>
        <time>2013-09-26T20:47:20Z</time>
      </trkpt>
      <trkpt lat="48.86539" lon="2.37682">
        <ele>39</ele>
        <time>2013-09-26T20:47:22Z</time>
      </trkpt>
      <trkpt lat="48.86544" lon="2.3769">
        <ele>44</ele>
        <time>2013-09-26T20:47:25Z</time>
      </trkpt>
      <trkpt lat="48.86547" lon="2.37698">
        <ele>43</ele>
        <time>2013-09-26T20:47:28Z</time>
      </trkpt>
      <trkpt lat="48.86551" lon="2.37704">
        <ele>31</ele>
        <time>2013-09-26T20:47:34Z</time>
      </trkpt>
      <trkpt lat="48.86563" lon="2.37728">
        <ele>38</ele>
        <time>2013-09-26T20:47:41Z</time>
      </trkpt>
      <trkpt lat="48.86567" lon="2.37736">
        <ele>42</ele>
        <time>2013-09-26T20:47:43Z</time>
      </trkpt>
      <trkpt lat="48.86572" lon="2.37744">
        <ele>37</ele>
        <time>2013-09-26T20:47:45Z</time>
      </trkpt>
      <trkpt lat="48.86579" lon="2.37758">
        <ele>32</ele>
        <time>2013-09-26T20:47:48Z</time>
      </trkpt>
      <trkpt lat="48.8658" lon="2.37768">
        <ele>33</ele>
        <time>2013-09-26T20:47:50Z</time>
      </trkpt>
      <trkpt lat="48.86583" lon="2.3778">
        <ele>32</ele>
        <time>2013-09-26T20:47:52Z</time>
      </trkpt>
      <trkpt lat="48.8659" lon="2.37807">
        <ele>39</ele>
        <time>2013-09-26T20:47:57Z</time>
      </trkpt>
      <trkpt lat="48.86592" lon="2.3782">
        <ele>38</ele>
        <time>2013-09-26T20:47:59Z</time>
      </trkpt>
      <trkpt lat="48.86598" lon="2.37847">
        <ele>42</ele>
        <time>2013-09-26T20:48:03Z</time>
      </trkpt>
      <trkpt lat="48.86601" lon="2.3786">
        <ele>40</ele>
        <time>2013-09-26T20:48:05Z</time>
      </trkpt>
      <trkpt lat="48.8663" lon="2.3798">
        <ele>43</ele>
        <time>2013-09-26T20:48:25Z</time>
      </trkpt>
      <trkpt lat="48.86638" lon="2.3802">
        <ele>43</ele>
        <time>2013-09-26T20:48:32Z</time>
      </trkpt>
      <trkpt lat="48.86639" lon="2.38029">
        <ele>44</ele>
        <time>2013-09-26T20:48:34Z</time>
      </trkpt>
      <trkpt lat="48.86641" lon="2.38038">
        <ele>39</ele>
        <time>2013-09-26T20:48:37Z</time>
      </trkpt>
      <trkpt lat="48.86642" lon="2.38046">
        <ele>50</ele>
        <time>2013-09-26T20:48:43Z</time>
      </trkpt>
      <trkpt lat="48.86642" lon="2.38054">
        <ele>51</ele>
        <time>2013-09-26T20:48:45Z</time>
      </trkpt>
      <trkpt lat="48.86644" lon="2.38068">
        <ele>51</ele>
        <time>2013-09-26T20:48:49Z</time>
      </trkpt>
      <trkpt lat="48.86646" lon="2.38075">
        <ele>44</ele>
        <time>2013-09-26T20:48:51Z</time>
      </trkpt>
      <trkpt lat="48.86653" lon="2.38095">
        <ele>50</ele>
        <time>2013-09-26T20:48:57Z</time>
      </trkpt>
      <trkpt lat="48.86655" lon="2.38102">
        <ele>49</ele>
        <time>2013-09-26T20:48:59Z</time>
      </trkpt>
      <trkpt lat="48.86655" lon="2.38111">
        <ele>52</ele>
        <time>2013-09-26T20:49:01Z</time>
      </trkpt>
      <trkpt lat="48.86656" lon="2.38122">
        <ele>46</ele>
        <time>2013-09-26T20:49:03Z</time>
      </trkpt>
      <trkpt lat="48.86657" lon="2.38129">
        <ele>48</ele>
        <time>2013-09-26T20:49:05Z</time>
      </trkpt>
      <trkpt lat="48.86659" lon="2.38138">
        <ele>47</ele>
        <time>2013-09-26T20:49:08Z</time>
      </trkpt>
      <trkpt lat="48.8666" lon="2.38146">
        <ele>50</ele>
        <time>2013-09-26T20:49:12Z</time>
      </trkpt>
      <trkpt lat="48.86658" lon="2.38157">
        <ele>57</ele>
        <time>2013-09-26T20:49:16Z</time>
      </trkpt>
      <trkpt lat="48.8666" lon="2.38167">
        <ele>50</ele>
        <time>2013-09-26T20:49:19Z</time>
      </trkpt>
      <trkpt lat="48.86663" lon="2.38173">
        <ele>47</ele>
        <time>2013-09-26T20:49:21Z</time>
      </trkpt>
      <trkpt lat="48.86671" lon="2.38182">
        <ele>45</ele>
        <time>2013-09-26T20:49:25Z</time>
      </trkpt>
      <trkpt lat="48.86678" lon="2.38188">
        <ele>43</ele>
        <time>2013-09-26T20:49:27Z</time>
      </trkpt>
      <trkpt lat="48.86682" lon="2.38192">
        <ele>49</ele>
        <time>2013-09-26T20:49:29Z</time>
      </trkpt>
      <trkpt lat="48.86685" lon="2.38199">
        <ele>50</ele>
        <time>2013-09-26T20:49:32Z</time>
      </trkpt>
      <trkpt lat="48.86688" lon="2.38208">
        <ele>58</ele>
        <time>2013-09-26T20:49:35Z</time>
      </trkpt>
      <trkpt lat="48.867" lon="2.38233">
        <ele>49</ele>
        <time>2013-09-26T20:49:43Z</time>
      </trkpt>
      <trkpt lat="48.86701" lon="2.38242">
        <ele>56</ele>
        <time>2013-09-26T20:49:45Z</time>
      </trkpt>
      <trkpt lat="48.86699" lon="2.38258">
        <ele>52</ele>
        <time>2013-09-26T20:49:52Z</time>
      </trkpt>
      <trkpt lat="48.86698" lon="2.38267">
        <ele>49</ele>
        <time>2013-09-26T20:49:54Z</time>
      </trkpt>
      <trkpt lat="48.86695" lon="2.38273">
        <ele>41</ele>
        <time>2013-09-26T20:49:56Z</time>
      </trkpt>
      <trkpt lat="48.86693" lon="2.38281">
        <ele>55</ele>
        <time>2013-09-26T20:50:07Z</time>
      </trkpt>
      <trkpt lat="48.86691" lon="2.38278">
        <ele>57</ele>
        <time>2013-09-26T20:50:20Z</time>
      </trkpt>
      <trkpt lat="48.86696" lon="2.38274">
        <ele>56</ele>
        <time>2013-09-26T20:50:29Z</time>
      </trkpt>
      <trkpt lat="48.867" lon="2.38281">
        <ele>49</ele>
        <time>2013-09-26T20:50:38Z</time>
      </trkpt>
      <trkpt lat="48.86704" lon="2.38286">
        <ele>49</ele>
        <time>2013-09-26T20:50:40Z</time>
      </trkpt>
      <trkpt lat="48.8671" lon="2.38289">
        <ele>50</ele>
        <time>2013-09-26T20:50:43Z</time>
      </trkpt>
      <trkpt lat="48.86717" lon="2.3829">
        <ele>52</ele>
        <time>2013-09-26T20:50:46Z</time>
      </trkpt>
      <trkpt lat="48.86723" lon="2.38289">
        <ele>45</ele>
        <time>2013-09-26T20:50:48Z</time>
      </trkpt>
      <trkpt lat="48.86731" lon="2.38288">
        <ele>48</ele>
        <time>2013-09-26T20:50:51Z</time>
      </trkpt>
      <trkpt lat="48.86737" lon="2.38286">
        <ele>40</ele>
        <time>2013-09-26T20:50:55Z</time>
      </trkpt>
      <trkpt lat="48.86741" lon="2.38282">
        <ele>42</ele>
        <time>2013-09-26T20:50:58Z</time>
      </trkpt>
      <trkpt lat="48.86745" lon="2.38277">
        <ele>42</ele>
        <time>2013-09-26T20:51:00Z</time>
      </trkpt>
      <trkpt lat="48.86753" lon="2.38266">
        <ele>47</ele>
        <time>2013-09-26T20:51:03Z</time>
      </trkpt>
      <trkpt lat="48.86758" lon="2.38255">
        <ele>53</ele>
        <time>2013-09-26T20:51:05Z</time>
      </trkpt>
      <trkpt lat="48.86763" lon="2.38247">
        <ele>55</ele>
        <time>2013-09-26T20:51:07Z</time>
      </trkpt>
      <trkpt lat="48.8677" lon="2.38236">
        <ele>55</ele>
        <time>2013-09-26T20:51:10Z</time>
      </trkpt>
      <trkpt lat="48.86774" lon="2.3823">
        <ele>53</ele>
        <time>2013-09-26T20:51:12Z</time>
      </trkpt>
      <trkpt lat="48.86784" lon="2.38213">
        <ele>49</ele>
        <time>2013-09-26T20:51:17Z</time>
      </trkpt>
      <trkpt lat="48.86789" lon="2.38208">
        <ele>47</ele>
        <time>2013-09-26T20:51:19Z</time>
      </trkpt>
      <trkpt lat="48.86805" lon="2.38188">
        <ele>41</ele>
        <time>2013-09-26T20:51:26Z</time>
      </trkpt>
      <trkpt lat="48.86822" lon="2.38172">
        <ele>53</ele>
        <time>2013-09-26T20:51:32Z</time>
      </trkpt>
      <trkpt lat="48.86828" lon="2.38168">
        <ele>50</ele>
        <time>2013-09-26T20:51:34Z</time>
      </trkpt>
      <trkpt lat="48.86834" lon="2.38166">
        <ele>55</ele>
        <time>2013-09-26T20:51:36Z</time>
      </trkpt>
      <trkpt lat="48.86839" lon="2.38161">
        <ele>53</ele>
        <time>2013-09-26T20:51:38Z</time>
      </trkpt>
      <trkpt lat="48.86843" lon="2.38155">
        <ele>48</ele>
        <time>2013-09-26T20:51:40Z</time>
      </trkpt>
      <trkpt lat="48.86855" lon="2.38142">
        <ele>40</ele>
        <time>2013-09-26T20:51:45Z</time>
      </trkpt>
      <trkpt lat="48.86861" lon="2.38132">
        <ele>42</ele>
        <time>2013-09-26T20:51:48Z</time>
      </trkpt>
      <trkpt lat="48.86865" lon="2.38125">
        <ele>46</ele>
        <time>2013-09-26T20:51:50Z</time>
      </trkpt>
      <trkpt lat="48.86868" lon="2.38119">
        <ele>45</ele>
        <time>2013-09-26T20:51:52Z</time>
      </trkpt>
      <trkpt lat="48.86871" lon="2.3811">
        <ele>43</ele>
        <time>2013-09-26T20:51:55Z</time>
      </trkpt>
      <trkpt lat="48.8688" lon="2.38084">
        <ele>52</ele>
        <time>2013-09-26T20:52:04Z</time>
      </trkpt>
      <trkpt lat="48.86885" lon="2.38076">
        <ele>53</ele>
        <time>2013-09-26T20:52:07Z</time>
      </trkpt>
      <trkpt lat="48.86889" lon="2.38071">
        <ele>52</ele>
        <time>2013-09-26T20:52:09Z</time>
      </trkpt>
      <trkpt lat="48.86894" lon="2.38059">
        <ele>49</ele>
        <time>2013-09-26T20:52:13Z</time>
      </trkpt>
      <trkpt lat="48.86897" lon="2.38052">
        <ele>53</ele>
        <time>2013-09-26T20:52:15Z</time>
      </trkpt>
      <trkpt lat="48.86903" lon="2.38045">
        <ele>56</ele>
        <time>2013-09-26T20:52:18Z</time>
      </trkpt>
      <trkpt lat="48.86908" lon="2.38041">
        <ele>51</ele>
        <time>2013-09-26T20:52:22Z</time>
      </trkpt>
      <trkpt lat="48.86926" lon="2.38025">
        <ele>51</ele>
        <time>2013-09-26T20:52:31Z</time>
      </trkpt>
      <trkpt lat="48.86933" lon="2.38018">
        <ele>46</ele>
        <time>2013-09-26T20:52:34Z</time>
      </trkpt>
      <trkpt lat="48.86948" lon="2.38002">
        <ele>60</ele>
        <time>2013-09-26T20:52:41Z</time>
      </trkpt>
      <trkpt lat="48.86958" lon="2.3799">
        <ele>60</ele>
        <time>2013-09-26T20:52:48Z</time>
      </trkpt>
      <trkpt lat="48.86962" lon="2.37982">
        <ele>56</ele>
        <time>2013-09-26T20:52:52Z</time>
      </trkpt>
      <trkpt lat="48.86968" lon="2.37973">
        <ele>56</ele>
        <time>2013-09-26T20:52:56Z</time>
      </trkpt>
      <trkpt lat="48.86973" lon="2.37968">
        <ele>61</ele>
        <time>2013-09-26T20:52:59Z</time>
      </trkpt>
      <trkpt lat="48.87004" lon="2.37935">
        <ele>65</ele>
        <time>2013-09-26T20:53:11Z</time>
      </trkpt>
      <trkpt lat="48.8701" lon="2.37927">
        <ele>62</ele>
        <time>2013-09-26T20:53:13Z</time>
      </trkpt>
      <trkpt lat="48.87026" lon="2.37909">
        <ele>61</ele>
        <time>2013-09-26T20:53:18Z</time>
      </trkpt>
      <trkpt lat="48.87041" lon="2.37891">
        <ele>53</ele>
        <time>2013-09-26T20:53:23Z</time>
      </trkpt>
      <trkpt lat="48.87048" lon="2.37882">
        <ele>50</ele>
        <time>2013-09-26T20:53:25Z</time>
      </trkpt>
      <trkpt lat="48.87057" lon="2.37867">
        <ele>52</ele>
        <time>2013-09-26T20:53:28Z</time>
      </trkpt>
      <trkpt lat="48.8707" lon="2.37844">
        <ele>48</ele>
        <time>2013-09-26T20:53:33Z</time>
      </trkpt>
      <trkpt lat="48.87085" lon="2.37824">
        <ele>46</ele>
        <time>2013-09-26T20:53:39Z</time>
      </trkpt>
      <trkpt lat="48.87093" lon="2.37816">
        <ele>50</ele>
        <time>2013-09-26T20:53:43Z</time>
      </trkpt>
      <trkpt lat="48.87127" lon="2.37779">
        <ele>51</ele>
        <time>2013-09-26T20:53:55Z</time>
      </trkpt>
      <trkpt lat="48.87134" lon="2.37771">
        <ele>49</ele>
        <time>2013-09-26T20:53:57Z</time>
      </trkpt>
      <trkpt lat="48.87166" lon="2.37734">
        <ele>44</ele>
        <time>2013-09-26T20:54:08Z</time>
      </trkpt>
      <trkpt lat="48.87176" lon="2.37726">
        <ele>48</ele>
        <time>2013-09-26T20:54:13Z</time>
      </trkpt>
      <trkpt lat="48.87181" lon="2.37724">
        <ele>54</ele>
        <time>2013-09-26T20:54:16Z</time>
      </trkpt>
      <trkpt lat="48.87188" lon="2.37718">
        <ele>60</ele>
        <time>2013-09-26T20:54:20Z</time>
      </trkpt>
      <trkpt lat="48.87196" lon="2.37717">
        <ele>59</ele>
        <time>2013-09-26T20:54:23Z</time>
      </trkpt>
      <trkpt lat="48.87201" lon="2.37715">
        <ele>59</ele>
        <time>2013-09-26T20:54:25Z</time>
      </trkpt>
      <trkpt lat="48.87209" lon="2.37711">
        <ele>70</ele>
        <time>2013-09-26T20:54:29Z</time>
      </trkpt>
      <trkpt lat="48.87213" lon="2.37703">
        <ele>75</ele>
        <time>2013-09-26T20:54:33Z</time>
      </trkpt>
      <trkpt lat="48.87219" lon="2.37694">
        <ele>65</ele>
        <time>2013-09-26T20:54:36Z</time>
      </trkpt>
      <trkpt lat="48.87225" lon="2.37691">
        <ele>55</ele>
        <time>2013-09-26T20:54:40Z</time>
      </trkpt>
      <trkpt lat="48.87227" lon="2.37682">
        <ele>45</ele>
        <time>2013-09-26T20:54:45Z</time>
      </trkpt>
      <trkpt lat="48.87234" lon="2.37677">
        <ele>54</ele>
        <time>2013-09-26T20:54:52Z</time>
      </trkpt>
      <trkpt lat="48.87241" lon="2.37677">
        <ele>62</ele>
        <time>2013-09-26T20:54:55Z</time>
      </trkpt>
      <trkpt lat="48.87251" lon="2.37675">
        <ele>72</ele>
        <time>2013-09-26T20:55:02Z</time>
      </trkpt>
      <trkpt lat="48.87257" lon="2.37667">
        <ele>70</ele>
        <time>2013-09-26T20:55:05Z</time>
      </trkpt>
      <trkpt lat="48.87262" lon="2.37663">
        <ele>66</ele>
        <time>2013-09-26T20:55:08Z</time>
      </trkpt>
      <trkpt lat="48.87269" lon="2.37655">
        <ele>70</ele>
        <time>2013-09-26T20:55:11Z</time>
      </trkpt>
      <trkpt lat="48.87281" lon="2.37637">
        <ele>71</ele>
        <time>2013-09-26T20:55:18Z</time>
      </trkpt>
      <trkpt lat="48.87289" lon="2.37628">
        <ele>76</ele>
        <time>2013-09-26T20:55:22Z</time>
      </trkpt>
      <trkpt lat="48.87305" lon="2.37612">
        <ele>78</ele>
        <time>2013-09-26T20:55:31Z</time>
      </trkpt>
      <trkpt lat="48.8731" lon="2.37604">
        <ele>80</ele>
        <time>2013-09-26T20:55:34Z</time>
      </trkpt>
      <trkpt lat="48.87316" lon="2.37597">
        <ele>86</ele>
        <time>2013-09-26T20:55:38Z</time>
      </trkpt>
      <trkpt lat="48.87321" lon="2.37592">
        <ele>86</ele>
        <time>2013-09-26T20:55:41Z</time>
      </trkpt>
      <trkpt lat="48.87327" lon="2.37589">
        <ele>89</ele>
        <time>2013-09-26T20:55:44Z</time>
      </trkpt>
      <trkpt lat="48.87367" lon="2.37565">
        <ele>46</ele>
        <time>2013-09-26T20:56:03Z</time>
      </trkpt>
      <trkpt lat="48.87364" lon="2.37552">
        <ele>60</ele>
        <time>2013-09-26T20:56:27Z</time>
      </trkpt>
      <trkpt lat="48.87365" lon="2.37543">
        <ele>65</ele>
        <time>2013-09-26T20:56:30Z</time>
      </trkpt>
      <trkpt lat="48.87367" lon="2.37536">
        <ele>85</ele>
        <time>2013-09-26T20:56:38Z</time>
      </trkpt>
      <trkpt lat="48.87377" lon="2.37526">
        <ele>48</ele>
        <time>2013-09-26T20:56:59Z</time>
      </trkpt>
      <trkpt lat="48.87394" lon="2.37509">
        <ele>54</ele>
        <time>2013-09-26T20:57:07Z</time>
      </trkpt>
      <trkpt lat="48.87404" lon="2.37494">
        <ele>58</ele>
        <time>2013-09-26T20:57:10Z</time>
      </trkpt>
      <trkpt lat="48.87406" lon="2.37487">
        <ele>56</ele>
        <time>2013-09-26T20:57:11Z</time>
      </trkpt>
      <trkpt lat="48.87411" lon="2.37472">
        <ele>60</ele>
        <time>2013-09-26T20:57:14Z</time>
      </trkpt>
      <trkpt lat="48.87416" lon="2.37465">
        <ele>58</ele>
        <time>2013-09-26T20:57:17Z</time>
      </trkpt>
      <trkpt lat="48.87422" lon="2.37458">
        <ele>58</ele>
        <time>2013-09-26T20:57:21Z</time>
      </trkpt>
      <trkpt lat="48.87427" lon="2.37459">
        <ele>59</ele>
        <time>2013-09-26T20:57:23Z</time>
      </trkpt>
      <trkpt lat="48.87433" lon="2.37458">
        <ele>61</ele>
        <time>2013-09-26T20:57:25Z</time>
      </trkpt>
      <trkpt lat="48.87438" lon="2.37456">
        <ele>59</ele>
        <time>2013-09-26T20:57:27Z</time>
      </trkpt>
      <trkpt lat="48.87453" lon="2.37449">
        <ele>57</ele>
        <time>2013-09-26T20:57:35Z</time>
      </trkpt>
      <trkpt lat="48.87461" lon="2.37443">
        <ele>60</ele>
        <time>2013-09-26T20:57:39Z</time>
      </trkpt>
      <trkpt lat="48.87468" lon="2.37437">
        <ele>60</ele>
        <time>2013-09-26T20:57:42Z</time>
      </trkpt>
      <trkpt lat="48.87473" lon="2.37433">
        <ele>56</ele>
        <time>2013-09-26T20:57:45Z</time>
      </trkpt>
      <trkpt lat="48.87479" lon="2.37428">
        <ele>52</ele>
        <time>2013-09-26T20:57:47Z</time>
      </trkpt>
      <trkpt lat="48.87496" lon="2.37411">
        <ele>55</ele>
        <time>2013-09-26T20:57:55Z</time>
      </trkpt>
      <trkpt lat="48.87512" lon="2.37389">
        <ele>59</ele>
        <time>2013-09-26T20:58:03Z</time>
      </trkpt>
      <trkpt lat="48.87515" lon="2.37383">
        <ele>58</ele>
        <time>2013-09-26T20:58:04Z</time>
      </trkpt>
      <trkpt lat="48.87527" lon="2.37363">
        <ele>51</ele>
        <time>2013-09-26T20:58:09Z</time>
      </trkpt>
      <trkpt lat="48.8754" lon="2.37336">
        <ele>57</ele>
        <time>2013-09-26T20:58:15Z</time>
      </trkpt>
      <trkpt lat="48.8755" lon="2.37326">
        <ele>54</ele>
        <time>2013-09-26T20:58:17Z</time>
      </trkpt>
      <trkpt lat="48.87556" lon="2.37321">
        <ele>60</ele>
        <time>2013-09-26T20:58:18Z</time>
      </trkpt>
      <trkpt lat="48.8756" lon="2.37315">
        <ele>58</ele>
        <time>2013-09-26T20:58:19Z</time>
      </trkpt>
      <trkpt lat="48.87564" lon="2.37307">
        <ele>56</ele>
        <time>2013-09-26T20:58:20Z</time>
      </trkpt>
      <trkpt lat="48.87579" lon="2.37279">
        <ele>62</ele>
        <time>2013-09-26T20:58:24Z</time>
      </trkpt>
      <trkpt lat="48.87583" lon="2.37273">
        <ele>64</ele>
        <time>2013-09-26T20:58:25Z</time>
      </trkpt>
      <trkpt lat="48.87591" lon="2.37263">
        <ele>64</ele>
        <time>2013-09-26T20:58:27Z</time>
      </trkpt>
      <trkpt lat="48.87625" lon="2.3722">
        <ele>64</ele>
        <time>2013-09-26T20:58:35Z</time>
      </trkpt>
      <trkpt lat="48.87631" lon="2.37214">
        <ele>64</ele>
        <time>2013-09-26T20:58:36Z</time>
      </trkpt>
      <trkpt lat="48.87702" lon="2.37142">
        <ele>71</ele>
        <time>2013-09-26T20:58:53Z</time>
      </trkpt>
      <trkpt lat="48.87707" lon="2.37136">
        <ele>72</ele>
        <time>2013-09-26T20:58:54Z</time>
      </trkpt>
      <trkpt lat="48.87738" lon="2.37091">
        <ele>51</ele>
        <time>2013-09-26T20:59:02Z</time>
      </trkpt>
      <trkpt lat="48.87744" lon="2.37081">
        <ele>48</ele>
        <time>2013-09-26T20:59:04Z</time>
      </trkpt>
      <trkpt lat="48.8775" lon="2.37073">
        <ele>46</ele>
        <time>2013-09-26T20:59:06Z</time>
      </trkpt>
      <trkpt lat="48.87765" lon="2.37056">
        <ele>44</ele>
        <time>2013-09-26T20:59:11Z</time>
      </trkpt>
      <trkpt lat="48.87782" lon="2.37039">
        <ele>39</ele>
        <time>2013-09-26T20:59:18Z</time>
      </trkpt>
      <trkpt lat="48.87788" lon="2.37044">
        <ele>40</ele>
        <time>2013-09-26T20:59:23Z</time>
      </trkpt>
      <trkpt lat="48.87795" lon="2.37049">
        <ele>39</ele>
        <time>2013-09-26T20:59:27Z</time>
      </trkpt>
      <trkpt lat="48.87801" lon="2.3705">
        <ele>44</ele>
        <time>2013-09-26T20:59:29Z</time>
      </trkpt>
      <trkpt lat="48.87808" lon="2.37049">
        <ele>45</ele>
        <time>2013-09-26T20:59:31Z</time>
      </trkpt>
      <trkpt lat="48.87827" lon="2.37046">
        <ele>46</ele>
        <time>2013-09-26T20:59:36Z</time>
      </trkpt>
      <trkpt lat="48.87834" lon="2.37043">
        <ele>47</ele>
        <time>2013-09-26T20:59:38Z</time>
      </trkpt>
      <trkpt lat="48.87849" lon="2.37035">
        <ele>52</ele>
        <time>2013-09-26T20:59:44Z</time>
      </trkpt>
      <trkpt lat="48.87846" lon="2.37028">
        <ele>51</ele>
        <time>2013-09-26T20:59:46Z</time>
      </trkpt>
      <trkpt lat="48.87842" lon="2.37033">
        <ele>61</ele>
        <time>2013-09-26T21:00:26Z</time>
      </trkpt>
      <trkpt lat="48.87845" lon="2.37041">
        <ele>58</ele>
        <time>2013-09-26T21:00:31Z</time>
      </trkpt>
      <trkpt lat="48.87852" lon="2.37044">
        <ele>43</ele>
        <time>2013-09-26T21:00:48Z</time>
      </trkpt>
      <trkpt lat="48.87858" lon="2.3704">
        <ele>43</ele>
        <time>2013-09-26T21:00:51Z</time>
      </trkpt>
      <trkpt lat="48.87866" lon="2.3704">
        <ele>51</ele>
        <time>2013-09-26T21:00:54Z</time>
      </trkpt>
      <trkpt lat="48.87888" lon="2.3704">
        <ele>63</ele>
        <time>2013-09-26T21:00:59Z</time>
      </trkpt>
      <trkpt lat="48.87896" lon="2.37043">
        <ele>64</ele>
        <time>2013-09-26T21:01:01Z</time>
      </trkpt>
      <trkpt lat="48.87946" lon="2.37063">
        <ele>35</ele>
        <time>2013-09-26T21:01:11Z</time>
      </trkpt>
      <trkpt lat="48.87954" lon="2.37067">
        <ele>36</ele>
        <time>2013-09-26T21:01:12Z</time>
      </trkpt>
      <trkpt lat="48.87975" lon="2.37079">
        <ele>42</ele>
        <time>2013-09-26T21:01:16Z</time>
      </trkpt>
      <trkpt lat="48.87985" lon="2.37082">
        <ele>39</ele>
        <time>2013-09-26T21:01:18Z</time>
      </trkpt>
      <trkpt lat="48.8799" lon="2.37082">
        <ele>42</ele>
        <time>2013-09-26T21:01:19Z</time>
      </trkpt>
      <trkpt lat="48.87999" lon="2.37083">
        <ele>42</ele>
        <time>2013-09-26T21:01:21Z</time>
      </trkpt>
      <trkpt lat="48.88007" lon="2.37086">
        <ele>44</ele>
        <time>2013-09-26T21:01:23Z</time>
      </trkpt>
      <trkpt lat="48.88014" lon="2.37091">
        <ele>43</ele>
        <time>2013-09-26T21:01:25Z</time>
      </trkpt>
      <trkpt lat="48.88021" lon="2.37094">
        <ele>44</ele>
        <time>2013-09-26T21:01:27Z</time>
      </trkpt>
      <trkpt lat="48.88031" lon="2.37095">
        <ele>46</ele>
        <time>2013-09-26T21:01:30Z</time>
      </trkpt>
      <trkpt lat="48.88038" lon="2.3709">
        <ele>50</ele>
        <time>2013-09-26T21:01:32Z</time>
      </trkpt>
      <trkpt lat="48.88054" lon="2.37083">
        <ele>50</ele>
        <time>2013-09-26T21:01:35Z</time>
      </trkpt>
      <trkpt lat="48.88065" lon="2.37077">
        <ele>47</ele>
        <time>2013-09-26T21:01:37Z</time>
      </trkpt>
      <trkpt lat="48.88071" lon="2.37073">
        <ele>47</ele>
        <time>2013-09-26T21:01:38Z</time>
      </trkpt>
      <trkpt lat="48.88076" lon="2.3707">
        <ele>47</ele>
        <time>2013-09-26T21:01:39Z</time>
      </trkpt>
      <trkpt lat="48.88089" lon="2.37058">
        <ele>54</ele>
        <time>2013-09-26T21:01:42Z</time>
      </trkpt>
      <trkpt lat="48.88104" lon="2.37049">
        <ele>56</ele>
        <time>2013-09-26T21:01:47Z</time>
      </trkpt>
      <trkpt lat="48.88118" lon="2.37046">
        <ele>55</ele>
        <time>2013-09-26T21:01:51Z</time>
      </trkpt>
      <trkpt lat="48.88137" lon="2.37044">
        <ele>52</ele>
        <time>2013-09-26T21:01:59Z</time>
      </trkpt>
      <trkpt lat="48.88163" lon="2.37045">
        <ele>52</ele>
        <time>2013-09-26T21:02:05Z</time>
      </trkpt>
      <trkpt lat="48.88168" lon="2.37046">
        <ele>50</ele>
        <time>2013-09-26T21:02:06Z</time>
      </trkpt>
      <trkpt lat="48.88187" lon="2.37051">
        <ele>51</ele>
        <time>2013-09-26T21:02:10Z</time>
      </trkpt>
      <trkpt lat="48.88195" lon="2.37055">
        <ele>49</ele>
        <time>2013-09-26T21:02:12Z</time>
      </trkpt>
      <trkpt lat="48.88214" lon="2.37064">
        <ele>48</ele>
        <time>2013-09-26T21:02:18Z</time>
      </trkpt>
      <trkpt lat="48.88223" lon="2.37063">
        <ele>43</ele>
        <time>2013-09-26T21:02:20Z</time>
      </trkpt>
      <trkpt lat="48.88229" lon="2.3706">
        <ele>46</ele>
        <time>2013-09-26T21:02:21Z</time>
      </trkpt>
      <trkpt lat="48.88238" lon="2.37055">
        <ele>47</ele>
        <time>2013-09-26T21:02:23Z</time>
      </trkpt>
      <trkpt lat="48.88247" lon="2.37052">
        <ele>48</ele>
        <time>2013-09-26T21:02:25Z</time>
      </trkpt>
      <trkpt lat="48.88273" lon="2.37049">
        <ele>60</ele>
        <time>2013-09-26T21:02:31Z</time>
      </trkpt>
      <trkpt lat="48.88278" lon="2.37053">
        <ele>55</ele>
        <time>2013-09-26T21:02:33Z</time>
      </trkpt>
      <trkpt lat="48.88282" lon="2.37048">
        <ele>55</ele>
        <time>2013-09-26T21:02:37Z</time>
      </trkpt>
      <trkpt lat="48.88289" lon="2.37039">
        <ele>55</ele>
        <time>2013-09-26T21:02:39Z</time>
      </trkpt>
      <trkpt lat="48.88298" lon="2.37032">
        <ele>58</ele>
        <time>2013-09-26T21:02:41Z</time>
      </trkpt>
      <trkpt lat="48.88316" lon="2.37019">
        <ele>51</ele>
        <time>2013-09-26T21:02:47Z</time>
      </trkpt>
      <trkpt lat="48.88322" lon="2.37016">
        <ele>49</ele>
        <time>2013-09-26T21:02:49Z</time>
      </trkpt>
      <trkpt lat="48.88331" lon="2.37015">
        <ele>52</ele>
        <time>2013-09-26T21:02:51Z</time>
      </trkpt>
      <trkpt lat="48.88346" lon="2.37015">
        <ele>53</ele>
        <time>2013-09-26T21:02:54Z</time>
      </trkpt>
      <trkpt lat="48.88369" lon="2.37013">
        <ele>57</ele>
        <time>2013-09-26T21:02:59Z</time>
      </trkpt>
      <trkpt lat="48.88374" lon="2.37009">
        <ele>57</ele>
        <time>2013-09-26T21:03:00Z</time>
      </trkpt>
      <trkpt lat="48.88378" lon="2.37003">
        <ele>56</ele>
        <time>2013-09-26T21:03:01Z</time>
      </trkpt>
      <trkpt lat="48.88382" lon="2.36996">
        <ele>57</ele>
        <time>2013-09-26T21:03:02Z</time>
      </trkpt>
      <trkpt lat="48.88385" lon="2.36983">
        <ele>56</ele>
        <time>2013-09-26T21:03:04Z</time>
      </trkpt>
      <trkpt lat="48.8839" lon="2.36952">
        <ele>57</ele>
        <time>2013-09-26T21:03:09Z</time>
      </trkpt>
      <trkpt lat="48.8839" lon="2.36945">
        <ele>55</ele>
        <time>2013-09-26T21:03:11Z</time>
      </trkpt>
      <trkpt lat="48.88392" lon="2.36937">
        <ele>67</ele>
        <time>2013-09-26T21:03:14Z</time>
      </trkpt>
      <trkpt lat="48.88392" lon="2.36929">
        <ele>63</ele>
        <time>2013-09-26T21:03:16Z</time>
      </trkpt>
      <trkpt lat="48.88395" lon="2.3692">
        <ele>61</ele>
        <time>2013-09-26T21:03:19Z</time>
      </trkpt>
      <trkpt lat="48.884" lon="2.36916">
        <ele>64</ele>
        <time>2013-09-26T21:03:23Z</time>
      </trkpt>
      <trkpt lat="48.88405" lon="2.36917">
        <ele>53</ele>
        <time>2013-09-26T21:03:26Z</time>
      </trkpt>
      <trkpt lat="48.8841" lon="2.3692">
        <ele>51</ele>
        <time>2013-09-26T21:03:28Z</time>
      </trkpt>
      <trkpt lat="48.88412" lon="2.36923">
        <ele>50</ele>
        <time>2013-09-26T21:03:29Z</time>
      </trkpt>
      <trkpt lat="48.88414" lon="2.36925">
        <ele>52</ele>
        <time>2013-09-26T21:03:30Z</time>
      </trkpt>
      <trkpt lat="48.88417" lon="2.36933">
        <ele>56</ele>
        <time>2013-09-26T21:03:34Z</time>
      </trkpt>
      <trkpt lat="48.88418" lon="2.36945">
        <ele>56</ele>
        <time>2013-09-26T21:03:39Z</time>
      </trkpt>
      <trkpt lat="48.88422" lon="2.36975">
        <ele>57</ele>
        <time>2013-09-26T21:03:49Z</time>
      </trkpt>
      <trkpt lat="48.88424" lon="2.36987">
        <ele>54</ele>
        <time>2013-09-26T21:03:51Z</time>
      </trkpt>
      <trkpt lat="48.88429" lon="2.36998">
        <ele>51</ele>
        <time>2013-09-26T21:03:53Z</time>
      </trkpt>
      <trkpt lat="48.88438" lon="2.37017">
        <ele>44</ele>
        <time>2013-09-26T21:03:57Z</time>
      </trkpt>
      <trkpt lat="48.88442" lon="2.37022">
        <ele>42</ele>
        <time>2013-09-26T21:03:59Z</time>
      </trkpt>
      <trkpt lat="48.88445" lon="2.3703">
        <ele>45</ele>
        <time>2013-09-26T21:04:01Z</time>
      </trkpt>
      <trkpt lat="48.88451" lon="2.37041">
        <ele>48</ele>
        <time>2013-09-26T21:04:04Z</time>
      </trkpt>
      <trkpt lat="48.88455" lon="2.37047">
        <ele>40</ele>
        <time>2013-09-26T21:04:06Z</time>
      </trkpt>
      <trkpt lat="48.88463" lon="2.37061">
        <ele>38</ele>
        <time>2013-09-26T21:04:11Z</time>
      </trkpt>
      <trkpt lat="48.88475" lon="2.37086">
        <ele>42</ele>
        <time>2013-09-26T21:04:19Z</time>
      </trkpt>
      <trkpt lat="48.88476" lon="2.37095">
        <ele>43</ele>
        <time>2013-09-26T21:04:21Z</time>
      </trkpt>
      <trkpt lat="48.88479" lon="2.37102">
        <ele>43</ele>
        <time>2013-09-26T21:04:24Z</time>
      </trkpt>
      <trkpt lat="48.88485" lon="2.37109">
        <ele>44</ele>
        <time>2013-09-26T21:04:26Z</time>
      </trkpt>
      <trkpt lat="48.88492" lon="2.37116">
        <ele>50</ele>
        <time>2013-09-26T21:04:28Z</time>
      </trkpt>
      <trkpt lat="48.88495" lon="2.37121">
        <ele>53</ele>
        <time>2013-09-26T21:04:29Z</time>
      </trkpt>
      <trkpt lat="48.88525" lon="2.37158">
        <ele>59</ele>
        <time>2013-09-26T21:04:38Z</time>
      </trkpt>
      <trkpt lat="48.88534" lon="2.37173">
        <ele>59</ele>
        <time>2013-09-26T21:04:42Z</time>
      </trkpt>
      <trkpt lat="48.88535" lon="2.37185">
        <ele>47</ele>
        <time>2013-09-26T21:04:44Z</time>
      </trkpt>
      <trkpt lat="48.88541" lon="2.37213">
        <ele>49</ele>
        <time>2013-09-26T21:04:51Z</time>
      </trkpt>
      <trkpt lat="48.88544" lon="2.3722">
        <ele>50</ele>
        <time>2013-09-26T21:04:53Z</time>
      </trkpt>
      <trkpt lat="48.88547" lon="2.37227">
        <ele>54</ele>
        <time>2013-09-26T21:04:55Z</time>
      </trkpt>
      <trkpt lat="48.88571" lon="2.37281">
        <ele>42</ele>
        <time>2013-09-26T21:05:06Z</time>
      </trkpt>
      <trkpt lat="48.88575" lon="2.3729">
        <ele>47</ele>
        <time>2013-09-26T21:05:08Z</time>
      </trkpt>
      <trkpt lat="48.88586" lon="2.37314">
        <ele>46</ele>
        <time>2013-09-26T21:05:14Z</time>
      </trkpt>
      <trkpt lat="48.8859" lon="2.37322">
        <ele>43</ele>
        <time>2013-09-26T21:05:16Z</time>
      </trkpt>
      <trkpt lat="48.88594" lon="2.37331">
        <ele>56</ele>
        <time>2013-09-26T21:05:18Z</time>
      </trkpt>
      <trkpt lat="48.88605" lon="2.37355">
        <ele>55</ele>
        <time>2013-09-26T21:05:25Z</time>
      </trkpt>
      <trkpt lat="48.88609" lon="2.37361">
        <ele>54</ele>
        <time>2013-09-26T21:05:28Z</time>
      </trkpt>
      <trkpt lat="48.88614" lon="2.37364">
        <ele>46</ele>
        <time>2013-09-26T21:05:30Z</time>
      </trkpt>
      <trkpt lat="48.88618" lon="2.37373">
        <ele>40</ele>
        <time>2013-09-26T21:05:33Z</time>
      </trkpt>
      <trkpt lat="48.88621" lon="2.37379">
        <ele>40</ele>
        <time>2013-09-26T21:05:35Z</time>
      </trkpt>
      <trkpt lat="48.88644" lon="2.37423">
        <ele>39</ele>
        <time>2013-09-26T21:05:46Z</time>
      </trkpt>
      <trkpt lat="48.88647" lon="2.37431">
        <ele>40</ele>
        <time>2013-09-26T21:05:48Z</time>
      </trkpt>
      <trkpt lat="48.88651" lon="2.3744">
        <ele>41</ele>
        <time>2013-09-26T21:05:50Z</time>
      </trkpt>
      <trkpt lat="48.88655" lon="2.37449">
        <ele>45</ele>
        <time>2013-09-26T21:05:52Z</time>
      </trkpt>
      <trkpt lat="48.88665" lon="2.37475">
        <ele>48</ele>
        <time>2013-09-26T21:05:59Z</time>
      </trkpt>
      <trkpt lat="48.88673" lon="2.37494">
        <ele>54</ele>
        <time>2013-09-26T21:06:04Z</time>
      </trkpt>
      <trkpt lat="48.88683" lon="2.37513">
        <ele>51</ele>
        <time>2013-09-26T21:06:08Z</time>
      </trkpt>
      <trkpt lat="48.88696" lon="2.37538">
        <ele>52</ele>
        <time>2013-09-26T21:06:13Z</time>
      </trkpt>
      <trkpt lat="48.88703" lon="2.37548">
        <ele>45</ele>
        <time>2013-09-26T21:06:16Z</time>
      </trkpt>
      <trkpt lat="48.88717" lon="2.37572">
        <ele>39</ele>
        <time>2013-09-26T21:06:21Z</time>
      </trkpt>
      <trkpt lat="48.88729" lon="2.37595">
        <ele>39</ele>
        <time>2013-09-26T21:06:26Z</time>
      </trkpt>
      <trkpt lat="48.88734" lon="2.37604">
        <ele>40</ele>
        <time>2013-09-26T21:06:28Z</time>
      </trkpt>
      <trkpt lat="48.88738" lon="2.37613">
        <ele>42</ele>
        <time>2013-09-26T21:06:30Z</time>
      </trkpt>
      <trkpt lat="48.88751" lon="2.3764">
        <ele>44</ele>
        <time>2013-09-26T21:06:36Z</time>
      </trkpt>
      <trkpt lat="48.88761" lon="2.37665">
        <ele>46</ele>
        <time>2013-09-26T21:06:41Z</time>
      </trkpt>
      <trkpt lat="48.88773" lon="2.37691">
        <ele>53</ele>
        <time>2013-09-26T21:06:46Z</time>
      </trkpt>
      <trkpt lat="48.8878" lon="2.377">
        <ele>55</ele>
        <time>2013-09-26T21:06:48Z</time>
      </trkpt>
      <trkpt lat="48.88784" lon="2.3771">
        <ele>49</ele>
        <time>2013-09-26T21:06:50Z</time>
      </trkpt>
      <trkpt lat="48.88791" lon="2.3772">
        <ele>48</ele>
        <time>2013-09-26T21:06:52Z</time>
      </trkpt>
      <trkpt lat="48.88794" lon="2.37728">
        <ele>45</ele>
        <time>2013-09-26T21:06:54Z</time>
      </trkpt>
      <trkpt lat="48.88798" lon="2.37737">
        <ele>44</ele>
        <time>2013-09-26T21:06:56Z</time>
      </trkpt>
      <trkpt lat="48.88801" lon="2.37744">
        <ele>48</ele>
        <time>2013-09-26T21:06:58Z</time>
      </trkpt>
      <trkpt lat="48.88804" lon="2.37752">
        <ele>48</ele>
        <time>2013-09-26T21:07:00Z</time>
      </trkpt>
      <trkpt lat="48.88813" lon="2.3777">
        <ele>44</ele>
        <time>2013-09-26T21:07:04Z</time>
      </trkpt>
      <trkpt lat="48.88817" lon="2.37777">
        <ele>42</ele>
        <time>2013-09-26T21:07:06Z</time>
      </trkpt>
      <trkpt lat="48.8883" lon="2.37799">
        <ele>42</ele>
        <time>2013-09-26T21:07:12Z</time>
      </trkpt>
      <trkpt lat="48.88839" lon="2.37816">
        <ele>45</ele>
        <time>2013-09-26T21:07:17Z</time>
      </trkpt>
      <trkpt lat="48.88851" lon="2.3784">
        <ele>47</ele>
        <time>2013-09-26T21:07:26Z</time>
      </trkpt>
      <trkpt lat="48.88854" lon="2.37848">
        <ele>45</ele>
        <time>2013-09-26T21:07:29Z</time>
      </trkpt>
      <trkpt lat="48.8886" lon="2.3786">
        <ele>53</ele>
        <time>2013-09-26T21:07:36Z</time>
      </trkpt>
      <trkpt lat="48.88864" lon="2.37869">
        <ele>46</ele>
        <time>2013-09-26T21:07:43Z</time>
      </trkpt>
      <trkpt lat="48.88869" lon="2.37878">
        <ele>45</ele>
        <time>2013-09-26T21:07:46Z</time>
      </trkpt>
      <trkpt lat="48.88872" lon="2.37887">
        <ele>44</ele>
        <time>2013-09-26T21:07:48Z</time>
      </trkpt>
      <trkpt lat="48.88875" lon="2.37895">
        <ele>46</ele>
        <time>2013-09-26T21:07:50Z</time>
      </trkpt>
      <trkpt lat="48.88872" lon="2.37903">
        <ele>47</ele>
        <time>2013-09-26T21:07:53Z</time>
      </trkpt>
      <trkpt lat="48.88868" lon="2.37909">
        <ele>43</ele>
        <time>2013-09-26T21:07:56Z</time>
      </trkpt>
      <trkpt lat="48.88863" lon="2.37913">
        <ele>43</ele>
        <time>2013-09-26T21:07:59Z</time>
      </trkpt>
      <trkpt lat="48.88858" lon="2.37915">
        <ele>45</ele>
        <time>2013-09-26T21:08:01Z</time>
      </trkpt>
      <trkpt lat="48.88854" lon="2.3792">
        <ele>46</ele>
        <time>2013-09-26T21:08:03Z</time>
      </trkpt>
      <trkpt lat="48.88854" lon="2.37929">
        <ele>46</ele>
        <time>2013-09-26T21:08:05Z</time>
      </trkpt>
      <trkpt lat="48.88855" lon="2.37939">
        <ele>39</ele>
        <time>2013-09-26T21:08:07Z</time>
      </trkpt>
      <trkpt lat="48.88859" lon="2.3795">
        <ele>40</ele>
        <time>2013-09-26T21:08:10Z</time>
      </trkpt>
      <trkpt lat="48.88861" lon="2.37957">
        <ele>39</ele>
        <time>2013-09-26T21:08:12Z</time>
      </trkpt>
      <trkpt lat="48.88865" lon="2.37965">
        <ele>45</ele>
        <time>2013-09-26T21:08:14Z</time>
      </trkpt>
      <trkpt lat="48.8887" lon="2.37975">
        <ele>44</ele>
        <time>2013-09-26T21:08:16Z</time>
      </trkpt>
      <trkpt lat="48.88882" lon="2.37999">
        <ele>46</ele>
        <time>2013-09-26T21:08:22Z</time>
      </trkpt>
      <trkpt lat="48.88886" lon="2.38009">
        <ele>46</ele>
        <time>2013-09-26T21:08:24Z</time>
      </trkpt>
      <trkpt lat="48.88891" lon="2.38018">
        <ele>46</ele>
        <time>2013-09-26T21:08:26Z</time>
      </trkpt>
      <trkpt lat="48.88904" lon="2.38043">
        <ele>46</ele>
        <time>2013-09-26T21:08:32Z</time>
      </trkpt>
      <trkpt lat="48.88915" lon="2.3806">
        <ele>47</ele>
        <time>2013-09-26T21:08:36Z</time>
      </trkpt>
      <trkpt lat="48.88921" lon="2.38068">
        <ele>50</ele>
        <time>2013-09-26T21:08:38Z</time>
      </trkpt>
      <trkpt lat="48.88926" lon="2.38078">
        <ele>49</ele>
        <time>2013-09-26T21:08:40Z</time>
      </trkpt>
      <trkpt lat="48.88931" lon="2.38088">
        <ele>51</ele>
        <time>2013-09-26T21:08:42Z</time>
      </trkpt>
      <trkpt lat="48.88941" lon="2.38116">
        <ele>54</ele>
        <time>2013-09-26T21:08:47Z</time>
      </trkpt>
      <trkpt lat="48.88943" lon="2.38126">
        <ele>47</ele>
        <time>2013-09-26T21:08:49Z</time>
      </trkpt>
      <trkpt lat="48.88947" lon="2.38135">
        <ele>48</ele>
        <time>2013-09-26T21:08:51Z</time>
      </trkpt>
      <trkpt lat="48.88951" lon="2.38147">
        <ele>48</ele>
        <time>2013-09-26T21:08:53Z</time>
      </trkpt>
      <trkpt lat="48.88954" lon="2.3816">
        <ele>42</ele>
        <time>2013-09-26T21:08:55Z</time>
      </trkpt>
      <trkpt lat="48.88959" lon="2.38171">
        <ele>40</ele>
        <time>2013-09-26T21:08:57Z</time>
      </trkpt>
      <trkpt lat="48.88969" lon="2.3819">
        <ele>45</ele>
        <time>2013-09-26T21:09:01Z</time>
      </trkpt>
      <trkpt lat="48.88978" lon="2.38211">
        <ele>43</ele>
        <time>2013-09-26T21:09:05Z</time>
      </trkpt>
      <trkpt lat="48.88989" lon="2.38229">
        <ele>47</ele>
        <time>2013-09-26T21:09:09Z</time>
      </trkpt>
      <trkpt lat="48.8901" lon="2.38258">
        <ele>50</ele>
        <time>2013-09-26T21:09:16Z</time>
      </trkpt>
      <trkpt lat="48.89016" lon="2.3827">
        <ele>51</ele>
        <time>2013-09-26T21:09:19Z</time>
      </trkpt>
      <trkpt lat="48.89024" lon="2.38282">
        <ele>50</ele>
        <time>2013-09-26T21:09:22Z</time>
      </trkpt>
      <trkpt lat="48.89032" lon="2.38287">
        <ele>46</ele>
        <time>2013-09-26T21:09:24Z</time>
      </trkpt>
      <trkpt lat="48.8904" lon="2.38295">
        <ele>50</ele>
        <time>2013-09-26T21:09:26Z</time>
      </trkpt>
      <trkpt lat="48.89046" lon="2.38305">
        <ele>46</ele>
        <time>2013-09-26T21:09:28Z</time>
      </trkpt>
      <trkpt lat="48.89055" lon="2.38326">
        <ele>42</ele>
        <time>2013-09-26T21:09:33Z</time>
      </trkpt>
      <trkpt lat="48.89076" lon="2.38376">
        <ele>45</ele>
        <time>2013-09-26T21:09:47Z</time>
      </trkpt>
      <trkpt lat="48.8908" lon="2.38382">
        <ele>46</ele>
        <time>2013-09-26T21:09:49Z</time>
      </trkpt>
      <trkpt lat="48.89086" lon="2.38394">
        <ele>47</ele>
        <time>2013-09-26T21:09:52Z</time>
      </trkpt>
      <trkpt lat="48.89096" lon="2.38419">
        <ele>48</ele>
        <time>2013-09-26T21:09:58Z</time>
      </trkpt>
      <trkpt lat="48.89107" lon="2.38448">
        <ele>47</ele>
        <time>2013-09-26T21:10:06Z</time>
      </trkpt>
      <trkpt lat="48.89112" lon="2.38454">
        <ele>48</ele>
        <time>2013-09-26T21:10:09Z</time>
      </trkpt>
      <trkpt lat="48.89126" lon="2.38468">
        <ele>51</ele>
        <time>2013-09-26T21:10:15Z</time>
      </trkpt>
      <trkpt lat="48.8913" lon="2.38477">
        <ele>52</ele>
        <time>2013-09-26T21:10:18Z</time>
      </trkpt>
      <trkpt lat="48.89132" lon="2.38489">
        <ele>47</ele>
        <time>2013-09-26T21:10:21Z</time>
      </trkpt>
      <trkpt lat="48.89136" lon="2.38495">
        <ele>48</ele>
        <time>2013-09-26T21:10:23Z</time>
      </trkpt>
      <trkpt lat="48.8914" lon="2.38504">
        <ele>49</ele>
        <time>2013-09-26T21:10:27Z</time>
      </trkpt>
      <trkpt lat="48.89145" lon="2.38514">
        <ele>48</ele>
        <time>2013-09-26T21:10:32Z</time>
      </trkpt>
      <trkpt lat="48.89148" lon="2.38522">
        <ele>51</ele>
        <time>2013-09-26T21:10:35Z</time>
      </trkpt>
      <trkpt lat="48.89153" lon="2.38529">
        <ele>51</ele>
        <time>2013-09-26T21:10:38Z</time>
      </trkpt>
      <trkpt lat="48.89158" lon="2.38534">
        <ele>48</ele>
        <time>2013-09-26T21:10:40Z</time>
      </trkpt>
      <trkpt lat="48.89165" lon="2.38535">
        <ele>46</ele>
        <time>2013-09-26T21:10:42Z</time>
      </trkpt>
      <trkpt lat="48.89172" lon="2.38535">
        <ele>45</ele>
        <time>2013-09-26T21:10:44Z</time>
      </trkpt>
      <trkpt lat="48.89193" lon="2.38533">
        <ele>48</ele>
        <time>2013-09-26T21:10:50Z</time>
      </trkpt>
      <trkpt lat="48.89213" lon="2.38534">
        <ele>45</ele>
        <time>2013-09-26T21:10:55Z</time>
      </trkpt>
      <trkpt lat="48.8922" lon="2.38537">
        <ele>43</ele>
        <time>2013-09-26T21:10:57Z</time>
      </trkpt>
      <trkpt lat="48.89227" lon="2.38543">
        <ele>44</ele>
        <time>2013-09-26T21:10:59Z</time>
      </trkpt>
      <trkpt lat="48.89246" lon="2.38559">
        <ele>45</ele>
        <time>2013-09-26T21:11:05Z</time>
      </trkpt>
      <trkpt lat="48.89257" lon="2.38564">
        <ele>45</ele>
        <time>2013-09-26T21:11:08Z</time>
      </trkpt>
      <trkpt lat="48.89265" lon="2.38559">
        <ele>45</ele>
        <time>2013-09-26T21:11:10Z</time>
      </trkpt>
      <trkpt lat="48.89307" lon="2.3853">
        <ele>47</ele>
        <time>2013-09-26T21:11:18Z</time>
      </trkpt>
      <trkpt lat="48.89313" lon="2.38526">
        <ele>44</ele>
        <time>2013-09-26T21:11:19Z</time>
      </trkpt>
      <trkpt lat="48.89331" lon="2.38514">
        <ele>51</ele>
        <time>2013-09-26T21:11:22Z</time>
      </trkpt>
      <trkpt lat="48.89349" lon="2.38507">
        <ele>43</ele>
        <time>2013-09-26T21:11:25Z</time>
      </trkpt>
      <trkpt lat="48.89369" lon="2.38497">
        <ele>50</ele>
        <time>2013-09-26T21:11:29Z</time>
      </trkpt>
      <trkpt lat="48.89391" lon="2.38482">
        <ele>51</ele>
        <time>2013-09-26T21:11:33Z</time>
      </trkpt>
      <trkpt lat="48.89396" lon="2.38478">
        <ele>51</ele>
        <time>2013-09-26T21:11:34Z</time>
      </trkpt>
      <trkpt lat="48.89414" lon="2.38465">
        <ele>48</ele>
        <time>2013-09-26T21:11:37Z</time>
      </trkpt>
      <trkpt lat="48.89421" lon="2.38461">
        <ele>45</ele>
        <time>2013-09-26T21:11:38Z</time>
      </trkpt>
      <trkpt lat="48.89484" lon="2.38423">
        <ele>45</ele>
        <time>2013-09-26T21:11:47Z</time>
      </trkpt>
      <trkpt lat="48.89567" lon="2.38374">
        <ele>40</ele>
        <time>2013-09-26T21:12:01Z</time>
      </trkpt>
      <trkpt lat="48.89578" lon="2.3837">
        <ele>38</ele>
        <time>2013-09-26T21:12:04Z</time>
      </trkpt>
      <trkpt lat="48.89583" lon="2.38377">
        <ele>39</ele>
        <time>2013-09-26T21:12:06Z</time>
      </trkpt>
      <trkpt lat="48.89596" lon="2.38397">
        <ele>45</ele>
        <time>2013-09-26T21:12:12Z</time>
      </trkpt>
      <trkpt lat="48.89599" lon="2.38406">
        <ele>42</ele>
        <time>2013-09-26T21:12:15Z</time>
      </trkpt>
      <trkpt lat="48.89602" lon="2.3841">
        <ele>42</ele>
        <time>2013-09-26T21:12:16Z</time>
      </trkpt>
      <trkpt lat="48.89615" lon="2.38434">
        <ele>37</ele>
        <time>2013-09-26T21:12:25Z</time>
      </trkpt>
      <trkpt lat="48.89621" lon="2.38442">
        <ele>41</ele>
        <time>2013-09-26T21:12:28Z</time>
      </trkpt>
      <trkpt lat="48.89625" lon="2.38446">
        <ele>40</ele>
        <time>2013-09-26T21:12:30Z</time>
      </trkpt>
      <trkpt lat="48.89628" lon="2.38449">
        <ele>41</ele>
        <time>2013-09-26T21:12:31Z</time>
      </trkpt>
      <trkpt lat="48.89632" lon="2.38453">
        <ele>39</ele>
        <time>2013-09-26T21:12:33Z</time>
      </trkpt>
      <trkpt lat="48.89644" lon="2.38466">
        <ele>33</ele>
        <time>2013-09-26T21:12:39Z</time>
      </trkpt>
      <trkpt lat="48.89649" lon="2.38471">
        <ele>34</ele>
        <time>2013-09-26T21:12:41Z</time>
      </trkpt>
      <trkpt lat="48.8966" lon="2.38486">
        <ele>32</ele>
        <time>2013-09-26T21:12:47Z</time>
      </trkpt>
      <trkpt lat="48.89677" lon="2.38509">
        <ele>37</ele>
        <time>2013-09-26T21:12:55Z</time>
      </trkpt>
      <trkpt lat="48.89682" lon="2.38523">
        <ele>43</ele>
        <time>2013-09-26T21:12:59Z</time>
      </trkpt>
      <trkpt lat="48.89691" lon="2.38537">
        <ele>42</ele>
        <time>2013-09-26T21:13:03Z</time>
      </trkpt>
      <trkpt lat="48.89709" lon="2.3857">
        <ele>38</ele>
        <time>2013-09-26T21:13:14Z</time>
      </trkpt>
      <trkpt lat="48.89719" lon="2.38573">
        <ele>33</ele>
        <time>2013-09-26T21:13:18Z</time>
      </trkpt>
      <trkpt lat="48.89727" lon="2.38574">
        <ele>35</ele>
        <time>2013-09-26T21:13:21Z</time>
      </trkpt>
      <trkpt lat="48.89734" lon="2.38584">
        <ele>42</ele>
        <time>2013-09-26T21:13:26Z</time>
      </trkpt>
      <trkpt lat="48.89743" lon="2.38592">
        <ele>44</ele>
        <time>2013-09-26T21:13:31Z</time>
      </trkpt>
      <trkpt lat="48.89749" lon="2.38604">
        <ele>44</ele>
        <time>2013-09-26T21:13:35Z</time>
      </trkpt>
      <trkpt lat="48.89767" lon="2.38631">
        <ele>39</ele>
        <time>2013-09-26T21:13:49Z</time>
      </trkpt>
      <trkpt lat="48.89778" lon="2.38637">
        <ele>36</ele>
        <time>2013-09-26T21:13:51Z</time>
      </trkpt>
      <trkpt lat="48.89787" lon="2.38645">
        <ele>40</ele>
        <time>2013-09-26T21:13:52Z</time>
      </trkpt>
      <trkpt lat="48.89825" lon="2.38675">
        <ele>47</ele>
        <time>2013-09-26T21:13:58Z</time>
      </trkpt>
      <trkpt lat="48.89831" lon="2.38682">
        <ele>46</ele>
        <time>2013-09-26T21:14:00Z</time>
      </trkpt>
      <trkpt lat="48.89837" lon="2.38684">
        <ele>49</ele>
        <time>2013-09-26T21:14:02Z</time>
      </trkpt>
      <trkpt lat="48.89842" lon="2.38692">
        <ele>46</ele>
        <time>2013-09-26T21:14:04Z</time>
      </trkpt>
      <trkpt lat="48.8985" lon="2.38702">
        <ele>43</ele>
        <time>2013-09-26T21:14:07Z</time>
      </trkpt>
      <trkpt lat="48.89857" lon="2.38709">
        <ele>44</ele>
        <time>2013-09-26T21:14:09Z</time>
      </trkpt>
      <trkpt lat="48.89872" lon="2.38726">
        <ele>41</ele>
        <time>2013-09-26T21:14:13Z</time>
      </trkpt>
      <trkpt lat="48.89888" lon="2.38746">
        <ele>43</ele>
        <time>2013-09-26T21:14:19Z</time>
      </trkpt>
      <trkpt lat="48.89896" lon="2.38753">
        <ele>43</ele>
        <time>2013-09-26T21:14:21Z</time>
      </trkpt>
      <trkpt lat="48.89913" lon="2.38767">
        <ele>45</ele>
        <time>2013-09-26T21:14:25Z</time>
      </trkpt>
      <trkpt lat="48.89931" lon="2.3878">
        <ele>45</ele>
        <time>2013-09-26T21:14:30Z</time>
      </trkpt>
      <trkpt lat="48.89946" lon="2.38788">
        <ele>43</ele>
        <time>2013-09-26T21:14:34Z</time>
      </trkpt>
      <trkpt lat="48.89951" lon="2.3879">
        <ele>35</ele>
        <time>2013-09-26T21:14:36Z</time>
      </trkpt>
      <trkpt lat="48.89957" lon="2.38793">
        <ele>32</ele>
        <time>2013-09-26T21:14:38Z</time>
      </trkpt>
      <trkpt lat="48.89968" lon="2.38802">
        <ele>39</ele>
        <time>2013-09-26T21:14:44Z</time>
      </trkpt>
      <trkpt lat="48.89968" lon="2.38816">
        <ele>42</ele>
        <time>2013-09-26T21:14:50Z</time>
      </trkpt>
      <trkpt lat="48.89966" lon="2.38827">
        <ele>40</ele>
        <time>2013-09-26T21:15:08Z</time>
      </trkpt>
      <trkpt lat="48.89973" lon="2.38836">
        <ele>38</ele>
        <time>2013-09-26T21:15:13Z</time>
      </trkpt>
      <trkpt lat="48.89979" lon="2.38837">
        <ele>41</ele>
        <time>2013-09-26T21:15:15Z</time>
      </trkpt>
      <trkpt lat="48.89984" lon="2.38839">
        <ele>45</ele>
        <time>2013-09-26T21:15:17Z</time>
      </trkpt>
      <trkpt lat="48.89996" lon="2.3885">
        <ele>39</ele>
        <time>2013-09-26T21:15:23Z</time>
      </trkpt>
      <trkpt lat="48.89998" lon="2.38863">
        <ele>46</ele>
        <time>2013-09-26T21:16:08Z</time>
      </trkpt>
      <trkpt lat="48.9" lon="2.38876">
        <ele>45</ele>
        <time>2013-09-26T21:16:13Z</time>
      </trkpt>
      <trkpt lat="48.90007" lon="2.38886">
        <ele>51</ele>
        <time>2013-09-26T21:16:19Z</time>
      </trkpt>
      <trkpt lat="48.90014" lon="2.38888">
        <ele>50</ele>
        <time>2013-09-26T21:16:22Z</time>
      </trkpt>
      <trkpt lat="48.90032" lon="2.38893">
        <ele>43</ele>
        <time>2013-09-26T21:16:29Z</time>
      </trkpt>
      <trkpt lat="48.90053" lon="2.38902">
        <ele>41</ele>
        <time>2013-09-26T21:16:36Z</time>
      </trkpt>
      <trkpt lat="48.90058" lon="2.38907">
        <ele>38</ele>
        <time>2013-09-26T21:16:39Z</time>
      </trkpt>
      <trkpt lat="48.90063" lon="2.38913">
        <ele>45</ele>
        <time>2013-09-26T21:16:50Z</time>
      </trkpt>
      <trkpt lat="48.90072" lon="2.38919">
        <ele>44</ele>
        <time>2013-09-26T21:16:55Z</time>
      </trkpt>
      <trkpt lat="48.90074" lon="2.38926">
        <ele>44</ele>
        <time>2013-09-26T21:16:57Z</time>
      </trkpt>
      <trkpt lat="48.90078" lon="2.38935">
        <ele>46</ele>
        <time>2013-09-26T21:17:00Z</time>
      </trkpt>
      <trkpt lat="48.90083" lon="2.38938">
        <ele>47</ele>
        <time>2013-09-26T21:17:02Z</time>
      </trkpt>
      <trkpt lat="48.90089" lon="2.38943">
        <ele>45</ele>
        <time>2013-09-26T21:17:04Z</time>
      </trkpt>
      <trkpt lat="48.90093" lon="2.38949">
        <ele>46</ele>
        <time>2013-09-26T21:17:06Z</time>
      </trkpt>
      <trkpt lat="48.90097" lon="2.38954">
        <ele>45</ele>
        <time>2013-09-26T21:17:08Z</time>
      </trkpt>
      <trkpt lat="48.90101" lon="2.38959">
        <ele>40</ele>
        <time>2013-09-26T21:17:10Z</time>
      </trkpt>
      <trkpt lat="48.90105" lon="2.38964">
        <ele>43</ele>
        <time>2013-09-26T21:17:12Z</time>
      </trkpt>
      <trkpt lat="48.9011" lon="2.38965">
        <ele>43</ele>
        <time>2013-09-26T21:17:14Z</time>
      </trkpt>
      <trkpt lat="48.90116" lon="2.38964">
        <ele>42</ele>
        <time>2013-09-26T21:17:17Z</time>
      </trkpt>
      <trkpt lat="48.90123" lon="2.38961">
        <ele>38</ele>
        <time>2013-09-26T21:17:25Z</time>
      </trkpt>
      <trkpt lat="48.90126" lon="2.38953">
        <ele>36</ele>
        <time>2013-09-26T21:17:28Z</time>
      </trkpt>
      <trkpt lat="48.90133" lon="2.38942">
        <ele>46</ele>
        <time>2013-09-26T21:17:34Z</time>
      </trkpt>
      <trkpt lat="48.90146" lon="2.38955">
        <ele>44</ele>
        <time>2013-09-26T21:17:42Z</time>
      </trkpt>
      <trkpt lat="48.90154" lon="2.38964">
        <ele>44</ele>
        <time>2013-09-26T21:17:46Z</time>
      </trkpt>
      <trkpt lat="48.90169" lon="2.38985">
        <ele>59</ele>
        <time>2013-09-26T21:17:54Z</time>
      </trkpt>
      <trkpt lat="48.90173" lon="2.38993">
        <ele>56</ele>
        <time>2013-09-26T21:17:57Z</time>
      </trkpt>
      <trkpt lat="48.90178" lon="2.39002">
        <ele>70</ele>
        <time>2013-09-26T21:18:03Z</time>
      </trkpt>
      <trkpt lat="48.90183" lon="2.39009">
        <ele>63</ele>
        <time>2013-09-26T21:18:06Z</time>
      </trkpt>
      <trkpt lat="48.90198" lon="2.39029">
        <ele>59</ele>
        <time>2013-09-26T21:18:12Z</time>
      </trkpt>
      <trkpt lat="48.90202" lon="2.39038">
        <ele>66</ele>
        <time>2013-09-26T21:18:14Z</time>
      </trkpt>
      <trkpt lat="48.90207" lon="2.39044">
        <ele>63</ele>
        <time>2013-09-26T21:18:17Z</time>
      </trkpt>
      <trkpt lat="48.9021" lon="2.39051">
        <ele>66</ele>
        <time>2013-09-26T21:18:19Z</time>
      </trkpt>
      <trkpt lat="48.90222" lon="2.39065">
        <ele>65</ele>
        <time>2013-09-26T21:18:24Z</time>
      </trkpt>
      <trkpt lat="48.90232" lon="2.39075">
        <ele>57</ele>
        <time>2013-09-26T21:18:28Z</time>
      </trkpt>
      <trkpt lat="48.90242" lon="2.39084">
        <ele>55</ele>
        <time>2013-09-26T21:18:32Z</time>
      </trkpt>
      <trkpt lat="48.90248" lon="2.39087">
        <ele>65</ele>
        <time>2013-09-26T21:18:34Z</time>
      </trkpt>
      <trkpt lat="48.90253" lon="2.39093">
        <ele>61</ele>
        <time>2013-09-26T21:18:36Z</time>
      </trkpt>
      <trkpt lat="48.90258" lon="2.39098">
        <ele>61</ele>
        <time>2013-09-26T21:18:38Z</time>
      </trkpt>
      <trkpt lat="48.90269" lon="2.39113">
        <ele>63</ele>
        <time>2013-09-26T21:18:43Z</time>
      </trkpt>
      <trkpt lat="48.90272" lon="2.3912">
        <ele>58</ele>
        <time>2013-09-26T21:18:46Z</time>
      </trkpt>
      <trkpt lat="48.90284" lon="2.39145">
        <ele>62</ele>
        <time>2013-09-26T21:18:57Z</time>
      </trkpt>
      <trkpt lat="48.90287" lon="2.39154">
        <ele>62</ele>
        <time>2013-09-26T21:19:08Z</time>
      </trkpt>
      <trkpt lat="48.90293" lon="2.39162">
        <ele>62</ele>
        <time>2013-09-26T21:19:11Z</time>
      </trkpt>
      <trkpt lat="48.90304" lon="2.3918">
        <ele>65</ele>
        <time>2013-09-26T21:19:16Z</time>
      </trkpt>
      <trkpt lat="48.90309" lon="2.39187">
        <ele>58</ele>
        <time>2013-09-26T21:19:18Z</time>
      </trkpt>
      <trkpt lat="48.90324" lon="2.39203">
        <ele>62</ele>
        <time>2013-09-26T21:19:25Z</time>
      </trkpt>
      <trkpt lat="48.90338" lon="2.39214">
        <ele>58</ele>
        <time>2013-09-26T21:19:33Z</time>
      </trkpt>
      <trkpt lat="48.90348" lon="2.39215">
        <ele>63</ele>
        <time>2013-09-26T21:19:38Z</time>
      </trkpt>
      <trkpt lat="48.90363" lon="2.39214">
        <ele>79</ele>
        <time>2013-09-26T21:19:44Z</time>
      </trkpt>
      <trkpt lat="48.90368" lon="2.39209">
        <ele>65</ele>
        <time>2013-09-26T21:19:45Z</time>
      </trkpt>
      <trkpt lat="48.90401" lon="2.39176">
        <ele>51</ele>
        <time>2013-09-26T21:19:54Z</time>
      </trkpt>
      <trkpt lat="48.90406" lon="2.39168">
        <ele>53</ele>
        <time>2013-09-26T21:19:57Z</time>
      </trkpt>
      <trkpt lat="48.90413" lon="2.39163">
        <ele>45</ele>
        <time>2013-09-26T21:19:59Z</time>
      </trkpt>
      <trkpt lat="48.90419" lon="2.39159">
        <ele>47</ele>
        <time>2013-09-26T21:20:01Z</time>
      </trkpt>
      <trkpt lat="48.90423" lon="2.39155">
        <ele>44</ele>
        <time>2013-09-26T21:20:03Z</time>
      </trkpt>
      <trkpt lat="48.90431" lon="2.39148">
        <ele>42</ele>
        <time>2013-09-26T21:20:06Z</time>
      </trkpt>
      <trkpt lat="48.90436" lon="2.39146">
        <ele>36</ele>
        <time>2013-09-26T21:20:08Z</time>
      </trkpt>
      <trkpt lat="48.9044" lon="2.39141">
        <ele>40</ele>
        <time>2013-09-26T21:20:10Z</time>
      </trkpt>
      <trkpt lat="48.90457" lon="2.39126">
        <ele>46</ele>
        <time>2013-09-26T21:20:17Z</time>
      </trkpt>
      <trkpt lat="48.90465" lon="2.39123">
        <ele>46</ele>
        <time>2013-09-26T21:20:21Z</time>
      </trkpt>
      <trkpt lat="48.9047" lon="2.39119">
        <ele>47</ele>
        <time>2013-09-26T21:20:22Z</time>
      </trkpt>
      <trkpt lat="48.90476" lon="2.3911">
        <ele>46</ele>
        <time>2013-09-26T21:20:24Z</time>
      </trkpt>
      <trkpt lat="48.90482" lon="2.39104">
        <ele>49</ele>
        <time>2013-09-26T21:20:26Z</time>
      </trkpt>
      <trkpt lat="48.90498" lon="2.39084">
        <ele>49</ele>
        <time>2013-09-26T21:20:33Z</time>
      </trkpt>
      <trkpt lat="48.90503" lon="2.39079">
        <ele>50</ele>
        <time>2013-09-26T21:20:35Z</time>
      </trkpt>
      <trkpt lat="48.90508" lon="2.39073">
        <ele>52</ele>
        <time>2013-09-26T21:20:37Z</time>
      </trkpt>
      <trkpt lat="48.90562" lon="2.39021">
        <ele>52</ele>
        <time>2013-09-26T21:20:58Z</time>
      </trkpt>
      <trkpt lat="48.90576" lon="2.39005">
        <ele>48</ele>
        <time>2013-09-26T21:21:08Z</time>
      </trkpt>
      <trkpt lat="48.90578" lon="2.38997">
        <ele>39</ele>
        <time>2013-09-26T21:21:16Z</time>
      </trkpt>
      <trkpt lat="48.9059" lon="2.38982">
        <ele>49</ele>
        <time>2013-09-26T21:24:08Z</time>
      </trkpt>
      <trkpt lat="48.90598" lon="2.38975">
        <ele>32</ele>
        <time>2013-09-26T21:24:27Z</time>
      </trkpt>
      <trkpt lat="48.90602" lon="2.38971">
        <ele>43</ele>
        <time>2013-09-26T21:24:31Z</time>
      </trkpt>
      <trkpt lat="48.90605" lon="2.38963">
        <ele>42</ele>
        <time>2013-09-26T21:24:34Z</time>
      </trkpt>
      <trkpt lat="48.90609" lon="2.38958">
        <ele>38</ele>
        <time>2013-09-26T21:24:36Z</time>
      </trkpt>
      <trkpt lat="48.90618" lon="2.38951">
        <ele>35</ele>
        <time>2013-09-26T21:24:40Z</time>
      </trkpt>
      <trkpt lat="48.90623" lon="2.38948">
        <ele>41</ele>
        <time>2013-09-26T21:24:42Z</time>
      </trkpt>
      <trkpt lat="48.90631" lon="2.38942">
        <ele>30</ele>
        <time>2013-09-26T21:24:47Z</time>
      </trkpt>
      <trkpt lat="48.90636" lon="2.38936">
        <ele>30</ele>
        <time>2013-09-26T21:24:50Z</time>
      </trkpt>
      <trkpt lat="48.90642" lon="2.38931">
        <ele>31</ele>
        <time>2013-09-26T21:24:52Z</time>
      </trkpt>
      <trkpt lat="48.90647" lon="2.38928">
        <ele>38</ele>
        <time>2013-09-26T21:24:54Z</time>
      </trkpt>
      <trkpt lat="48.90652" lon="2.38927">
        <ele>36</ele>
        <time>2013-09-26T21:24:56Z</time>
      </trkpt>
      <trkpt lat="48.90657" lon="2.38924">
        <ele>33</ele>
        <time>2013-09-26T21:24:58Z</time>
      </trkpt>
      <trkpt lat="48.90676" lon="2.38909">
        <ele>40</ele>
        <time>2013-09-26T21:25:06Z</time>
      </trkpt>
      <trkpt lat="48.90682" lon="2.38904">
        <ele>35</ele>
        <time>2013-09-26T21:25:09Z</time>
      </trkpt>
      <trkpt lat="48.90699" lon="2.38887">
        <ele>34</ele>
        <time>2013-09-26T21:25:18Z</time>
      </trkpt>
      <trkpt lat="48.90708" lon="2.38881">
        <ele>38</ele>
        <time>2013-09-26T21:25:23Z</time>
      </trkpt>
      <trkpt lat="48.90726" lon="2.38865">
        <ele>45</ele>
        <time>2013-09-26T21:25:32Z</time>
      </trkpt>
      <trkpt lat="48.90731" lon="2.3886">
        <ele>43</ele>
        <time>2013-09-26T21:25:33Z</time>
      </trkpt>
      <trkpt lat="48.90739" lon="2.38854">
        <ele>47</ele>
        <time>2013-09-26T21:25:35Z</time>
      </trkpt>
      <trkpt lat="48.90749" lon="2.38844">
        <ele>35</ele>
        <time>2013-09-26T21:25:38Z</time>
      </trkpt>
      <trkpt lat="48.90753" lon="2.38838">
        <ele>39</ele>
        <time>2013-09-26T21:25:40Z</time>
      </trkpt>
      <trkpt lat="48.90759" lon="2.38833">
        <ele>33</ele>
        <time>2013-09-26T21:25:42Z</time>
      </trkpt>
      <trkpt lat="48.90778" lon="2.38815">
        <ele>37</ele>
        <time>2013-09-26T21:25:48Z</time>
      </trkpt>
      <trkpt lat="48.90784" lon="2.38811">
        <ele>34</ele>
        <time>2013-09-26T21:25:50Z</time>
      </trkpt>
      <trkpt lat="48.90799" lon="2.38803">
        <ele>42</ele>
        <time>2013-09-26T21:25:56Z</time>
      </trkpt>
      <trkpt lat="48.90805" lon="2.38799">
        <ele>41</ele>
        <time>2013-09-26T21:25:59Z</time>
      </trkpt>
      <trkpt lat="48.90811" lon="2.38797">
        <ele>42</ele>
        <time>2013-09-26T21:26:03Z</time>
      </trkpt>
      <trkpt lat="48.90816" lon="2.38799">
        <ele>39</ele>
        <time>2013-09-26T21:26:06Z</time>
      </trkpt>
      <trkpt lat="48.90836" lon="2.38806">
        <ele>48</ele>
        <time>2013-09-26T21:26:15Z</time>
      </trkpt>
      <trkpt lat="48.90841" lon="2.38806">
        <ele>47</ele>
        <time>2013-09-26T21:26:17Z</time>
      </trkpt>
      <trkpt lat="48.90848" lon="2.38807">
        <ele>47</ele>
        <time>2013-09-26T21:26:20Z</time>
      </trkpt>
      <trkpt lat="48.90887" lon="2.38816">
        <ele>55</ele>
        <time>2013-09-26T21:26:36Z</time>
      </trkpt>
      <trkpt lat="48.90892" lon="2.38814">
        <ele>56</ele>
        <time>2013-09-26T21:26:42Z</time>
      </trkpt>
      <trkpt lat="48.90897" lon="2.38809">
        <ele>44</ele>
        <time>2013-09-26T21:26:51Z</time>
      </trkpt>
      <trkpt lat="48.90912" lon="2.3875">
        <ele>45</ele>
        <time>2013-09-26T21:27:45Z</time>
      </trkpt>
      <trkpt lat="48.909" lon="2.38699">
        <ele>44</ele>
        <time>2013-09-26T21:28:38Z</time>
      </trkpt>
      <trkpt lat="48.90905" lon="2.38715">
        <ele>44</ele>
        <time>2013-09-26T21:28:47Z</time>
      </trkpt>
      <trkpt lat="48.90911" lon="2.38803">
        <ele>41</ele>
        <time>2013-09-26T21:30:36Z</time>
      </trkpt>
      <trkpt lat="48.90921" lon="2.38749">
        <ele>43</ele>
        <time>2013-09-26T21:35:08Z</time>
      </trkpt>
      <trkpt lat="48.90925" lon="2.38799">
        <ele>45</ele>
        <time>2013-09-26T21:35:30Z</time>
      </trkpt>
      <trkpt lat="48.90925" lon="2.38799">
        <ele>45</ele>
        <time>2013-09-26T21:35:30Z</time>
      </trkpt>
    </trkseg>
  </trk>
</gpx>